<?xml version="1.0" encoding="UTF-8" standalone="no" ?>
<gpx xmlns="http://www.topografix.com/GPX/1/1" xmlns:xsi="http://www.w3.org/2001/XMLSchema-instance" xsi:schemaLocation="http://www.topografix.com/GPX/1/1 http://www.topografix.com/GPX/1/1/gpx.xsd" version="1.1" creator="VisuGPX - https://www.visugpx.com">
  <metadata>
    <name>04-SEP-20 03:49:27 PM</name>
    <desc><![CDATA[Tour des Monts d'Aubrac.6 ème étape; La chaldette vers Termes.]]></desc>
  </metadata>
  <trk>
    <name><![CDATA[04-SEP-20 03:49:27 PM]]></name>
    <trkseg>
      <trkpt lat="44.77289" lon="3.0447">
        <ele>931.65</ele>
        <time>2020-09-04T06:00:42Z</time>
      </trkpt>
      <trkpt lat="44.7729" lon="3.04468">
        <ele>931.17</ele>
        <time>2020-09-04T06:00:57Z</time>
      </trkpt>
      <trkpt lat="44.77289" lon="3.04468">
        <ele>930.69</ele>
        <time>2020-09-04T06:01:12Z</time>
      </trkpt>
      <trkpt lat="44.77289" lon="3.04473">
        <ele>938.38</ele>
        <time>2020-09-04T06:01:27Z</time>
      </trkpt>
      <trkpt lat="44.77285" lon="3.04473">
        <ele>966.26</ele>
        <time>2020-09-04T06:01:42Z</time>
      </trkpt>
      <trkpt lat="44.77287" lon="3.04474">
        <ele>989.33</ele>
        <time>2020-09-04T06:01:57Z</time>
      </trkpt>
      <trkpt lat="44.77287" lon="3.04476">
        <ele>1005.68</ele>
        <time>2020-09-04T06:02:12Z</time>
      </trkpt>
      <trkpt lat="44.77284" lon="3.0448">
        <ele>1015.29</ele>
        <time>2020-09-04T06:02:27Z</time>
      </trkpt>
      <trkpt lat="44.77298" lon="3.04485">
        <ele>1020.58</ele>
        <time>2020-09-04T06:02:42Z</time>
      </trkpt>
      <trkpt lat="44.77309" lon="3.04481">
        <ele>1022.5</ele>
        <time>2020-09-04T06:02:57Z</time>
      </trkpt>
      <trkpt lat="44.77315" lon="3.04473">
        <ele>1022.02</ele>
        <time>2020-09-04T06:03:12Z</time>
      </trkpt>
      <trkpt lat="44.77314" lon="3.04469">
        <ele>1020.1</ele>
        <time>2020-09-04T06:03:27Z</time>
      </trkpt>
      <trkpt lat="44.77315" lon="3.04471">
        <ele>1020.1</ele>
        <time>2020-09-04T06:03:42Z</time>
      </trkpt>
      <trkpt lat="44.77317" lon="3.04481">
        <ele>1019.62</ele>
        <time>2020-09-04T06:03:57Z</time>
      </trkpt>
      <trkpt lat="44.77319" lon="3.04498">
        <ele>1020.1</ele>
        <time>2020-09-04T06:04:12Z</time>
      </trkpt>
      <trkpt lat="44.77313" lon="3.04483">
        <ele>1020.1</ele>
        <time>2020-09-04T06:04:27Z</time>
      </trkpt>
      <trkpt lat="44.77313" lon="3.04474">
        <ele>1020.1</ele>
        <time>2020-09-04T06:04:42Z</time>
      </trkpt>
      <trkpt lat="44.77311" lon="3.04468">
        <ele>1019.62</ele>
        <time>2020-09-04T06:04:57Z</time>
      </trkpt>
      <trkpt lat="44.77315" lon="3.04467">
        <ele>1019.62</ele>
        <time>2020-09-04T06:05:12Z</time>
      </trkpt>
      <trkpt lat="44.77317" lon="3.04469">
        <ele>1019.62</ele>
        <time>2020-09-04T06:05:27Z</time>
      </trkpt>
      <trkpt lat="44.77318" lon="3.04475">
        <ele>1021.06</ele>
        <time>2020-09-04T06:05:42Z</time>
      </trkpt>
      <trkpt lat="44.77318" lon="3.04472">
        <ele>1021.06</ele>
        <time>2020-09-04T06:05:57Z</time>
      </trkpt>
      <trkpt lat="44.77319" lon="3.04482">
        <ele>1021.54</ele>
        <time>2020-09-04T06:06:12Z</time>
      </trkpt>
      <trkpt lat="44.77326" lon="3.04498">
        <ele>1022.98</ele>
        <time>2020-09-04T06:06:27Z</time>
      </trkpt>
      <trkpt lat="44.77331" lon="3.04516">
        <ele>1024.42</ele>
        <time>2020-09-04T06:06:42Z</time>
      </trkpt>
      <trkpt lat="44.7733" lon="3.04533">
        <ele>1026.34</ele>
        <time>2020-09-04T06:06:57Z</time>
      </trkpt>
      <trkpt lat="44.77336" lon="3.04548">
        <ele>1027.79</ele>
        <time>2020-09-04T06:07:12Z</time>
      </trkpt>
      <trkpt lat="44.77338" lon="3.0456">
        <ele>1028.27</ele>
        <time>2020-09-04T06:07:27Z</time>
      </trkpt>
      <trkpt lat="44.77339" lon="3.04561">
        <ele>1028.27</ele>
        <time>2020-09-04T06:07:42Z</time>
      </trkpt>
      <trkpt lat="44.77337" lon="3.04576">
        <ele>1030.67</ele>
        <time>2020-09-04T06:07:57Z</time>
      </trkpt>
      <trkpt lat="44.77328" lon="3.04591">
        <ele>1032.59</ele>
        <time>2020-09-04T06:08:12Z</time>
      </trkpt>
      <trkpt lat="44.77326" lon="3.046">
        <ele>1034.04</ele>
        <time>2020-09-04T06:08:27Z</time>
      </trkpt>
      <trkpt lat="44.77321" lon="3.04617">
        <ele>1037.4</ele>
        <time>2020-09-04T06:08:42Z</time>
      </trkpt>
      <trkpt lat="44.77316" lon="3.0462">
        <ele>1037.88</ele>
        <time>2020-09-04T06:08:57Z</time>
      </trkpt>
      <trkpt lat="44.77317" lon="3.04626">
        <ele>1038.36</ele>
        <time>2020-09-04T06:09:12Z</time>
      </trkpt>
      <trkpt lat="44.77309" lon="3.04639">
        <ele>1040.76</ele>
        <time>2020-09-04T06:09:27Z</time>
      </trkpt>
      <trkpt lat="44.77298" lon="3.04652">
        <ele>1042.69</ele>
        <time>2020-09-04T06:09:42Z</time>
      </trkpt>
      <trkpt lat="44.77285" lon="3.04665">
        <ele>1043.65</ele>
        <time>2020-09-04T06:09:57Z</time>
      </trkpt>
      <trkpt lat="44.77274" lon="3.04675">
        <ele>1044.61</ele>
        <time>2020-09-04T06:10:12Z</time>
      </trkpt>
      <trkpt lat="44.77265" lon="3.04682">
        <ele>1045.57</ele>
        <time>2020-09-04T06:10:27Z</time>
      </trkpt>
      <trkpt lat="44.77267" lon="3.04682">
        <ele>1046.05</ele>
        <time>2020-09-04T06:10:42Z</time>
      </trkpt>
      <trkpt lat="44.77254" lon="3.04695">
        <ele>1046.05</ele>
        <time>2020-09-04T06:10:57Z</time>
      </trkpt>
      <trkpt lat="44.77239" lon="3.04709">
        <ele>1046.53</ele>
        <time>2020-09-04T06:11:12Z</time>
      </trkpt>
      <trkpt lat="44.77226" lon="3.04726">
        <ele>1047.49</ele>
        <time>2020-09-04T06:11:27Z</time>
      </trkpt>
      <trkpt lat="44.77217" lon="3.04742">
        <ele>1049.42</ele>
        <time>2020-09-04T06:11:42Z</time>
      </trkpt>
      <trkpt lat="44.77206" lon="3.04757">
        <ele>1050.38</ele>
        <time>2020-09-04T06:11:57Z</time>
      </trkpt>
      <trkpt lat="44.77194" lon="3.04772">
        <ele>1050.86</ele>
        <time>2020-09-04T06:12:12Z</time>
      </trkpt>
      <trkpt lat="44.77184" lon="3.04786">
        <ele>1051.82</ele>
        <time>2020-09-04T06:12:27Z</time>
      </trkpt>
      <trkpt lat="44.77177" lon="3.04793">
        <ele>1052.78</ele>
        <time>2020-09-04T06:12:42Z</time>
      </trkpt>
      <trkpt lat="44.77171" lon="3.04797">
        <ele>1052.78</ele>
        <time>2020-09-04T06:12:57Z</time>
      </trkpt>
      <trkpt lat="44.77172" lon="3.04797">
        <ele>1053.26</ele>
        <time>2020-09-04T06:13:12Z</time>
      </trkpt>
      <trkpt lat="44.77168" lon="3.04822">
        <ele>1054.22</ele>
        <time>2020-09-04T06:13:27Z</time>
      </trkpt>
      <trkpt lat="44.77165" lon="3.04847">
        <ele>1056.15</ele>
        <time>2020-09-04T06:13:42Z</time>
      </trkpt>
      <trkpt lat="44.77164" lon="3.04867">
        <ele>1058.07</ele>
        <time>2020-09-04T06:13:57Z</time>
      </trkpt>
      <trkpt lat="44.77162" lon="3.04883">
        <ele>1059.51</ele>
        <time>2020-09-04T06:14:12Z</time>
      </trkpt>
      <trkpt lat="44.77165" lon="3.04902">
        <ele>1059.99</ele>
        <time>2020-09-04T06:14:27Z</time>
      </trkpt>
      <trkpt lat="44.7717" lon="3.04926">
        <ele>1061.91</ele>
        <time>2020-09-04T06:14:42Z</time>
      </trkpt>
      <trkpt lat="44.77168" lon="3.04935">
        <ele>1062.39</ele>
        <time>2020-09-04T06:14:57Z</time>
      </trkpt>
      <trkpt lat="44.77169" lon="3.04935">
        <ele>1062.87</ele>
        <time>2020-09-04T06:15:12Z</time>
      </trkpt>
      <trkpt lat="44.77175" lon="3.04957">
        <ele>1063.36</ele>
        <time>2020-09-04T06:15:27Z</time>
      </trkpt>
      <trkpt lat="44.77181" lon="3.04983">
        <ele>1065.28</ele>
        <time>2020-09-04T06:15:42Z</time>
      </trkpt>
      <trkpt lat="44.77186" lon="3.0501">
        <ele>1065.28</ele>
        <time>2020-09-04T06:15:57Z</time>
      </trkpt>
      <trkpt lat="44.77192" lon="3.05036">
        <ele>1065.76</ele>
        <time>2020-09-04T06:16:12Z</time>
      </trkpt>
      <trkpt lat="44.77199" lon="3.05058">
        <ele>1066.24</ele>
        <time>2020-09-04T06:16:27Z</time>
      </trkpt>
      <trkpt lat="44.77211" lon="3.0508">
        <ele>1066.72</ele>
        <time>2020-09-04T06:16:42Z</time>
      </trkpt>
      <trkpt lat="44.77222" lon="3.05099">
        <ele>1065.76</ele>
        <time>2020-09-04T06:16:57Z</time>
      </trkpt>
      <trkpt lat="44.77234" lon="3.05115">
        <ele>1065.76</ele>
        <time>2020-09-04T06:17:12Z</time>
      </trkpt>
      <trkpt lat="44.77249" lon="3.05123">
        <ele>1064.8</ele>
        <time>2020-09-04T06:17:27Z</time>
      </trkpt>
      <trkpt lat="44.77265" lon="3.05129">
        <ele>1065.76</ele>
        <time>2020-09-04T06:17:42Z</time>
      </trkpt>
      <trkpt lat="44.77281" lon="3.0513">
        <ele>1067.68</ele>
        <time>2020-09-04T06:17:57Z</time>
      </trkpt>
      <trkpt lat="44.77297" lon="3.05136">
        <ele>1068.64</ele>
        <time>2020-09-04T06:18:12Z</time>
      </trkpt>
      <trkpt lat="44.77311" lon="3.05146">
        <ele>1069.6</ele>
        <time>2020-09-04T06:18:27Z</time>
      </trkpt>
      <trkpt lat="44.77324" lon="3.05157">
        <ele>1069.12</ele>
        <time>2020-09-04T06:18:42Z</time>
      </trkpt>
      <trkpt lat="44.77333" lon="3.0518">
        <ele>1066.72</ele>
        <time>2020-09-04T06:18:57Z</time>
      </trkpt>
      <trkpt lat="44.77327" lon="3.05181">
        <ele>1066.24</ele>
        <time>2020-09-04T06:19:12Z</time>
      </trkpt>
      <trkpt lat="44.77332" lon="3.05189">
        <ele>1065.76</ele>
        <time>2020-09-04T06:19:27Z</time>
      </trkpt>
      <trkpt lat="44.77331" lon="3.05216">
        <ele>1065.28</ele>
        <time>2020-09-04T06:19:42Z</time>
      </trkpt>
      <trkpt lat="44.77329" lon="3.05246">
        <ele>1066.24</ele>
        <time>2020-09-04T06:19:57Z</time>
      </trkpt>
      <trkpt lat="44.77323" lon="3.0527">
        <ele>1066.72</ele>
        <time>2020-09-04T06:20:12Z</time>
      </trkpt>
      <trkpt lat="44.77328" lon="3.05293">
        <ele>1068.64</ele>
        <time>2020-09-04T06:20:27Z</time>
      </trkpt>
      <trkpt lat="44.77334" lon="3.05312">
        <ele>1070.57</ele>
        <time>2020-09-04T06:20:42Z</time>
      </trkpt>
      <trkpt lat="44.77338" lon="3.05325">
        <ele>1071.53</ele>
        <time>2020-09-04T06:20:57Z</time>
      </trkpt>
      <trkpt lat="44.77339" lon="3.05334">
        <ele>1072.01</ele>
        <time>2020-09-04T06:21:12Z</time>
      </trkpt>
      <trkpt lat="44.77334" lon="3.05339">
        <ele>1072.97</ele>
        <time>2020-09-04T06:21:27Z</time>
      </trkpt>
      <trkpt lat="44.77346" lon="3.05342">
        <ele>1072.49</ele>
        <time>2020-09-04T06:21:42Z</time>
      </trkpt>
      <trkpt lat="44.77347" lon="3.05342">
        <ele>1071.53</ele>
        <time>2020-09-04T06:21:57Z</time>
      </trkpt>
      <trkpt lat="44.77348" lon="3.0534">
        <ele>1072.01</ele>
        <time>2020-09-04T06:22:12Z</time>
      </trkpt>
      <trkpt lat="44.7735" lon="3.05351">
        <ele>1072.97</ele>
        <time>2020-09-04T06:22:27Z</time>
      </trkpt>
      <trkpt lat="44.77351" lon="3.05349">
        <ele>1072.49</ele>
        <time>2020-09-04T06:22:42Z</time>
      </trkpt>
      <trkpt lat="44.77354" lon="3.05343">
        <ele>1072.01</ele>
        <time>2020-09-04T06:22:57Z</time>
      </trkpt>
      <trkpt lat="44.77354" lon="3.05341">
        <ele>1072.49</ele>
        <time>2020-09-04T06:23:12Z</time>
      </trkpt>
      <trkpt lat="44.77373" lon="3.05343">
        <ele>1072.01</ele>
        <time>2020-09-04T06:23:27Z</time>
      </trkpt>
      <trkpt lat="44.77391" lon="3.05357">
        <ele>1072.49</ele>
        <time>2020-09-04T06:23:42Z</time>
      </trkpt>
      <trkpt lat="44.7741" lon="3.05367">
        <ele>1072.97</ele>
        <time>2020-09-04T06:23:57Z</time>
      </trkpt>
      <trkpt lat="44.77429" lon="3.0537">
        <ele>1072.97</ele>
        <time>2020-09-04T06:24:12Z</time>
      </trkpt>
      <trkpt lat="44.77452" lon="3.05371">
        <ele>1073.45</ele>
        <time>2020-09-04T06:24:27Z</time>
      </trkpt>
      <trkpt lat="44.77472" lon="3.05374">
        <ele>1073.93</ele>
        <time>2020-09-04T06:24:42Z</time>
      </trkpt>
      <trkpt lat="44.77492" lon="3.05378">
        <ele>1074.41</ele>
        <time>2020-09-04T06:24:57Z</time>
      </trkpt>
      <trkpt lat="44.77507" lon="3.05375">
        <ele>1075.85</ele>
        <time>2020-09-04T06:25:12Z</time>
      </trkpt>
      <trkpt lat="44.77524" lon="3.05383">
        <ele>1077.29</ele>
        <time>2020-09-04T06:25:27Z</time>
      </trkpt>
      <trkpt lat="44.77538" lon="3.05385">
        <ele>1075.85</ele>
        <time>2020-09-04T06:25:42Z</time>
      </trkpt>
      <trkpt lat="44.77543" lon="3.05385">
        <ele>1076.33</ele>
        <time>2020-09-04T06:25:57Z</time>
      </trkpt>
      <trkpt lat="44.7756" lon="3.05395">
        <ele>1074.89</ele>
        <time>2020-09-04T06:26:12Z</time>
      </trkpt>
      <trkpt lat="44.77578" lon="3.054">
        <ele>1074.41</ele>
        <time>2020-09-04T06:26:27Z</time>
      </trkpt>
      <trkpt lat="44.77598" lon="3.05405">
        <ele>1073.93</ele>
        <time>2020-09-04T06:26:42Z</time>
      </trkpt>
      <trkpt lat="44.77618" lon="3.05411">
        <ele>1073.45</ele>
        <time>2020-09-04T06:26:57Z</time>
      </trkpt>
      <trkpt lat="44.77635" lon="3.05418">
        <ele>1072.97</ele>
        <time>2020-09-04T06:27:12Z</time>
      </trkpt>
      <trkpt lat="44.77654" lon="3.05421">
        <ele>1072.49</ele>
        <time>2020-09-04T06:27:27Z</time>
      </trkpt>
      <trkpt lat="44.77673" lon="3.05419">
        <ele>1071.05</ele>
        <time>2020-09-04T06:27:42Z</time>
      </trkpt>
      <trkpt lat="44.77692" lon="3.05414">
        <ele>1069.6</ele>
        <time>2020-09-04T06:27:57Z</time>
      </trkpt>
      <trkpt lat="44.77708" lon="3.05409">
        <ele>1069.12</ele>
        <time>2020-09-04T06:28:12Z</time>
      </trkpt>
      <trkpt lat="44.77728" lon="3.05405">
        <ele>1068.64</ele>
        <time>2020-09-04T06:28:27Z</time>
      </trkpt>
      <trkpt lat="44.77741" lon="3.05406">
        <ele>1068.16</ele>
        <time>2020-09-04T06:28:42Z</time>
      </trkpt>
      <trkpt lat="44.77762" lon="3.054">
        <ele>1066.72</ele>
        <time>2020-09-04T06:28:57Z</time>
      </trkpt>
      <trkpt lat="44.77782" lon="3.05392">
        <ele>1065.28</ele>
        <time>2020-09-04T06:29:12Z</time>
      </trkpt>
      <trkpt lat="44.77802" lon="3.0539">
        <ele>1063.36</ele>
        <time>2020-09-04T06:29:27Z</time>
      </trkpt>
      <trkpt lat="44.77811" lon="3.05391">
        <ele>1063.84</ele>
        <time>2020-09-04T06:29:42Z</time>
      </trkpt>
      <trkpt lat="44.77821" lon="3.05388">
        <ele>1062.87</ele>
        <time>2020-09-04T06:29:57Z</time>
      </trkpt>
      <trkpt lat="44.77839" lon="3.05385">
        <ele>1062.87</ele>
        <time>2020-09-04T06:30:12Z</time>
      </trkpt>
      <trkpt lat="44.77854" lon="3.05366">
        <ele>1062.39</ele>
        <time>2020-09-04T06:30:27Z</time>
      </trkpt>
      <trkpt lat="44.77867" lon="3.05345">
        <ele>1060.95</ele>
        <time>2020-09-04T06:30:42Z</time>
      </trkpt>
      <trkpt lat="44.7788" lon="3.05323">
        <ele>1059.03</ele>
        <time>2020-09-04T06:30:57Z</time>
      </trkpt>
      <trkpt lat="44.77889" lon="3.05312">
        <ele>1057.59</ele>
        <time>2020-09-04T06:31:12Z</time>
      </trkpt>
      <trkpt lat="44.7789" lon="3.05301">
        <ele>1056.63</ele>
        <time>2020-09-04T06:31:27Z</time>
      </trkpt>
      <trkpt lat="44.77903" lon="3.05279">
        <ele>1054.7</ele>
        <time>2020-09-04T06:31:42Z</time>
      </trkpt>
      <trkpt lat="44.77921" lon="3.05261">
        <ele>1052.3</ele>
        <time>2020-09-04T06:31:57Z</time>
      </trkpt>
      <trkpt lat="44.77937" lon="3.05244">
        <ele>1050.38</ele>
        <time>2020-09-04T06:32:12Z</time>
      </trkpt>
      <trkpt lat="44.77958" lon="3.05242">
        <ele>1049.9</ele>
        <time>2020-09-04T06:32:27Z</time>
      </trkpt>
      <trkpt lat="44.77975" lon="3.05241">
        <ele>1046.05</ele>
        <time>2020-09-04T06:32:42Z</time>
      </trkpt>
      <trkpt lat="44.77991" lon="3.05243">
        <ele>1044.13</ele>
        <time>2020-09-04T06:32:57Z</time>
      </trkpt>
      <trkpt lat="44.78004" lon="3.05251">
        <ele>1040.76</ele>
        <time>2020-09-04T06:33:12Z</time>
      </trkpt>
      <trkpt lat="44.78015" lon="3.05282">
        <ele>1037.4</ele>
        <time>2020-09-04T06:33:27Z</time>
      </trkpt>
      <trkpt lat="44.78019" lon="3.0531">
        <ele>1036.44</ele>
        <time>2020-09-04T06:33:42Z</time>
      </trkpt>
      <trkpt lat="44.7802" lon="3.05313">
        <ele>1035.96</ele>
        <time>2020-09-04T06:33:57Z</time>
      </trkpt>
      <trkpt lat="44.78024" lon="3.05318">
        <ele>1035.48</ele>
        <time>2020-09-04T06:34:12Z</time>
      </trkpt>
      <trkpt lat="44.78031" lon="3.05296">
        <ele>1032.59</ele>
        <time>2020-09-04T06:34:27Z</time>
      </trkpt>
      <trkpt lat="44.7804" lon="3.05273">
        <ele>1029.23</ele>
        <time>2020-09-04T06:34:42Z</time>
      </trkpt>
      <trkpt lat="44.78056" lon="3.05265">
        <ele>1026.34</ele>
        <time>2020-09-04T06:34:57Z</time>
      </trkpt>
      <trkpt lat="44.78076" lon="3.05261">
        <ele>1024.42</ele>
        <time>2020-09-04T06:35:12Z</time>
      </trkpt>
      <trkpt lat="44.7809" lon="3.05274">
        <ele>1021.54</ele>
        <time>2020-09-04T06:35:27Z</time>
      </trkpt>
      <trkpt lat="44.78083" lon="3.05298">
        <ele>1021.54</ele>
        <time>2020-09-04T06:35:42Z</time>
      </trkpt>
      <trkpt lat="44.78075" lon="3.05321">
        <ele>1021.54</ele>
        <time>2020-09-04T06:35:57Z</time>
      </trkpt>
      <trkpt lat="44.78068" lon="3.05346">
        <ele>1022.02</ele>
        <time>2020-09-04T06:36:12Z</time>
      </trkpt>
      <trkpt lat="44.78063" lon="3.05374">
        <ele>1022.5</ele>
        <time>2020-09-04T06:36:27Z</time>
      </trkpt>
      <trkpt lat="44.7806" lon="3.05399">
        <ele>1022.5</ele>
        <time>2020-09-04T06:36:42Z</time>
      </trkpt>
      <trkpt lat="44.78067" lon="3.0542">
        <ele>1023.94</ele>
        <time>2020-09-04T06:36:57Z</time>
      </trkpt>
      <trkpt lat="44.78072" lon="3.05432">
        <ele>1024.42</ele>
        <time>2020-09-04T06:37:12Z</time>
      </trkpt>
      <trkpt lat="44.78073" lon="3.05429">
        <ele>1024.9</ele>
        <time>2020-09-04T06:37:27Z</time>
      </trkpt>
      <trkpt lat="44.78084" lon="3.0544">
        <ele>1025.86</ele>
        <time>2020-09-04T06:37:42Z</time>
      </trkpt>
      <trkpt lat="44.78101" lon="3.05441">
        <ele>1027.31</ele>
        <time>2020-09-04T06:37:57Z</time>
      </trkpt>
      <trkpt lat="44.78121" lon="3.0544">
        <ele>1028.75</ele>
        <time>2020-09-04T06:38:12Z</time>
      </trkpt>
      <trkpt lat="44.78138" lon="3.05439">
        <ele>1030.19</ele>
        <time>2020-09-04T06:38:27Z</time>
      </trkpt>
      <trkpt lat="44.78156" lon="3.0544">
        <ele>1031.63</ele>
        <time>2020-09-04T06:38:42Z</time>
      </trkpt>
      <trkpt lat="44.78174" lon="3.05442">
        <ele>1032.59</ele>
        <time>2020-09-04T06:38:57Z</time>
      </trkpt>
      <trkpt lat="44.78191" lon="3.05444">
        <ele>1034.04</ele>
        <time>2020-09-04T06:39:12Z</time>
      </trkpt>
      <trkpt lat="44.78208" lon="3.05446">
        <ele>1035</ele>
        <time>2020-09-04T06:39:27Z</time>
      </trkpt>
      <trkpt lat="44.78224" lon="3.05446">
        <ele>1035.96</ele>
        <time>2020-09-04T06:39:42Z</time>
      </trkpt>
      <trkpt lat="44.78243" lon="3.05448">
        <ele>1037.4</ele>
        <time>2020-09-04T06:39:57Z</time>
      </trkpt>
      <trkpt lat="44.78259" lon="3.05453">
        <ele>1038.36</ele>
        <time>2020-09-04T06:40:12Z</time>
      </trkpt>
      <trkpt lat="44.78275" lon="3.05465">
        <ele>1040.28</ele>
        <time>2020-09-04T06:40:27Z</time>
      </trkpt>
      <trkpt lat="44.78289" lon="3.0548">
        <ele>1040.76</ele>
        <time>2020-09-04T06:40:42Z</time>
      </trkpt>
      <trkpt lat="44.78297" lon="3.05499">
        <ele>1041.73</ele>
        <time>2020-09-04T06:40:57Z</time>
      </trkpt>
      <trkpt lat="44.78294" lon="3.05503">
        <ele>1041.73</ele>
        <time>2020-09-04T06:41:12Z</time>
      </trkpt>
      <trkpt lat="44.78299" lon="3.05517">
        <ele>1042.69</ele>
        <time>2020-09-04T06:41:27Z</time>
      </trkpt>
      <trkpt lat="44.78305" lon="3.05538">
        <ele>1044.61</ele>
        <time>2020-09-04T06:41:42Z</time>
      </trkpt>
      <trkpt lat="44.78311" lon="3.05559">
        <ele>1046.05</ele>
        <time>2020-09-04T06:41:57Z</time>
      </trkpt>
      <trkpt lat="44.78304" lon="3.05573">
        <ele>1048.94</ele>
        <time>2020-09-04T06:42:12Z</time>
      </trkpt>
      <trkpt lat="44.78291" lon="3.05573">
        <ele>1051.34</ele>
        <time>2020-09-04T06:42:27Z</time>
      </trkpt>
      <trkpt lat="44.78278" lon="3.05567">
        <ele>1053.26</ele>
        <time>2020-09-04T06:42:42Z</time>
      </trkpt>
      <trkpt lat="44.78273" lon="3.05578">
        <ele>1055.67</ele>
        <time>2020-09-04T06:42:57Z</time>
      </trkpt>
      <trkpt lat="44.78265" lon="3.05591">
        <ele>1057.59</ele>
        <time>2020-09-04T06:43:12Z</time>
      </trkpt>
      <trkpt lat="44.78255" lon="3.05603">
        <ele>1059.51</ele>
        <time>2020-09-04T06:43:27Z</time>
      </trkpt>
      <trkpt lat="44.78247" lon="3.05612">
        <ele>1060.95</ele>
        <time>2020-09-04T06:43:42Z</time>
      </trkpt>
      <trkpt lat="44.78238" lon="3.05621">
        <ele>1062.87</ele>
        <time>2020-09-04T06:43:57Z</time>
      </trkpt>
      <trkpt lat="44.7823" lon="3.0563">
        <ele>1065.28</ele>
        <time>2020-09-04T06:44:12Z</time>
      </trkpt>
      <trkpt lat="44.78222" lon="3.05639">
        <ele>1067.68</ele>
        <time>2020-09-04T06:44:27Z</time>
      </trkpt>
      <trkpt lat="44.78212" lon="3.05649">
        <ele>1069.6</ele>
        <time>2020-09-04T06:44:42Z</time>
      </trkpt>
      <trkpt lat="44.78206" lon="3.05659">
        <ele>1071.53</ele>
        <time>2020-09-04T06:44:57Z</time>
      </trkpt>
      <trkpt lat="44.78198" lon="3.05669">
        <ele>1073.45</ele>
        <time>2020-09-04T06:45:12Z</time>
      </trkpt>
      <trkpt lat="44.78191" lon="3.05679">
        <ele>1075.37</ele>
        <time>2020-09-04T06:45:27Z</time>
      </trkpt>
      <trkpt lat="44.78185" lon="3.05693">
        <ele>1076.81</ele>
        <time>2020-09-04T06:45:42Z</time>
      </trkpt>
      <trkpt lat="44.7818" lon="3.05706">
        <ele>1079.7</ele>
        <time>2020-09-04T06:45:57Z</time>
      </trkpt>
      <trkpt lat="44.7818" lon="3.05706">
        <ele>1080.18</ele>
        <time>2020-09-04T06:46:12Z</time>
      </trkpt>
      <trkpt lat="44.78175" lon="3.05721">
        <ele>1081.62</ele>
        <time>2020-09-04T06:46:27Z</time>
      </trkpt>
      <trkpt lat="44.78171" lon="3.05737">
        <ele>1084.5</ele>
        <time>2020-09-04T06:46:42Z</time>
      </trkpt>
      <trkpt lat="44.78165" lon="3.05753">
        <ele>1086.43</ele>
        <time>2020-09-04T06:46:57Z</time>
      </trkpt>
      <trkpt lat="44.78159" lon="3.05768">
        <ele>1088.83</ele>
        <time>2020-09-04T06:47:12Z</time>
      </trkpt>
      <trkpt lat="44.78152" lon="3.05782">
        <ele>1090.27</ele>
        <time>2020-09-04T06:47:27Z</time>
      </trkpt>
      <trkpt lat="44.78144" lon="3.05795">
        <ele>1092.2</ele>
        <time>2020-09-04T06:47:42Z</time>
      </trkpt>
      <trkpt lat="44.78138" lon="3.05796">
        <ele>1092.68</ele>
        <time>2020-09-04T06:47:57Z</time>
      </trkpt>
      <trkpt lat="44.78133" lon="3.05802">
        <ele>1093.64</ele>
        <time>2020-09-04T06:48:12Z</time>
      </trkpt>
      <trkpt lat="44.7812" lon="3.0581">
        <ele>1094.6</ele>
        <time>2020-09-04T06:48:27Z</time>
      </trkpt>
      <trkpt lat="44.78107" lon="3.05815">
        <ele>1095.08</ele>
        <time>2020-09-04T06:48:42Z</time>
      </trkpt>
      <trkpt lat="44.78092" lon="3.05823">
        <ele>1096.04</ele>
        <time>2020-09-04T06:48:57Z</time>
      </trkpt>
      <trkpt lat="44.78078" lon="3.05828">
        <ele>1096.04</ele>
        <time>2020-09-04T06:49:12Z</time>
      </trkpt>
      <trkpt lat="44.78065" lon="3.05834">
        <ele>1097</ele>
        <time>2020-09-04T06:49:27Z</time>
      </trkpt>
      <trkpt lat="44.78052" lon="3.05842">
        <ele>1097.96</ele>
        <time>2020-09-04T06:49:42Z</time>
      </trkpt>
      <trkpt lat="44.78046" lon="3.05858">
        <ele>1099.89</ele>
        <time>2020-09-04T06:49:57Z</time>
      </trkpt>
      <trkpt lat="44.78035" lon="3.05869">
        <ele>1101.81</ele>
        <time>2020-09-04T06:50:12Z</time>
      </trkpt>
      <trkpt lat="44.78034" lon="3.05883">
        <ele>1103.25</ele>
        <time>2020-09-04T06:50:27Z</time>
      </trkpt>
      <trkpt lat="44.78033" lon="3.05898">
        <ele>1104.69</ele>
        <time>2020-09-04T06:50:42Z</time>
      </trkpt>
      <trkpt lat="44.78022" lon="3.05905">
        <ele>1106.61</ele>
        <time>2020-09-04T06:50:57Z</time>
      </trkpt>
      <trkpt lat="44.78021" lon="3.05906">
        <ele>1106.61</ele>
        <time>2020-09-04T06:51:12Z</time>
      </trkpt>
      <trkpt lat="44.78022" lon="3.0592">
        <ele>1108.54</ele>
        <time>2020-09-04T06:51:27Z</time>
      </trkpt>
      <trkpt lat="44.78022" lon="3.05925">
        <ele>1109.98</ele>
        <time>2020-09-04T06:51:42Z</time>
      </trkpt>
      <trkpt lat="44.78022" lon="3.05923">
        <ele>1109.98</ele>
        <time>2020-09-04T06:51:57Z</time>
      </trkpt>
      <trkpt lat="44.78022" lon="3.05922">
        <ele>1109.98</ele>
        <time>2020-09-04T06:52:12Z</time>
      </trkpt>
      <trkpt lat="44.78024" lon="3.05937">
        <ele>1111.42</ele>
        <time>2020-09-04T06:52:27Z</time>
      </trkpt>
      <trkpt lat="44.78029" lon="3.0594">
        <ele>1114.31</ele>
        <time>2020-09-04T06:52:42Z</time>
      </trkpt>
      <trkpt lat="44.78034" lon="3.05941">
        <ele>1117.67</ele>
        <time>2020-09-04T06:52:57Z</time>
      </trkpt>
      <trkpt lat="44.78042" lon="3.05945">
        <ele>1119.59</ele>
        <time>2020-09-04T06:53:12Z</time>
      </trkpt>
      <trkpt lat="44.78048" lon="3.05945">
        <ele>1121.52</ele>
        <time>2020-09-04T06:53:27Z</time>
      </trkpt>
      <trkpt lat="44.7806" lon="3.05948">
        <ele>1123.44</ele>
        <time>2020-09-04T06:53:42Z</time>
      </trkpt>
      <trkpt lat="44.78067" lon="3.05957">
        <ele>1124.4</ele>
        <time>2020-09-04T06:53:57Z</time>
      </trkpt>
      <trkpt lat="44.78069" lon="3.05957">
        <ele>1124.88</ele>
        <time>2020-09-04T06:54:12Z</time>
      </trkpt>
      <trkpt lat="44.7807" lon="3.05957">
        <ele>1125.36</ele>
        <time>2020-09-04T06:54:27Z</time>
      </trkpt>
      <trkpt lat="44.78077" lon="3.05953">
        <ele>1124.4</ele>
        <time>2020-09-04T06:54:42Z</time>
      </trkpt>
      <trkpt lat="44.78082" lon="3.05947">
        <ele>1124.88</ele>
        <time>2020-09-04T06:54:57Z</time>
      </trkpt>
      <trkpt lat="44.78089" lon="3.05937">
        <ele>1126.32</ele>
        <time>2020-09-04T06:55:12Z</time>
      </trkpt>
      <trkpt lat="44.78091" lon="3.05944">
        <ele>1126.32</ele>
        <time>2020-09-04T06:55:27Z</time>
      </trkpt>
      <trkpt lat="44.78091" lon="3.05942">
        <ele>1126.32</ele>
        <time>2020-09-04T06:55:42Z</time>
      </trkpt>
      <trkpt lat="44.78097" lon="3.0594">
        <ele>1127.28</ele>
        <time>2020-09-04T06:55:57Z</time>
      </trkpt>
      <trkpt lat="44.78105" lon="3.05936">
        <ele>1127.28</ele>
        <time>2020-09-04T06:56:12Z</time>
      </trkpt>
      <trkpt lat="44.78117" lon="3.05925">
        <ele>1126.32</ele>
        <time>2020-09-04T06:56:27Z</time>
      </trkpt>
      <trkpt lat="44.78127" lon="3.05923">
        <ele>1125.36</ele>
        <time>2020-09-04T06:56:42Z</time>
      </trkpt>
      <trkpt lat="44.78137" lon="3.05911">
        <ele>1126.8</ele>
        <time>2020-09-04T06:56:57Z</time>
      </trkpt>
      <trkpt lat="44.78138" lon="3.059">
        <ele>1126.8</ele>
        <time>2020-09-04T06:57:12Z</time>
      </trkpt>
      <trkpt lat="44.78138" lon="3.05896">
        <ele>1127.28</ele>
        <time>2020-09-04T06:57:27Z</time>
      </trkpt>
      <trkpt lat="44.78136" lon="3.05892">
        <ele>1127.76</ele>
        <time>2020-09-04T06:57:42Z</time>
      </trkpt>
      <trkpt lat="44.78135" lon="3.05895">
        <ele>1127.76</ele>
        <time>2020-09-04T06:57:57Z</time>
      </trkpt>
      <trkpt lat="44.78135" lon="3.05894">
        <ele>1127.76</ele>
        <time>2020-09-04T06:58:12Z</time>
      </trkpt>
      <trkpt lat="44.78132" lon="3.05894">
        <ele>1127.76</ele>
        <time>2020-09-04T06:58:27Z</time>
      </trkpt>
      <trkpt lat="44.78131" lon="3.05894">
        <ele>1128.24</ele>
        <time>2020-09-04T06:58:42Z</time>
      </trkpt>
      <trkpt lat="44.78132" lon="3.05893">
        <ele>1127.76</ele>
        <time>2020-09-04T06:58:57Z</time>
      </trkpt>
      <trkpt lat="44.7814" lon="3.05891">
        <ele>1128.24</ele>
        <time>2020-09-04T06:59:12Z</time>
      </trkpt>
      <trkpt lat="44.78141" lon="3.05892">
        <ele>1128.24</ele>
        <time>2020-09-04T06:59:27Z</time>
      </trkpt>
      <trkpt lat="44.78141" lon="3.05892">
        <ele>1128.24</ele>
        <time>2020-09-04T06:59:42Z</time>
      </trkpt>
      <trkpt lat="44.78139" lon="3.05892">
        <ele>1127.28</ele>
        <time>2020-09-04T06:59:57Z</time>
      </trkpt>
      <trkpt lat="44.78137" lon="3.05893">
        <ele>1127.28</ele>
        <time>2020-09-04T07:00:12Z</time>
      </trkpt>
      <trkpt lat="44.78135" lon="3.05893">
        <ele>1127.28</ele>
        <time>2020-09-04T07:00:27Z</time>
      </trkpt>
      <trkpt lat="44.78134" lon="3.05893">
        <ele>1127.28</ele>
        <time>2020-09-04T07:00:42Z</time>
      </trkpt>
      <trkpt lat="44.78134" lon="3.05895">
        <ele>1126.8</ele>
        <time>2020-09-04T07:00:57Z</time>
      </trkpt>
      <trkpt lat="44.78134" lon="3.05895">
        <ele>1126.8</ele>
        <time>2020-09-04T07:01:12Z</time>
      </trkpt>
      <trkpt lat="44.78133" lon="3.05893">
        <ele>1127.28</ele>
        <time>2020-09-04T07:01:27Z</time>
      </trkpt>
      <trkpt lat="44.78135" lon="3.05894">
        <ele>1127.76</ele>
        <time>2020-09-04T07:01:42Z</time>
      </trkpt>
      <trkpt lat="44.78135" lon="3.05893">
        <ele>1127.28</ele>
        <time>2020-09-04T07:01:57Z</time>
      </trkpt>
      <trkpt lat="44.78134" lon="3.05892">
        <ele>1127.28</ele>
        <time>2020-09-04T07:02:12Z</time>
      </trkpt>
      <trkpt lat="44.78134" lon="3.05892">
        <ele>1127.76</ele>
        <time>2020-09-04T07:02:27Z</time>
      </trkpt>
      <trkpt lat="44.78135" lon="3.05904">
        <ele>1127.28</ele>
        <time>2020-09-04T07:02:42Z</time>
      </trkpt>
      <trkpt lat="44.78138" lon="3.05903">
        <ele>1126.8</ele>
        <time>2020-09-04T07:02:57Z</time>
      </trkpt>
      <trkpt lat="44.78139" lon="3.05902">
        <ele>1126.8</ele>
        <time>2020-09-04T07:03:12Z</time>
      </trkpt>
      <trkpt lat="44.78138" lon="3.05902">
        <ele>1126.8</ele>
        <time>2020-09-04T07:03:27Z</time>
      </trkpt>
      <trkpt lat="44.78138" lon="3.05904">
        <ele>1126.8</ele>
        <time>2020-09-04T07:03:42Z</time>
      </trkpt>
      <trkpt lat="44.78139" lon="3.05904">
        <ele>1127.76</ele>
        <time>2020-09-04T07:03:57Z</time>
      </trkpt>
      <trkpt lat="44.7814" lon="3.05904">
        <ele>1127.76</ele>
        <time>2020-09-04T07:04:12Z</time>
      </trkpt>
      <trkpt lat="44.78151" lon="3.05903">
        <ele>1127.76</ele>
        <time>2020-09-04T07:04:27Z</time>
      </trkpt>
      <trkpt lat="44.7817" lon="3.0591">
        <ele>1128.24</ele>
        <time>2020-09-04T07:04:42Z</time>
      </trkpt>
      <trkpt lat="44.7818" lon="3.05922">
        <ele>1128.24</ele>
        <time>2020-09-04T07:04:57Z</time>
      </trkpt>
      <trkpt lat="44.78187" lon="3.05927">
        <ele>1129.21</ele>
        <time>2020-09-04T07:05:12Z</time>
      </trkpt>
      <trkpt lat="44.78186" lon="3.05928">
        <ele>1129.69</ele>
        <time>2020-09-04T07:05:27Z</time>
      </trkpt>
      <trkpt lat="44.78187" lon="3.05929">
        <ele>1130.17</ele>
        <time>2020-09-04T07:05:42Z</time>
      </trkpt>
      <trkpt lat="44.78182" lon="3.05929">
        <ele>1128.73</ele>
        <time>2020-09-04T07:05:57Z</time>
      </trkpt>
      <trkpt lat="44.78175" lon="3.05925">
        <ele>1127.28</ele>
        <time>2020-09-04T07:06:12Z</time>
      </trkpt>
      <trkpt lat="44.7816" lon="3.05925">
        <ele>1128.24</ele>
        <time>2020-09-04T07:06:27Z</time>
      </trkpt>
      <trkpt lat="44.78146" lon="3.05919">
        <ele>1128.73</ele>
        <time>2020-09-04T07:06:42Z</time>
      </trkpt>
      <trkpt lat="44.78136" lon="3.05913">
        <ele>1127.76</ele>
        <time>2020-09-04T07:06:57Z</time>
      </trkpt>
      <trkpt lat="44.78127" lon="3.05923">
        <ele>1126.32</ele>
        <time>2020-09-04T07:07:12Z</time>
      </trkpt>
      <trkpt lat="44.78113" lon="3.05929">
        <ele>1127.76</ele>
        <time>2020-09-04T07:07:27Z</time>
      </trkpt>
      <trkpt lat="44.78101" lon="3.05937">
        <ele>1128.24</ele>
        <time>2020-09-04T07:07:42Z</time>
      </trkpt>
      <trkpt lat="44.78099" lon="3.05952">
        <ele>1128.73</ele>
        <time>2020-09-04T07:07:57Z</time>
      </trkpt>
      <trkpt lat="44.78091" lon="3.05959">
        <ele>1128.73</ele>
        <time>2020-09-04T07:08:12Z</time>
      </trkpt>
      <trkpt lat="44.78088" lon="3.05962">
        <ele>1128.73</ele>
        <time>2020-09-04T07:08:27Z</time>
      </trkpt>
      <trkpt lat="44.78088" lon="3.05959">
        <ele>1128.24</ele>
        <time>2020-09-04T07:08:42Z</time>
      </trkpt>
      <trkpt lat="44.78075" lon="3.05952">
        <ele>1125.36</ele>
        <time>2020-09-04T07:08:57Z</time>
      </trkpt>
      <trkpt lat="44.78057" lon="3.05948">
        <ele>1124.4</ele>
        <time>2020-09-04T07:09:12Z</time>
      </trkpt>
      <trkpt lat="44.78049" lon="3.05946">
        <ele>1123.44</ele>
        <time>2020-09-04T07:09:27Z</time>
      </trkpt>
      <trkpt lat="44.7805" lon="3.05946">
        <ele>1122.96</ele>
        <time>2020-09-04T07:09:42Z</time>
      </trkpt>
      <trkpt lat="44.78049" lon="3.05946">
        <ele>1123.44</ele>
        <time>2020-09-04T07:09:57Z</time>
      </trkpt>
      <trkpt lat="44.78048" lon="3.05946">
        <ele>1123.44</ele>
        <time>2020-09-04T07:10:12Z</time>
      </trkpt>
      <trkpt lat="44.78046" lon="3.05947">
        <ele>1122.96</ele>
        <time>2020-09-04T07:10:27Z</time>
      </trkpt>
      <trkpt lat="44.78036" lon="3.05943">
        <ele>1120.07</ele>
        <time>2020-09-04T07:10:42Z</time>
      </trkpt>
      <trkpt lat="44.78028" lon="3.05943">
        <ele>1116.71</ele>
        <time>2020-09-04T07:10:57Z</time>
      </trkpt>
      <trkpt lat="44.78021" lon="3.0594">
        <ele>1112.86</ele>
        <time>2020-09-04T07:11:12Z</time>
      </trkpt>
      <trkpt lat="44.78021" lon="3.05916">
        <ele>1110.46</ele>
        <time>2020-09-04T07:11:27Z</time>
      </trkpt>
      <trkpt lat="44.78029" lon="3.05901">
        <ele>1107.58</ele>
        <time>2020-09-04T07:11:42Z</time>
      </trkpt>
      <trkpt lat="44.78035" lon="3.05886">
        <ele>1104.69</ele>
        <time>2020-09-04T07:11:57Z</time>
      </trkpt>
      <trkpt lat="44.78032" lon="3.05863">
        <ele>1102.29</ele>
        <time>2020-09-04T07:12:12Z</time>
      </trkpt>
      <trkpt lat="44.78019" lon="3.05855">
        <ele>1100.85</ele>
        <time>2020-09-04T07:12:27Z</time>
      </trkpt>
      <trkpt lat="44.78002" lon="3.05859">
        <ele>1099.89</ele>
        <time>2020-09-04T07:12:42Z</time>
      </trkpt>
      <trkpt lat="44.77987" lon="3.05868">
        <ele>1099.4</ele>
        <time>2020-09-04T07:12:57Z</time>
      </trkpt>
      <trkpt lat="44.77973" lon="3.05881">
        <ele>1098.92</ele>
        <time>2020-09-04T07:13:12Z</time>
      </trkpt>
      <trkpt lat="44.77961" lon="3.05899">
        <ele>1097.96</ele>
        <time>2020-09-04T07:13:27Z</time>
      </trkpt>
      <trkpt lat="44.77949" lon="3.05919">
        <ele>1097</ele>
        <time>2020-09-04T07:13:42Z</time>
      </trkpt>
      <trkpt lat="44.77936" lon="3.05936">
        <ele>1095.56</ele>
        <time>2020-09-04T07:13:57Z</time>
      </trkpt>
      <trkpt lat="44.77922" lon="3.05955">
        <ele>1094.12</ele>
        <time>2020-09-04T07:14:12Z</time>
      </trkpt>
      <trkpt lat="44.7791" lon="3.05976">
        <ele>1093.64</ele>
        <time>2020-09-04T07:14:27Z</time>
      </trkpt>
      <trkpt lat="44.77903" lon="3.06001">
        <ele>1093.64</ele>
        <time>2020-09-04T07:14:42Z</time>
      </trkpt>
      <trkpt lat="44.77896" lon="3.06025">
        <ele>1092.68</ele>
        <time>2020-09-04T07:14:57Z</time>
      </trkpt>
      <trkpt lat="44.77885" lon="3.06046">
        <ele>1091.71</ele>
        <time>2020-09-04T07:15:12Z</time>
      </trkpt>
      <trkpt lat="44.77871" lon="3.06064">
        <ele>1091.71</ele>
        <time>2020-09-04T07:15:27Z</time>
      </trkpt>
      <trkpt lat="44.77853" lon="3.06076">
        <ele>1088.83</ele>
        <time>2020-09-04T07:15:42Z</time>
      </trkpt>
      <trkpt lat="44.77835" lon="3.06087">
        <ele>1088.83</ele>
        <time>2020-09-04T07:15:57Z</time>
      </trkpt>
      <trkpt lat="44.77823" lon="3.06107">
        <ele>1088.83</ele>
        <time>2020-09-04T07:16:12Z</time>
      </trkpt>
      <trkpt lat="44.77813" lon="3.06128">
        <ele>1089.79</ele>
        <time>2020-09-04T07:16:27Z</time>
      </trkpt>
      <trkpt lat="44.77804" lon="3.06134">
        <ele>1088.83</ele>
        <time>2020-09-04T07:16:42Z</time>
      </trkpt>
      <trkpt lat="44.77787" lon="3.06139">
        <ele>1087.87</ele>
        <time>2020-09-04T07:16:57Z</time>
      </trkpt>
      <trkpt lat="44.77768" lon="3.06138">
        <ele>1085.95</ele>
        <time>2020-09-04T07:17:12Z</time>
      </trkpt>
      <trkpt lat="44.77751" lon="3.06141">
        <ele>1083.54</ele>
        <time>2020-09-04T07:17:27Z</time>
      </trkpt>
      <trkpt lat="44.77735" lon="3.06142">
        <ele>1081.14</ele>
        <time>2020-09-04T07:17:42Z</time>
      </trkpt>
      <trkpt lat="44.77719" lon="3.06142">
        <ele>1078.74</ele>
        <time>2020-09-04T07:17:57Z</time>
      </trkpt>
      <trkpt lat="44.77706" lon="3.0615">
        <ele>1077.78</ele>
        <time>2020-09-04T07:18:12Z</time>
      </trkpt>
      <trkpt lat="44.77705" lon="3.06147">
        <ele>1077.78</ele>
        <time>2020-09-04T07:18:27Z</time>
      </trkpt>
      <trkpt lat="44.77692" lon="3.06167">
        <ele>1076.81</ele>
        <time>2020-09-04T07:18:42Z</time>
      </trkpt>
      <trkpt lat="44.77686" lon="3.06191">
        <ele>1077.29</ele>
        <time>2020-09-04T07:18:57Z</time>
      </trkpt>
      <trkpt lat="44.77681" lon="3.06215">
        <ele>1078.26</ele>
        <time>2020-09-04T07:19:12Z</time>
      </trkpt>
      <trkpt lat="44.77677" lon="3.06239">
        <ele>1079.22</ele>
        <time>2020-09-04T07:19:27Z</time>
      </trkpt>
      <trkpt lat="44.77677" lon="3.06242">
        <ele>1079.7</ele>
        <time>2020-09-04T07:19:42Z</time>
      </trkpt>
      <trkpt lat="44.77676" lon="3.06246">
        <ele>1079.7</ele>
        <time>2020-09-04T07:19:57Z</time>
      </trkpt>
      <trkpt lat="44.77674" lon="3.06257">
        <ele>1079.7</ele>
        <time>2020-09-04T07:20:12Z</time>
      </trkpt>
      <trkpt lat="44.77656" lon="3.06268">
        <ele>1077.78</ele>
        <time>2020-09-04T07:20:27Z</time>
      </trkpt>
      <trkpt lat="44.77648" lon="3.06275">
        <ele>1077.29</ele>
        <time>2020-09-04T07:20:42Z</time>
      </trkpt>
      <trkpt lat="44.77649" lon="3.06271">
        <ele>1076.81</ele>
        <time>2020-09-04T07:20:57Z</time>
      </trkpt>
      <trkpt lat="44.77648" lon="3.06278">
        <ele>1076.81</ele>
        <time>2020-09-04T07:21:12Z</time>
      </trkpt>
      <trkpt lat="44.77649" lon="3.06275">
        <ele>1077.29</ele>
        <time>2020-09-04T07:21:27Z</time>
      </trkpt>
      <trkpt lat="44.77656" lon="3.06289">
        <ele>1079.22</ele>
        <time>2020-09-04T07:21:42Z</time>
      </trkpt>
      <trkpt lat="44.77669" lon="3.06283">
        <ele>1081.14</ele>
        <time>2020-09-04T07:21:57Z</time>
      </trkpt>
      <trkpt lat="44.77675" lon="3.06272">
        <ele>1081.62</ele>
        <time>2020-09-04T07:22:12Z</time>
      </trkpt>
      <trkpt lat="44.77674" lon="3.06272">
        <ele>1080.66</ele>
        <time>2020-09-04T07:22:27Z</time>
      </trkpt>
      <trkpt lat="44.77669" lon="3.06298">
        <ele>1081.14</ele>
        <time>2020-09-04T07:22:42Z</time>
      </trkpt>
      <trkpt lat="44.77683" lon="3.0631">
        <ele>1084.02</ele>
        <time>2020-09-04T07:22:57Z</time>
      </trkpt>
      <trkpt lat="44.77681" lon="3.06313">
        <ele>1084.5</ele>
        <time>2020-09-04T07:23:12Z</time>
      </trkpt>
      <trkpt lat="44.77676" lon="3.06332">
        <ele>1083.54</ele>
        <time>2020-09-04T07:23:27Z</time>
      </trkpt>
      <trkpt lat="44.77664" lon="3.06354">
        <ele>1083.06</ele>
        <time>2020-09-04T07:23:42Z</time>
      </trkpt>
      <trkpt lat="44.77649" lon="3.06372">
        <ele>1083.06</ele>
        <time>2020-09-04T07:23:57Z</time>
      </trkpt>
      <trkpt lat="44.77632" lon="3.06386">
        <ele>1083.54</ele>
        <time>2020-09-04T07:24:12Z</time>
      </trkpt>
      <trkpt lat="44.77617" lon="3.06399">
        <ele>1084.5</ele>
        <time>2020-09-04T07:24:27Z</time>
      </trkpt>
      <trkpt lat="44.77602" lon="3.06415">
        <ele>1084.99</ele>
        <time>2020-09-04T07:24:42Z</time>
      </trkpt>
      <trkpt lat="44.77588" lon="3.06431">
        <ele>1086.43</ele>
        <time>2020-09-04T07:24:57Z</time>
      </trkpt>
      <trkpt lat="44.77582" lon="3.06452">
        <ele>1087.87</ele>
        <time>2020-09-04T07:25:12Z</time>
      </trkpt>
      <trkpt lat="44.77584" lon="3.06475">
        <ele>1089.31</ele>
        <time>2020-09-04T07:25:27Z</time>
      </trkpt>
      <trkpt lat="44.77585" lon="3.06498">
        <ele>1090.27</ele>
        <time>2020-09-04T07:25:42Z</time>
      </trkpt>
      <trkpt lat="44.77587" lon="3.0652">
        <ele>1092.2</ele>
        <time>2020-09-04T07:25:57Z</time>
      </trkpt>
      <trkpt lat="44.77581" lon="3.06543">
        <ele>1093.64</ele>
        <time>2020-09-04T07:26:12Z</time>
      </trkpt>
      <trkpt lat="44.77571" lon="3.06557">
        <ele>1094.6</ele>
        <time>2020-09-04T07:26:27Z</time>
      </trkpt>
      <trkpt lat="44.77561" lon="3.0658">
        <ele>1094.6</ele>
        <time>2020-09-04T07:26:42Z</time>
      </trkpt>
      <trkpt lat="44.77556" lon="3.0659">
        <ele>1095.08</ele>
        <time>2020-09-04T07:26:57Z</time>
      </trkpt>
      <trkpt lat="44.77547" lon="3.06615">
        <ele>1096.04</ele>
        <time>2020-09-04T07:27:12Z</time>
      </trkpt>
      <trkpt lat="44.77537" lon="3.06639">
        <ele>1096.52</ele>
        <time>2020-09-04T07:27:27Z</time>
      </trkpt>
      <trkpt lat="44.77526" lon="3.06662">
        <ele>1097</ele>
        <time>2020-09-04T07:27:42Z</time>
      </trkpt>
      <trkpt lat="44.77517" lon="3.06686">
        <ele>1097.96</ele>
        <time>2020-09-04T07:27:57Z</time>
      </trkpt>
      <trkpt lat="44.77508" lon="3.06707">
        <ele>1099.89</ele>
        <time>2020-09-04T07:28:12Z</time>
      </trkpt>
      <trkpt lat="44.775" lon="3.06729">
        <ele>1101.33</ele>
        <time>2020-09-04T07:28:27Z</time>
      </trkpt>
      <trkpt lat="44.77494" lon="3.06751">
        <ele>1102.77</ele>
        <time>2020-09-04T07:28:42Z</time>
      </trkpt>
      <trkpt lat="44.77487" lon="3.06772">
        <ele>1104.69</ele>
        <time>2020-09-04T07:28:57Z</time>
      </trkpt>
      <trkpt lat="44.77479" lon="3.06793">
        <ele>1106.13</ele>
        <time>2020-09-04T07:29:12Z</time>
      </trkpt>
      <trkpt lat="44.77471" lon="3.06814">
        <ele>1107.58</ele>
        <time>2020-09-04T07:29:27Z</time>
      </trkpt>
      <trkpt lat="44.77467" lon="3.06838">
        <ele>1108.54</ele>
        <time>2020-09-04T07:29:42Z</time>
      </trkpt>
      <trkpt lat="44.77464" lon="3.06863">
        <ele>1109.98</ele>
        <time>2020-09-04T07:29:57Z</time>
      </trkpt>
      <trkpt lat="44.77458" lon="3.06887">
        <ele>1110.94</ele>
        <time>2020-09-04T07:30:12Z</time>
      </trkpt>
      <trkpt lat="44.77452" lon="3.06909">
        <ele>1112.38</ele>
        <time>2020-09-04T07:30:27Z</time>
      </trkpt>
      <trkpt lat="44.77441" lon="3.06931">
        <ele>1112.86</ele>
        <time>2020-09-04T07:30:42Z</time>
      </trkpt>
      <trkpt lat="44.7743" lon="3.06951">
        <ele>1114.31</ele>
        <time>2020-09-04T07:30:57Z</time>
      </trkpt>
      <trkpt lat="44.77422" lon="3.06973">
        <ele>1115.27</ele>
        <time>2020-09-04T07:31:12Z</time>
      </trkpt>
      <trkpt lat="44.77412" lon="3.06996">
        <ele>1115.75</ele>
        <time>2020-09-04T07:31:27Z</time>
      </trkpt>
      <trkpt lat="44.77404" lon="3.0702">
        <ele>1117.19</ele>
        <time>2020-09-04T07:31:42Z</time>
      </trkpt>
      <trkpt lat="44.77395" lon="3.07042">
        <ele>1118.63</ele>
        <time>2020-09-04T07:31:57Z</time>
      </trkpt>
      <trkpt lat="44.77388" lon="3.07064">
        <ele>1119.59</ele>
        <time>2020-09-04T07:32:12Z</time>
      </trkpt>
      <trkpt lat="44.7738" lon="3.07084">
        <ele>1121.03</ele>
        <time>2020-09-04T07:32:27Z</time>
      </trkpt>
      <trkpt lat="44.77374" lon="3.07108">
        <ele>1121.52</ele>
        <time>2020-09-04T07:32:42Z</time>
      </trkpt>
      <trkpt lat="44.77368" lon="3.07132">
        <ele>1122.96</ele>
        <time>2020-09-04T07:32:57Z</time>
      </trkpt>
      <trkpt lat="44.77363" lon="3.07156">
        <ele>1122.96</ele>
        <time>2020-09-04T07:33:12Z</time>
      </trkpt>
      <trkpt lat="44.77355" lon="3.07179">
        <ele>1124.4</ele>
        <time>2020-09-04T07:33:27Z</time>
      </trkpt>
      <trkpt lat="44.77347" lon="3.07202">
        <ele>1125.36</ele>
        <time>2020-09-04T07:33:42Z</time>
      </trkpt>
      <trkpt lat="44.77338" lon="3.07219">
        <ele>1126.32</ele>
        <time>2020-09-04T07:33:57Z</time>
      </trkpt>
      <trkpt lat="44.77327" lon="3.07229">
        <ele>1126.32</ele>
        <time>2020-09-04T07:34:12Z</time>
      </trkpt>
      <trkpt lat="44.7732" lon="3.0724">
        <ele>1127.28</ele>
        <time>2020-09-04T07:34:27Z</time>
      </trkpt>
      <trkpt lat="44.77319" lon="3.07245">
        <ele>1127.28</ele>
        <time>2020-09-04T07:34:42Z</time>
      </trkpt>
      <trkpt lat="44.77317" lon="3.07254">
        <ele>1128.24</ele>
        <time>2020-09-04T07:34:57Z</time>
      </trkpt>
      <trkpt lat="44.77307" lon="3.07276">
        <ele>1128.73</ele>
        <time>2020-09-04T07:35:12Z</time>
      </trkpt>
      <trkpt lat="44.77302" lon="3.07279">
        <ele>1128.73</ele>
        <time>2020-09-04T07:35:27Z</time>
      </trkpt>
      <trkpt lat="44.77302" lon="3.07279">
        <ele>1128.24</ele>
        <time>2020-09-04T07:35:42Z</time>
      </trkpt>
      <trkpt lat="44.77301" lon="3.07279">
        <ele>1128.73</ele>
        <time>2020-09-04T07:35:57Z</time>
      </trkpt>
      <trkpt lat="44.77299" lon="3.07279">
        <ele>1128.73</ele>
        <time>2020-09-04T07:36:12Z</time>
      </trkpt>
      <trkpt lat="44.77287" lon="3.07302">
        <ele>1129.69</ele>
        <time>2020-09-04T07:36:27Z</time>
      </trkpt>
      <trkpt lat="44.77272" lon="3.0732">
        <ele>1130.65</ele>
        <time>2020-09-04T07:36:42Z</time>
      </trkpt>
      <trkpt lat="44.77258" lon="3.0734">
        <ele>1131.13</ele>
        <time>2020-09-04T07:36:57Z</time>
      </trkpt>
      <trkpt lat="44.77247" lon="3.07361">
        <ele>1132.57</ele>
        <time>2020-09-04T07:37:12Z</time>
      </trkpt>
      <trkpt lat="44.77235" lon="3.07384">
        <ele>1133.53</ele>
        <time>2020-09-04T07:37:27Z</time>
      </trkpt>
      <trkpt lat="44.77227" lon="3.07407">
        <ele>1134.97</ele>
        <time>2020-09-04T07:37:42Z</time>
      </trkpt>
      <trkpt lat="44.77223" lon="3.07405">
        <ele>1134.49</ele>
        <time>2020-09-04T07:37:57Z</time>
      </trkpt>
      <trkpt lat="44.77223" lon="3.07428">
        <ele>1134.49</ele>
        <time>2020-09-04T07:38:12Z</time>
      </trkpt>
      <trkpt lat="44.77225" lon="3.07449">
        <ele>1134.97</ele>
        <time>2020-09-04T07:38:27Z</time>
      </trkpt>
      <trkpt lat="44.77227" lon="3.07471">
        <ele>1135.45</ele>
        <time>2020-09-04T07:38:42Z</time>
      </trkpt>
      <trkpt lat="44.77231" lon="3.07498">
        <ele>1136.9</ele>
        <time>2020-09-04T07:38:57Z</time>
      </trkpt>
      <trkpt lat="44.77237" lon="3.07522">
        <ele>1137.38</ele>
        <time>2020-09-04T07:39:12Z</time>
      </trkpt>
      <trkpt lat="44.77238" lon="3.0753">
        <ele>1137.86</ele>
        <time>2020-09-04T07:39:27Z</time>
      </trkpt>
      <trkpt lat="44.77243" lon="3.07558">
        <ele>1138.34</ele>
        <time>2020-09-04T07:39:42Z</time>
      </trkpt>
      <trkpt lat="44.77248" lon="3.07585">
        <ele>1138.82</ele>
        <time>2020-09-04T07:39:57Z</time>
      </trkpt>
      <trkpt lat="44.77253" lon="3.0761">
        <ele>1139.78</ele>
        <time>2020-09-04T07:40:12Z</time>
      </trkpt>
      <trkpt lat="44.77257" lon="3.0764">
        <ele>1140.74</ele>
        <time>2020-09-04T07:40:27Z</time>
      </trkpt>
      <trkpt lat="44.77261" lon="3.07664">
        <ele>1142.18</ele>
        <time>2020-09-04T07:40:42Z</time>
      </trkpt>
      <trkpt lat="44.77264" lon="3.07689">
        <ele>1142.66</ele>
        <time>2020-09-04T07:40:57Z</time>
      </trkpt>
      <trkpt lat="44.77268" lon="3.07714">
        <ele>1144.11</ele>
        <time>2020-09-04T07:41:12Z</time>
      </trkpt>
      <trkpt lat="44.77273" lon="3.07737">
        <ele>1145.55</ele>
        <time>2020-09-04T07:41:27Z</time>
      </trkpt>
      <trkpt lat="44.77277" lon="3.07762">
        <ele>1146.99</ele>
        <time>2020-09-04T07:41:42Z</time>
      </trkpt>
      <trkpt lat="44.7728" lon="3.07785">
        <ele>1148.91</ele>
        <time>2020-09-04T07:41:57Z</time>
      </trkpt>
      <trkpt lat="44.77282" lon="3.07805">
        <ele>1149.87</ele>
        <time>2020-09-04T07:42:12Z</time>
      </trkpt>
      <trkpt lat="44.77285" lon="3.07819">
        <ele>1149.87</ele>
        <time>2020-09-04T07:42:27Z</time>
      </trkpt>
      <trkpt lat="44.77292" lon="3.07844">
        <ele>1151.32</ele>
        <time>2020-09-04T07:42:42Z</time>
      </trkpt>
      <trkpt lat="44.77296" lon="3.07869">
        <ele>1151.8</ele>
        <time>2020-09-04T07:42:57Z</time>
      </trkpt>
      <trkpt lat="44.77299" lon="3.07892">
        <ele>1152.76</ele>
        <time>2020-09-04T07:43:12Z</time>
      </trkpt>
      <trkpt lat="44.77303" lon="3.07918">
        <ele>1153.24</ele>
        <time>2020-09-04T07:43:27Z</time>
      </trkpt>
      <trkpt lat="44.77307" lon="3.07942">
        <ele>1153.72</ele>
        <time>2020-09-04T07:43:42Z</time>
      </trkpt>
      <trkpt lat="44.77312" lon="3.07967">
        <ele>1154.68</ele>
        <time>2020-09-04T07:43:57Z</time>
      </trkpt>
      <trkpt lat="44.77315" lon="3.07995">
        <ele>1155.16</ele>
        <time>2020-09-04T07:44:12Z</time>
      </trkpt>
      <trkpt lat="44.77317" lon="3.0802">
        <ele>1155.64</ele>
        <time>2020-09-04T07:44:27Z</time>
      </trkpt>
      <trkpt lat="44.77322" lon="3.08048">
        <ele>1155.64</ele>
        <time>2020-09-04T07:44:42Z</time>
      </trkpt>
      <trkpt lat="44.77329" lon="3.08076">
        <ele>1155.64</ele>
        <time>2020-09-04T07:44:57Z</time>
      </trkpt>
      <trkpt lat="44.77333" lon="3.08103">
        <ele>1156.12</ele>
        <time>2020-09-04T07:45:12Z</time>
      </trkpt>
      <trkpt lat="44.77337" lon="3.0813">
        <ele>1157.08</ele>
        <time>2020-09-04T07:45:27Z</time>
      </trkpt>
      <trkpt lat="44.77342" lon="3.08155">
        <ele>1158.53</ele>
        <time>2020-09-04T07:45:42Z</time>
      </trkpt>
      <trkpt lat="44.77347" lon="3.08179">
        <ele>1159.01</ele>
        <time>2020-09-04T07:45:57Z</time>
      </trkpt>
      <trkpt lat="44.77353" lon="3.08204">
        <ele>1159.49</ele>
        <time>2020-09-04T07:46:12Z</time>
      </trkpt>
      <trkpt lat="44.77357" lon="3.08228">
        <ele>1160.45</ele>
        <time>2020-09-04T07:46:27Z</time>
      </trkpt>
      <trkpt lat="44.77361" lon="3.08252">
        <ele>1161.89</ele>
        <time>2020-09-04T07:46:42Z</time>
      </trkpt>
      <trkpt lat="44.77366" lon="3.08275">
        <ele>1163.81</ele>
        <time>2020-09-04T07:46:57Z</time>
      </trkpt>
      <trkpt lat="44.77369" lon="3.08299">
        <ele>1165.74</ele>
        <time>2020-09-04T07:47:12Z</time>
      </trkpt>
      <trkpt lat="44.77363" lon="3.08325">
        <ele>1165.26</ele>
        <time>2020-09-04T07:47:27Z</time>
      </trkpt>
      <trkpt lat="44.77356" lon="3.08348">
        <ele>1165.74</ele>
        <time>2020-09-04T07:47:42Z</time>
      </trkpt>
      <trkpt lat="44.77349" lon="3.08371">
        <ele>1165.74</ele>
        <time>2020-09-04T07:47:57Z</time>
      </trkpt>
      <trkpt lat="44.77343" lon="3.08396">
        <ele>1166.7</ele>
        <time>2020-09-04T07:48:12Z</time>
      </trkpt>
      <trkpt lat="44.77341" lon="3.08422">
        <ele>1166.7</ele>
        <time>2020-09-04T07:48:27Z</time>
      </trkpt>
      <trkpt lat="44.7734" lon="3.08446">
        <ele>1166.22</ele>
        <time>2020-09-04T07:48:42Z</time>
      </trkpt>
      <trkpt lat="44.77341" lon="3.08448">
        <ele>1165.74</ele>
        <time>2020-09-04T07:48:57Z</time>
      </trkpt>
      <trkpt lat="44.77339" lon="3.08476">
        <ele>1165.26</ele>
        <time>2020-09-04T07:49:12Z</time>
      </trkpt>
      <trkpt lat="44.77336" lon="3.08504">
        <ele>1164.77</ele>
        <time>2020-09-04T07:49:27Z</time>
      </trkpt>
      <trkpt lat="44.7735" lon="3.08512">
        <ele>1164.29</ele>
        <time>2020-09-04T07:49:42Z</time>
      </trkpt>
      <trkpt lat="44.77362" lon="3.08509">
        <ele>1163.81</ele>
        <time>2020-09-04T07:49:57Z</time>
      </trkpt>
      <trkpt lat="44.77384" lon="3.08504">
        <ele>1162.37</ele>
        <time>2020-09-04T07:50:12Z</time>
      </trkpt>
      <trkpt lat="44.77405" lon="3.08502">
        <ele>1162.37</ele>
        <time>2020-09-04T07:50:27Z</time>
      </trkpt>
      <trkpt lat="44.77426" lon="3.08499">
        <ele>1161.89</ele>
        <time>2020-09-04T07:50:42Z</time>
      </trkpt>
      <trkpt lat="44.77447" lon="3.08498">
        <ele>1161.41</ele>
        <time>2020-09-04T07:50:57Z</time>
      </trkpt>
      <trkpt lat="44.77467" lon="3.08499">
        <ele>1161.41</ele>
        <time>2020-09-04T07:51:12Z</time>
      </trkpt>
      <trkpt lat="44.77472" lon="3.08501">
        <ele>1160.93</ele>
        <time>2020-09-04T07:51:27Z</time>
      </trkpt>
      <trkpt lat="44.77487" lon="3.08503">
        <ele>1160.93</ele>
        <time>2020-09-04T07:51:42Z</time>
      </trkpt>
      <trkpt lat="44.77508" lon="3.08509">
        <ele>1160.93</ele>
        <time>2020-09-04T07:51:57Z</time>
      </trkpt>
      <trkpt lat="44.77523" lon="3.08516">
        <ele>1160.93</ele>
        <time>2020-09-04T07:52:12Z</time>
      </trkpt>
      <trkpt lat="44.77541" lon="3.08522">
        <ele>1159.97</ele>
        <time>2020-09-04T07:52:27Z</time>
      </trkpt>
      <trkpt lat="44.77563" lon="3.08527">
        <ele>1158.53</ele>
        <time>2020-09-04T07:52:42Z</time>
      </trkpt>
      <trkpt lat="44.77583" lon="3.08534">
        <ele>1157.08</ele>
        <time>2020-09-04T07:52:57Z</time>
      </trkpt>
      <trkpt lat="44.77602" lon="3.0853">
        <ele>1155.64</ele>
        <time>2020-09-04T07:53:12Z</time>
      </trkpt>
      <trkpt lat="44.77622" lon="3.08534">
        <ele>1153.72</ele>
        <time>2020-09-04T07:53:27Z</time>
      </trkpt>
      <trkpt lat="44.77642" lon="3.08539">
        <ele>1151.8</ele>
        <time>2020-09-04T07:53:42Z</time>
      </trkpt>
      <trkpt lat="44.77659" lon="3.08543">
        <ele>1150.84</ele>
        <time>2020-09-04T07:53:57Z</time>
      </trkpt>
      <trkpt lat="44.77679" lon="3.08556">
        <ele>1149.39</ele>
        <time>2020-09-04T07:54:12Z</time>
      </trkpt>
      <trkpt lat="44.77691" lon="3.0858">
        <ele>1147.95</ele>
        <time>2020-09-04T07:54:27Z</time>
      </trkpt>
      <trkpt lat="44.77703" lon="3.08608">
        <ele>1146.51</ele>
        <time>2020-09-04T07:54:42Z</time>
      </trkpt>
      <trkpt lat="44.77708" lon="3.0861">
        <ele>1146.51</ele>
        <time>2020-09-04T07:54:57Z</time>
      </trkpt>
      <trkpt lat="44.77728" lon="3.08612">
        <ele>1145.55</ele>
        <time>2020-09-04T07:55:12Z</time>
      </trkpt>
      <trkpt lat="44.7775" lon="3.08609">
        <ele>1144.11</ele>
        <time>2020-09-04T07:55:27Z</time>
      </trkpt>
      <trkpt lat="44.77773" lon="3.08608">
        <ele>1142.66</ele>
        <time>2020-09-04T07:55:42Z</time>
      </trkpt>
      <trkpt lat="44.77795" lon="3.08604">
        <ele>1141.7</ele>
        <time>2020-09-04T07:55:57Z</time>
      </trkpt>
      <trkpt lat="44.77815" lon="3.08598">
        <ele>1141.22</ele>
        <time>2020-09-04T07:56:12Z</time>
      </trkpt>
      <trkpt lat="44.77837" lon="3.0859">
        <ele>1140.26</ele>
        <time>2020-09-04T07:56:27Z</time>
      </trkpt>
      <trkpt lat="44.77858" lon="3.08588">
        <ele>1138.82</ele>
        <time>2020-09-04T07:56:42Z</time>
      </trkpt>
      <trkpt lat="44.77878" lon="3.08583">
        <ele>1136.9</ele>
        <time>2020-09-04T07:56:57Z</time>
      </trkpt>
      <trkpt lat="44.77895" lon="3.0857">
        <ele>1134.97</ele>
        <time>2020-09-04T07:57:12Z</time>
      </trkpt>
      <trkpt lat="44.77908" lon="3.08553">
        <ele>1134.01</ele>
        <time>2020-09-04T07:57:27Z</time>
      </trkpt>
      <trkpt lat="44.7792" lon="3.08546">
        <ele>1132.57</ele>
        <time>2020-09-04T07:57:42Z</time>
      </trkpt>
      <trkpt lat="44.77938" lon="3.08528">
        <ele>1130.65</ele>
        <time>2020-09-04T07:57:57Z</time>
      </trkpt>
      <trkpt lat="44.77953" lon="3.08514">
        <ele>1129.21</ele>
        <time>2020-09-04T07:58:12Z</time>
      </trkpt>
      <trkpt lat="44.77964" lon="3.08499">
        <ele>1128.24</ele>
        <time>2020-09-04T07:58:27Z</time>
      </trkpt>
      <trkpt lat="44.77978" lon="3.08486">
        <ele>1127.28</ele>
        <time>2020-09-04T07:58:42Z</time>
      </trkpt>
      <trkpt lat="44.7799" lon="3.08462">
        <ele>1126.32</ele>
        <time>2020-09-04T07:58:57Z</time>
      </trkpt>
      <trkpt lat="44.78007" lon="3.08442">
        <ele>1126.32</ele>
        <time>2020-09-04T07:59:12Z</time>
      </trkpt>
      <trkpt lat="44.78023" lon="3.08424">
        <ele>1125.84</ele>
        <time>2020-09-04T07:59:27Z</time>
      </trkpt>
      <trkpt lat="44.78038" lon="3.08418">
        <ele>1123.92</ele>
        <time>2020-09-04T07:59:42Z</time>
      </trkpt>
      <trkpt lat="44.78063" lon="3.08406">
        <ele>1123.44</ele>
        <time>2020-09-04T07:59:57Z</time>
      </trkpt>
      <trkpt lat="44.78081" lon="3.08391">
        <ele>1122.48</ele>
        <time>2020-09-04T08:00:12Z</time>
      </trkpt>
      <trkpt lat="44.78101" lon="3.08378">
        <ele>1122</ele>
        <time>2020-09-04T08:00:27Z</time>
      </trkpt>
      <trkpt lat="44.78115" lon="3.0836">
        <ele>1121.52</ele>
        <time>2020-09-04T08:00:42Z</time>
      </trkpt>
      <trkpt lat="44.78132" lon="3.08342">
        <ele>1121.03</ele>
        <time>2020-09-04T08:00:57Z</time>
      </trkpt>
      <trkpt lat="44.78149" lon="3.08323">
        <ele>1120.55</ele>
        <time>2020-09-04T08:01:12Z</time>
      </trkpt>
      <trkpt lat="44.78164" lon="3.08302">
        <ele>1120.07</ele>
        <time>2020-09-04T08:01:27Z</time>
      </trkpt>
      <trkpt lat="44.78177" lon="3.08279">
        <ele>1119.11</ele>
        <time>2020-09-04T08:01:42Z</time>
      </trkpt>
      <trkpt lat="44.78193" lon="3.0826">
        <ele>1119.11</ele>
        <time>2020-09-04T08:01:57Z</time>
      </trkpt>
      <trkpt lat="44.78207" lon="3.08241">
        <ele>1119.59</ele>
        <time>2020-09-04T08:02:12Z</time>
      </trkpt>
      <trkpt lat="44.7822" lon="3.08222">
        <ele>1119.59</ele>
        <time>2020-09-04T08:02:27Z</time>
      </trkpt>
      <trkpt lat="44.78233" lon="3.08215">
        <ele>1119.11</ele>
        <time>2020-09-04T08:02:42Z</time>
      </trkpt>
      <trkpt lat="44.78231" lon="3.0824">
        <ele>1118.63</ele>
        <time>2020-09-04T08:02:57Z</time>
      </trkpt>
      <trkpt lat="44.78224" lon="3.08263">
        <ele>1117.67</ele>
        <time>2020-09-04T08:03:12Z</time>
      </trkpt>
      <trkpt lat="44.78218" lon="3.08285">
        <ele>1117.67</ele>
        <time>2020-09-04T08:03:27Z</time>
      </trkpt>
      <trkpt lat="44.78212" lon="3.08302">
        <ele>1118.15</ele>
        <time>2020-09-04T08:03:42Z</time>
      </trkpt>
      <trkpt lat="44.78206" lon="3.08331">
        <ele>1117.67</ele>
        <time>2020-09-04T08:03:57Z</time>
      </trkpt>
      <trkpt lat="44.78198" lon="3.08357">
        <ele>1117.19</ele>
        <time>2020-09-04T08:04:12Z</time>
      </trkpt>
      <trkpt lat="44.78198" lon="3.08382">
        <ele>1116.71</ele>
        <time>2020-09-04T08:04:27Z</time>
      </trkpt>
      <trkpt lat="44.78197" lon="3.08404">
        <ele>1116.23</ele>
        <time>2020-09-04T08:04:42Z</time>
      </trkpt>
      <trkpt lat="44.782" lon="3.08416">
        <ele>1115.75</ele>
        <time>2020-09-04T08:04:57Z</time>
      </trkpt>
      <trkpt lat="44.78197" lon="3.08437">
        <ele>1115.75</ele>
        <time>2020-09-04T08:05:12Z</time>
      </trkpt>
      <trkpt lat="44.78196" lon="3.08466">
        <ele>1115.27</ele>
        <time>2020-09-04T08:05:27Z</time>
      </trkpt>
      <trkpt lat="44.78195" lon="3.08489">
        <ele>1114.79</ele>
        <time>2020-09-04T08:05:42Z</time>
      </trkpt>
      <trkpt lat="44.78198" lon="3.08519">
        <ele>1112.86</ele>
        <time>2020-09-04T08:05:57Z</time>
      </trkpt>
      <trkpt lat="44.78202" lon="3.08543">
        <ele>1110.94</ele>
        <time>2020-09-04T08:06:12Z</time>
      </trkpt>
      <trkpt lat="44.78202" lon="3.08567">
        <ele>1109.02</ele>
        <time>2020-09-04T08:06:27Z</time>
      </trkpt>
      <trkpt lat="44.782" lon="3.08572">
        <ele>1109.02</ele>
        <time>2020-09-04T08:06:42Z</time>
      </trkpt>
      <trkpt lat="44.78188" lon="3.08598">
        <ele>1107.58</ele>
        <time>2020-09-04T08:06:57Z</time>
      </trkpt>
      <trkpt lat="44.78184" lon="3.08625">
        <ele>1106.13</ele>
        <time>2020-09-04T08:07:12Z</time>
      </trkpt>
      <trkpt lat="44.7819" lon="3.08651">
        <ele>1105.65</ele>
        <time>2020-09-04T08:07:27Z</time>
      </trkpt>
      <trkpt lat="44.78198" lon="3.08678">
        <ele>1105.65</ele>
        <time>2020-09-04T08:07:42Z</time>
      </trkpt>
      <trkpt lat="44.78199" lon="3.08679">
        <ele>1105.65</ele>
        <time>2020-09-04T08:07:57Z</time>
      </trkpt>
      <trkpt lat="44.78201" lon="3.08678">
        <ele>1105.17</ele>
        <time>2020-09-04T08:08:12Z</time>
      </trkpt>
      <trkpt lat="44.78209" lon="3.087">
        <ele>1105.17</ele>
        <time>2020-09-04T08:08:27Z</time>
      </trkpt>
      <trkpt lat="44.78228" lon="3.08707">
        <ele>1105.65</ele>
        <time>2020-09-04T08:08:42Z</time>
      </trkpt>
      <trkpt lat="44.78249" lon="3.08709">
        <ele>1106.61</ele>
        <time>2020-09-04T08:08:57Z</time>
      </trkpt>
      <trkpt lat="44.78269" lon="3.08725">
        <ele>1108.06</ele>
        <time>2020-09-04T08:09:12Z</time>
      </trkpt>
      <trkpt lat="44.78285" lon="3.08744">
        <ele>1108.54</ele>
        <time>2020-09-04T08:09:27Z</time>
      </trkpt>
      <trkpt lat="44.783" lon="3.08763">
        <ele>1108.54</ele>
        <time>2020-09-04T08:09:42Z</time>
      </trkpt>
      <trkpt lat="44.78313" lon="3.08783">
        <ele>1108.54</ele>
        <time>2020-09-04T08:09:57Z</time>
      </trkpt>
      <trkpt lat="44.78327" lon="3.08804">
        <ele>1109.02</ele>
        <time>2020-09-04T08:10:12Z</time>
      </trkpt>
      <trkpt lat="44.78334" lon="3.08826">
        <ele>1109.02</ele>
        <time>2020-09-04T08:10:27Z</time>
      </trkpt>
      <trkpt lat="44.78336" lon="3.08854">
        <ele>1109.5</ele>
        <time>2020-09-04T08:10:42Z</time>
      </trkpt>
      <trkpt lat="44.78326" lon="3.08881">
        <ele>1108.54</ele>
        <time>2020-09-04T08:10:57Z</time>
      </trkpt>
      <trkpt lat="44.78313" lon="3.08899">
        <ele>1107.1</ele>
        <time>2020-09-04T08:11:12Z</time>
      </trkpt>
      <trkpt lat="44.78309" lon="3.08924">
        <ele>1107.58</ele>
        <time>2020-09-04T08:11:27Z</time>
      </trkpt>
      <trkpt lat="44.78303" lon="3.08952">
        <ele>1107.58</ele>
        <time>2020-09-04T08:11:42Z</time>
      </trkpt>
      <trkpt lat="44.78306" lon="3.08979">
        <ele>1108.54</ele>
        <time>2020-09-04T08:11:57Z</time>
      </trkpt>
      <trkpt lat="44.78316" lon="3.09005">
        <ele>1110.46</ele>
        <time>2020-09-04T08:12:12Z</time>
      </trkpt>
      <trkpt lat="44.78322" lon="3.09024">
        <ele>1110.46</ele>
        <time>2020-09-04T08:12:27Z</time>
      </trkpt>
      <trkpt lat="44.78329" lon="3.09046">
        <ele>1112.38</ele>
        <time>2020-09-04T08:12:42Z</time>
      </trkpt>
      <trkpt lat="44.78333" lon="3.09072">
        <ele>1111.42</ele>
        <time>2020-09-04T08:12:57Z</time>
      </trkpt>
      <trkpt lat="44.78336" lon="3.09098">
        <ele>1111.9</ele>
        <time>2020-09-04T08:13:12Z</time>
      </trkpt>
      <trkpt lat="44.78336" lon="3.09102">
        <ele>1111.9</ele>
        <time>2020-09-04T08:13:27Z</time>
      </trkpt>
      <trkpt lat="44.78334" lon="3.09106">
        <ele>1111.42</ele>
        <time>2020-09-04T08:13:42Z</time>
      </trkpt>
      <trkpt lat="44.78335" lon="3.09102">
        <ele>1110.94</ele>
        <time>2020-09-04T08:13:57Z</time>
      </trkpt>
      <trkpt lat="44.78336" lon="3.09106">
        <ele>1110.94</ele>
        <time>2020-09-04T08:14:12Z</time>
      </trkpt>
      <trkpt lat="44.78337" lon="3.09108">
        <ele>1110.94</ele>
        <time>2020-09-04T08:14:27Z</time>
      </trkpt>
      <trkpt lat="44.78336" lon="3.09112">
        <ele>1110.46</ele>
        <time>2020-09-04T08:14:42Z</time>
      </trkpt>
      <trkpt lat="44.78337" lon="3.09109">
        <ele>1110.94</ele>
        <time>2020-09-04T08:14:57Z</time>
      </trkpt>
      <trkpt lat="44.78339" lon="3.09109">
        <ele>1110.94</ele>
        <time>2020-09-04T08:15:12Z</time>
      </trkpt>
      <trkpt lat="44.78339" lon="3.09111">
        <ele>1110.46</ele>
        <time>2020-09-04T08:15:27Z</time>
      </trkpt>
      <trkpt lat="44.78337" lon="3.09113">
        <ele>1110.94</ele>
        <time>2020-09-04T08:15:42Z</time>
      </trkpt>
      <trkpt lat="44.78337" lon="3.09114">
        <ele>1110.94</ele>
        <time>2020-09-04T08:15:57Z</time>
      </trkpt>
      <trkpt lat="44.78337" lon="3.09115">
        <ele>1110.94</ele>
        <time>2020-09-04T08:16:12Z</time>
      </trkpt>
      <trkpt lat="44.78337" lon="3.09114">
        <ele>1110.94</ele>
        <time>2020-09-04T08:16:27Z</time>
      </trkpt>
      <trkpt lat="44.78334" lon="3.09114">
        <ele>1111.42</ele>
        <time>2020-09-04T08:16:42Z</time>
      </trkpt>
      <trkpt lat="44.78333" lon="3.09112">
        <ele>1111.42</ele>
        <time>2020-09-04T08:16:57Z</time>
      </trkpt>
      <trkpt lat="44.78339" lon="3.09115">
        <ele>1111.9</ele>
        <time>2020-09-04T08:17:12Z</time>
      </trkpt>
      <trkpt lat="44.78338" lon="3.09115">
        <ele>1111.9</ele>
        <time>2020-09-04T08:17:27Z</time>
      </trkpt>
      <trkpt lat="44.7834" lon="3.09117">
        <ele>1112.38</ele>
        <time>2020-09-04T08:17:42Z</time>
      </trkpt>
      <trkpt lat="44.7834" lon="3.09117">
        <ele>1112.38</ele>
        <time>2020-09-04T08:17:57Z</time>
      </trkpt>
      <trkpt lat="44.78341" lon="3.09115">
        <ele>1112.86</ele>
        <time>2020-09-04T08:18:12Z</time>
      </trkpt>
      <trkpt lat="44.78336" lon="3.0912">
        <ele>1113.34</ele>
        <time>2020-09-04T08:18:27Z</time>
      </trkpt>
      <trkpt lat="44.78338" lon="3.09116">
        <ele>1113.34</ele>
        <time>2020-09-04T08:18:42Z</time>
      </trkpt>
      <trkpt lat="44.78337" lon="3.09114">
        <ele>1113.34</ele>
        <time>2020-09-04T08:18:57Z</time>
      </trkpt>
      <trkpt lat="44.78338" lon="3.09114">
        <ele>1113.82</ele>
        <time>2020-09-04T08:19:12Z</time>
      </trkpt>
      <trkpt lat="44.78342" lon="3.09115">
        <ele>1113.82</ele>
        <time>2020-09-04T08:19:27Z</time>
      </trkpt>
      <trkpt lat="44.78344" lon="3.09113">
        <ele>1113.82</ele>
        <time>2020-09-04T08:19:42Z</time>
      </trkpt>
      <trkpt lat="44.78341" lon="3.09111">
        <ele>1114.79</ele>
        <time>2020-09-04T08:19:57Z</time>
      </trkpt>
      <trkpt lat="44.78337" lon="3.09106">
        <ele>1114.31</ele>
        <time>2020-09-04T08:20:12Z</time>
      </trkpt>
      <trkpt lat="44.7834" lon="3.09113">
        <ele>1114.79</ele>
        <time>2020-09-04T08:20:27Z</time>
      </trkpt>
      <trkpt lat="44.78344" lon="3.09116">
        <ele>1114.79</ele>
        <time>2020-09-04T08:20:42Z</time>
      </trkpt>
      <trkpt lat="44.78343" lon="3.09113">
        <ele>1115.27</ele>
        <time>2020-09-04T08:20:57Z</time>
      </trkpt>
      <trkpt lat="44.78335" lon="3.09111">
        <ele>1116.23</ele>
        <time>2020-09-04T08:21:12Z</time>
      </trkpt>
      <trkpt lat="44.78334" lon="3.0911">
        <ele>1116.23</ele>
        <time>2020-09-04T08:21:27Z</time>
      </trkpt>
      <trkpt lat="44.78332" lon="3.09107">
        <ele>1116.23</ele>
        <time>2020-09-04T08:21:42Z</time>
      </trkpt>
      <trkpt lat="44.78331" lon="3.09103">
        <ele>1116.71</ele>
        <time>2020-09-04T08:21:57Z</time>
      </trkpt>
      <trkpt lat="44.78333" lon="3.09107">
        <ele>1117.19</ele>
        <time>2020-09-04T08:22:12Z</time>
      </trkpt>
      <trkpt lat="44.78336" lon="3.09113">
        <ele>1117.19</ele>
        <time>2020-09-04T08:22:27Z</time>
      </trkpt>
      <trkpt lat="44.78336" lon="3.09108">
        <ele>1116.71</ele>
        <time>2020-09-04T08:22:42Z</time>
      </trkpt>
      <trkpt lat="44.78343" lon="3.09129">
        <ele>1118.15</ele>
        <time>2020-09-04T08:22:57Z</time>
      </trkpt>
      <trkpt lat="44.78346" lon="3.09145">
        <ele>1118.15</ele>
        <time>2020-09-04T08:23:12Z</time>
      </trkpt>
      <trkpt lat="44.78351" lon="3.09162">
        <ele>1118.15</ele>
        <time>2020-09-04T08:23:27Z</time>
      </trkpt>
      <trkpt lat="44.78356" lon="3.09181">
        <ele>1118.15</ele>
        <time>2020-09-04T08:23:42Z</time>
      </trkpt>
      <trkpt lat="44.7836" lon="3.09186">
        <ele>1118.15</ele>
        <time>2020-09-04T08:23:57Z</time>
      </trkpt>
      <trkpt lat="44.78365" lon="3.09198">
        <ele>1118.63</ele>
        <time>2020-09-04T08:24:12Z</time>
      </trkpt>
      <trkpt lat="44.78373" lon="3.09224">
        <ele>1119.59</ele>
        <time>2020-09-04T08:24:27Z</time>
      </trkpt>
      <trkpt lat="44.78367" lon="3.09249">
        <ele>1121.03</ele>
        <time>2020-09-04T08:24:42Z</time>
      </trkpt>
      <trkpt lat="44.78358" lon="3.09273">
        <ele>1122.96</ele>
        <time>2020-09-04T08:24:57Z</time>
      </trkpt>
      <trkpt lat="44.78347" lon="3.09292">
        <ele>1122.96</ele>
        <time>2020-09-04T08:25:12Z</time>
      </trkpt>
      <trkpt lat="44.78336" lon="3.09308">
        <ele>1121.03</ele>
        <time>2020-09-04T08:25:27Z</time>
      </trkpt>
      <trkpt lat="44.78322" lon="3.09324">
        <ele>1121.03</ele>
        <time>2020-09-04T08:25:42Z</time>
      </trkpt>
      <trkpt lat="44.78302" lon="3.09343">
        <ele>1120.07</ele>
        <time>2020-09-04T08:25:57Z</time>
      </trkpt>
      <trkpt lat="44.78283" lon="3.09357">
        <ele>1120.07</ele>
        <time>2020-09-04T08:26:12Z</time>
      </trkpt>
      <trkpt lat="44.78263" lon="3.09369">
        <ele>1119.59</ele>
        <time>2020-09-04T08:26:27Z</time>
      </trkpt>
      <trkpt lat="44.78246" lon="3.09376">
        <ele>1119.11</ele>
        <time>2020-09-04T08:26:42Z</time>
      </trkpt>
      <trkpt lat="44.78239" lon="3.09382">
        <ele>1119.11</ele>
        <time>2020-09-04T08:26:57Z</time>
      </trkpt>
      <trkpt lat="44.78224" lon="3.09395">
        <ele>1120.55</ele>
        <time>2020-09-04T08:27:12Z</time>
      </trkpt>
      <trkpt lat="44.78208" lon="3.09408">
        <ele>1120.07</ele>
        <time>2020-09-04T08:27:27Z</time>
      </trkpt>
      <trkpt lat="44.78194" lon="3.0942">
        <ele>1119.59</ele>
        <time>2020-09-04T08:27:42Z</time>
      </trkpt>
      <trkpt lat="44.78177" lon="3.09438">
        <ele>1119.59</ele>
        <time>2020-09-04T08:27:57Z</time>
      </trkpt>
      <trkpt lat="44.78162" lon="3.09462">
        <ele>1119.59</ele>
        <time>2020-09-04T08:28:12Z</time>
      </trkpt>
      <trkpt lat="44.78149" lon="3.09483">
        <ele>1120.07</ele>
        <time>2020-09-04T08:28:27Z</time>
      </trkpt>
      <trkpt lat="44.78141" lon="3.09496">
        <ele>1121.03</ele>
        <time>2020-09-04T08:28:42Z</time>
      </trkpt>
      <trkpt lat="44.78129" lon="3.09517">
        <ele>1121.52</ele>
        <time>2020-09-04T08:28:57Z</time>
      </trkpt>
      <trkpt lat="44.78121" lon="3.09538">
        <ele>1121.52</ele>
        <time>2020-09-04T08:29:12Z</time>
      </trkpt>
      <trkpt lat="44.78114" lon="3.09564">
        <ele>1123.44</ele>
        <time>2020-09-04T08:29:27Z</time>
      </trkpt>
      <trkpt lat="44.78106" lon="3.09583">
        <ele>1124.4</ele>
        <time>2020-09-04T08:29:42Z</time>
      </trkpt>
      <trkpt lat="44.78088" lon="3.09598">
        <ele>1126.32</ele>
        <time>2020-09-04T08:29:57Z</time>
      </trkpt>
      <trkpt lat="44.78073" lon="3.096">
        <ele>1127.76</ele>
        <time>2020-09-04T08:30:12Z</time>
      </trkpt>
      <trkpt lat="44.78061" lon="3.09601">
        <ele>1129.69</ele>
        <time>2020-09-04T08:30:27Z</time>
      </trkpt>
      <trkpt lat="44.78046" lon="3.09602">
        <ele>1131.13</ele>
        <time>2020-09-04T08:30:42Z</time>
      </trkpt>
      <trkpt lat="44.78032" lon="3.09603">
        <ele>1132.09</ele>
        <time>2020-09-04T08:30:57Z</time>
      </trkpt>
      <trkpt lat="44.78013" lon="3.09605">
        <ele>1134.01</ele>
        <time>2020-09-04T08:31:12Z</time>
      </trkpt>
      <trkpt lat="44.78003" lon="3.09614">
        <ele>1135.45</ele>
        <time>2020-09-04T08:31:27Z</time>
      </trkpt>
      <trkpt lat="44.78008" lon="3.09629">
        <ele>1136.42</ele>
        <time>2020-09-04T08:31:42Z</time>
      </trkpt>
      <trkpt lat="44.78018" lon="3.09645">
        <ele>1137.38</ele>
        <time>2020-09-04T08:31:57Z</time>
      </trkpt>
      <trkpt lat="44.78026" lon="3.09664">
        <ele>1137.86</ele>
        <time>2020-09-04T08:32:12Z</time>
      </trkpt>
      <trkpt lat="44.78034" lon="3.09685">
        <ele>1139.3</ele>
        <time>2020-09-04T08:32:27Z</time>
      </trkpt>
      <trkpt lat="44.7804" lon="3.09702">
        <ele>1140.26</ele>
        <time>2020-09-04T08:32:42Z</time>
      </trkpt>
      <trkpt lat="44.78049" lon="3.09729">
        <ele>1141.22</ele>
        <time>2020-09-04T08:32:57Z</time>
      </trkpt>
      <trkpt lat="44.78057" lon="3.09748">
        <ele>1142.18</ele>
        <time>2020-09-04T08:33:12Z</time>
      </trkpt>
      <trkpt lat="44.78065" lon="3.09768">
        <ele>1142.18</ele>
        <time>2020-09-04T08:33:27Z</time>
      </trkpt>
      <trkpt lat="44.78071" lon="3.09787">
        <ele>1141.7</ele>
        <time>2020-09-04T08:33:42Z</time>
      </trkpt>
      <trkpt lat="44.78085" lon="3.09794">
        <ele>1142.66</ele>
        <time>2020-09-04T08:33:57Z</time>
      </trkpt>
      <trkpt lat="44.78102" lon="3.09791">
        <ele>1142.66</ele>
        <time>2020-09-04T08:34:12Z</time>
      </trkpt>
      <trkpt lat="44.78117" lon="3.09782">
        <ele>1143.63</ele>
        <time>2020-09-04T08:34:27Z</time>
      </trkpt>
      <trkpt lat="44.78134" lon="3.09772">
        <ele>1143.63</ele>
        <time>2020-09-04T08:34:42Z</time>
      </trkpt>
      <trkpt lat="44.78147" lon="3.09765">
        <ele>1143.14</ele>
        <time>2020-09-04T08:34:57Z</time>
      </trkpt>
      <trkpt lat="44.78169" lon="3.0976">
        <ele>1143.63</ele>
        <time>2020-09-04T08:35:12Z</time>
      </trkpt>
      <trkpt lat="44.78187" lon="3.09756">
        <ele>1142.66</ele>
        <time>2020-09-04T08:35:27Z</time>
      </trkpt>
      <trkpt lat="44.78202" lon="3.09759">
        <ele>1142.66</ele>
        <time>2020-09-04T08:35:42Z</time>
      </trkpt>
      <trkpt lat="44.78221" lon="3.09763">
        <ele>1142.18</ele>
        <time>2020-09-04T08:35:57Z</time>
      </trkpt>
      <trkpt lat="44.78239" lon="3.09762">
        <ele>1143.14</ele>
        <time>2020-09-04T08:36:12Z</time>
      </trkpt>
      <trkpt lat="44.78249" lon="3.09757">
        <ele>1144.11</ele>
        <time>2020-09-04T08:36:27Z</time>
      </trkpt>
      <trkpt lat="44.78264" lon="3.09749">
        <ele>1145.07</ele>
        <time>2020-09-04T08:36:42Z</time>
      </trkpt>
      <trkpt lat="44.78282" lon="3.09742">
        <ele>1145.07</ele>
        <time>2020-09-04T08:36:57Z</time>
      </trkpt>
      <trkpt lat="44.783" lon="3.09734">
        <ele>1146.03</ele>
        <time>2020-09-04T08:37:12Z</time>
      </trkpt>
      <trkpt lat="44.78316" lon="3.09731">
        <ele>1146.99</ele>
        <time>2020-09-04T08:37:27Z</time>
      </trkpt>
      <trkpt lat="44.78333" lon="3.09728">
        <ele>1147.47</ele>
        <time>2020-09-04T08:37:42Z</time>
      </trkpt>
      <trkpt lat="44.7835" lon="3.09729">
        <ele>1147.95</ele>
        <time>2020-09-04T08:37:57Z</time>
      </trkpt>
      <trkpt lat="44.78369" lon="3.09737">
        <ele>1149.39</ele>
        <time>2020-09-04T08:38:12Z</time>
      </trkpt>
      <trkpt lat="44.78384" lon="3.09744">
        <ele>1149.87</ele>
        <time>2020-09-04T08:38:27Z</time>
      </trkpt>
      <trkpt lat="44.78402" lon="3.09761">
        <ele>1150.84</ele>
        <time>2020-09-04T08:38:42Z</time>
      </trkpt>
      <trkpt lat="44.78419" lon="3.09776">
        <ele>1150.35</ele>
        <time>2020-09-04T08:38:57Z</time>
      </trkpt>
      <trkpt lat="44.78435" lon="3.09791">
        <ele>1151.8</ele>
        <time>2020-09-04T08:39:12Z</time>
      </trkpt>
      <trkpt lat="44.78449" lon="3.09806">
        <ele>1151.32</ele>
        <time>2020-09-04T08:39:27Z</time>
      </trkpt>
      <trkpt lat="44.78465" lon="3.0982">
        <ele>1151.32</ele>
        <time>2020-09-04T08:39:42Z</time>
      </trkpt>
      <trkpt lat="44.78481" lon="3.09834">
        <ele>1151.32</ele>
        <time>2020-09-04T08:39:57Z</time>
      </trkpt>
      <trkpt lat="44.78498" lon="3.09848">
        <ele>1150.84</ele>
        <time>2020-09-04T08:40:12Z</time>
      </trkpt>
      <trkpt lat="44.78515" lon="3.09861">
        <ele>1150.84</ele>
        <time>2020-09-04T08:40:27Z</time>
      </trkpt>
      <trkpt lat="44.78532" lon="3.09871">
        <ele>1150.84</ele>
        <time>2020-09-04T08:40:42Z</time>
      </trkpt>
      <trkpt lat="44.78533" lon="3.0987">
        <ele>1150.84</ele>
        <time>2020-09-04T08:40:57Z</time>
      </trkpt>
      <trkpt lat="44.78535" lon="3.09873">
        <ele>1151.32</ele>
        <time>2020-09-04T08:41:12Z</time>
      </trkpt>
      <trkpt lat="44.78543" lon="3.09879">
        <ele>1151.32</ele>
        <time>2020-09-04T08:41:27Z</time>
      </trkpt>
      <trkpt lat="44.78562" lon="3.09884">
        <ele>1151.32</ele>
        <time>2020-09-04T08:41:42Z</time>
      </trkpt>
      <trkpt lat="44.78577" lon="3.09889">
        <ele>1151.8</ele>
        <time>2020-09-04T08:41:57Z</time>
      </trkpt>
      <trkpt lat="44.78595" lon="3.0989">
        <ele>1152.28</ele>
        <time>2020-09-04T08:42:12Z</time>
      </trkpt>
      <trkpt lat="44.78614" lon="3.09885">
        <ele>1153.24</ele>
        <time>2020-09-04T08:42:27Z</time>
      </trkpt>
      <trkpt lat="44.78633" lon="3.09882">
        <ele>1154.68</ele>
        <time>2020-09-04T08:42:42Z</time>
      </trkpt>
      <trkpt lat="44.78652" lon="3.09874">
        <ele>1155.16</ele>
        <time>2020-09-04T08:42:57Z</time>
      </trkpt>
      <trkpt lat="44.78677" lon="3.09867">
        <ele>1154.2</ele>
        <time>2020-09-04T08:43:12Z</time>
      </trkpt>
      <trkpt lat="44.78698" lon="3.0986">
        <ele>1152.28</ele>
        <time>2020-09-04T08:43:27Z</time>
      </trkpt>
      <trkpt lat="44.78717" lon="3.09849">
        <ele>1150.35</ele>
        <time>2020-09-04T08:43:42Z</time>
      </trkpt>
      <trkpt lat="44.78738" lon="3.09837">
        <ele>1149.39</ele>
        <time>2020-09-04T08:43:57Z</time>
      </trkpt>
      <trkpt lat="44.78758" lon="3.0983">
        <ele>1148.91</ele>
        <time>2020-09-04T08:44:12Z</time>
      </trkpt>
      <trkpt lat="44.78761" lon="3.09828">
        <ele>1148.43</ele>
        <time>2020-09-04T08:44:27Z</time>
      </trkpt>
      <trkpt lat="44.78774" lon="3.09826">
        <ele>1148.43</ele>
        <time>2020-09-04T08:44:42Z</time>
      </trkpt>
      <trkpt lat="44.78796" lon="3.09824">
        <ele>1148.43</ele>
        <time>2020-09-04T08:44:57Z</time>
      </trkpt>
      <trkpt lat="44.78815" lon="3.09819">
        <ele>1148.91</ele>
        <time>2020-09-04T08:45:12Z</time>
      </trkpt>
      <trkpt lat="44.78836" lon="3.09812">
        <ele>1148.43</ele>
        <time>2020-09-04T08:45:27Z</time>
      </trkpt>
      <trkpt lat="44.78856" lon="3.09807">
        <ele>1148.43</ele>
        <time>2020-09-04T08:45:42Z</time>
      </trkpt>
      <trkpt lat="44.78877" lon="3.09799">
        <ele>1148.43</ele>
        <time>2020-09-04T08:45:57Z</time>
      </trkpt>
      <trkpt lat="44.7888" lon="3.09799">
        <ele>1148.43</ele>
        <time>2020-09-04T08:46:12Z</time>
      </trkpt>
      <trkpt lat="44.78898" lon="3.09793">
        <ele>1147.95</ele>
        <time>2020-09-04T08:46:27Z</time>
      </trkpt>
      <trkpt lat="44.78919" lon="3.09789">
        <ele>1147.47</ele>
        <time>2020-09-04T08:46:42Z</time>
      </trkpt>
      <trkpt lat="44.78939" lon="3.09783">
        <ele>1147.95</ele>
        <time>2020-09-04T08:46:57Z</time>
      </trkpt>
      <trkpt lat="44.78957" lon="3.09778">
        <ele>1148.43</ele>
        <time>2020-09-04T08:47:12Z</time>
      </trkpt>
      <trkpt lat="44.78973" lon="3.09769">
        <ele>1147.47</ele>
        <time>2020-09-04T08:47:27Z</time>
      </trkpt>
      <trkpt lat="44.78993" lon="3.09762">
        <ele>1147.47</ele>
        <time>2020-09-04T08:47:42Z</time>
      </trkpt>
      <trkpt lat="44.79013" lon="3.09762">
        <ele>1146.03</ele>
        <time>2020-09-04T08:47:57Z</time>
      </trkpt>
      <trkpt lat="44.79036" lon="3.09763">
        <ele>1144.59</ele>
        <time>2020-09-04T08:48:12Z</time>
      </trkpt>
      <trkpt lat="44.79056" lon="3.09767">
        <ele>1144.11</ele>
        <time>2020-09-04T08:48:27Z</time>
      </trkpt>
      <trkpt lat="44.79079" lon="3.09768">
        <ele>1142.66</ele>
        <time>2020-09-04T08:48:42Z</time>
      </trkpt>
      <trkpt lat="44.791" lon="3.09771">
        <ele>1141.22</ele>
        <time>2020-09-04T08:48:57Z</time>
      </trkpt>
      <trkpt lat="44.79119" lon="3.09771">
        <ele>1140.74</ele>
        <time>2020-09-04T08:49:12Z</time>
      </trkpt>
      <trkpt lat="44.79138" lon="3.0977">
        <ele>1139.78</ele>
        <time>2020-09-04T08:49:27Z</time>
      </trkpt>
      <trkpt lat="44.7916" lon="3.09774">
        <ele>1137.86</ele>
        <time>2020-09-04T08:49:42Z</time>
      </trkpt>
      <trkpt lat="44.79179" lon="3.09784">
        <ele>1136.42</ele>
        <time>2020-09-04T08:49:57Z</time>
      </trkpt>
      <trkpt lat="44.79199" lon="3.09799">
        <ele>1135.45</ele>
        <time>2020-09-04T08:50:12Z</time>
      </trkpt>
      <trkpt lat="44.79216" lon="3.0981">
        <ele>1134.01</ele>
        <time>2020-09-04T08:50:27Z</time>
      </trkpt>
      <trkpt lat="44.79235" lon="3.09827">
        <ele>1133.05</ele>
        <time>2020-09-04T08:50:42Z</time>
      </trkpt>
      <trkpt lat="44.79249" lon="3.09844">
        <ele>1131.61</ele>
        <time>2020-09-04T08:50:57Z</time>
      </trkpt>
      <trkpt lat="44.79269" lon="3.09861">
        <ele>1131.61</ele>
        <time>2020-09-04T08:51:12Z</time>
      </trkpt>
      <trkpt lat="44.79286" lon="3.09875">
        <ele>1131.13</ele>
        <time>2020-09-04T08:51:27Z</time>
      </trkpt>
      <trkpt lat="44.79306" lon="3.09888">
        <ele>1130.65</ele>
        <time>2020-09-04T08:51:42Z</time>
      </trkpt>
      <trkpt lat="44.7932" lon="3.09904">
        <ele>1128.24</ele>
        <time>2020-09-04T08:51:57Z</time>
      </trkpt>
      <trkpt lat="44.7933" lon="3.09922">
        <ele>1127.28</ele>
        <time>2020-09-04T08:52:12Z</time>
      </trkpt>
      <trkpt lat="44.79342" lon="3.09944">
        <ele>1125.36</ele>
        <time>2020-09-04T08:52:27Z</time>
      </trkpt>
      <trkpt lat="44.79359" lon="3.09962">
        <ele>1123.44</ele>
        <time>2020-09-04T08:52:42Z</time>
      </trkpt>
      <trkpt lat="44.79373" lon="3.09981">
        <ele>1121.03</ele>
        <time>2020-09-04T08:52:57Z</time>
      </trkpt>
      <trkpt lat="44.79389" lon="3.1">
        <ele>1119.59</ele>
        <time>2020-09-04T08:53:12Z</time>
      </trkpt>
      <trkpt lat="44.79409" lon="3.09995">
        <ele>1119.11</ele>
        <time>2020-09-04T08:53:27Z</time>
      </trkpt>
      <trkpt lat="44.79424" lon="3.09983">
        <ele>1118.63</ele>
        <time>2020-09-04T08:53:42Z</time>
      </trkpt>
      <trkpt lat="44.79441" lon="3.0997">
        <ele>1118.15</ele>
        <time>2020-09-04T08:53:57Z</time>
      </trkpt>
      <trkpt lat="44.79458" lon="3.09957">
        <ele>1117.67</ele>
        <time>2020-09-04T08:54:12Z</time>
      </trkpt>
      <trkpt lat="44.79476" lon="3.09948">
        <ele>1117.19</ele>
        <time>2020-09-04T08:54:27Z</time>
      </trkpt>
      <trkpt lat="44.79495" lon="3.09943">
        <ele>1116.23</ele>
        <time>2020-09-04T08:54:42Z</time>
      </trkpt>
      <trkpt lat="44.79512" lon="3.09946">
        <ele>1114.79</ele>
        <time>2020-09-04T08:54:57Z</time>
      </trkpt>
      <trkpt lat="44.79532" lon="3.09949">
        <ele>1112.86</ele>
        <time>2020-09-04T08:55:12Z</time>
      </trkpt>
      <trkpt lat="44.7955" lon="3.09949">
        <ele>1111.42</ele>
        <time>2020-09-04T08:55:27Z</time>
      </trkpt>
      <trkpt lat="44.79568" lon="3.09944">
        <ele>1110.94</ele>
        <time>2020-09-04T08:55:42Z</time>
      </trkpt>
      <trkpt lat="44.79585" lon="3.09937">
        <ele>1110.46</ele>
        <time>2020-09-04T08:55:57Z</time>
      </trkpt>
      <trkpt lat="44.79602" lon="3.09925">
        <ele>1110.46</ele>
        <time>2020-09-04T08:56:12Z</time>
      </trkpt>
      <trkpt lat="44.79619" lon="3.09916">
        <ele>1110.94</ele>
        <time>2020-09-04T08:56:27Z</time>
      </trkpt>
      <trkpt lat="44.79637" lon="3.09902">
        <ele>1110.94</ele>
        <time>2020-09-04T08:56:42Z</time>
      </trkpt>
      <trkpt lat="44.79651" lon="3.09889">
        <ele>1111.42</ele>
        <time>2020-09-04T08:56:57Z</time>
      </trkpt>
      <trkpt lat="44.79665" lon="3.09872">
        <ele>1111.42</ele>
        <time>2020-09-04T08:57:12Z</time>
      </trkpt>
      <trkpt lat="44.79675" lon="3.09852">
        <ele>1112.38</ele>
        <time>2020-09-04T08:57:27Z</time>
      </trkpt>
      <trkpt lat="44.79684" lon="3.09829">
        <ele>1112.86</ele>
        <time>2020-09-04T08:57:42Z</time>
      </trkpt>
      <trkpt lat="44.79692" lon="3.09805">
        <ele>1113.34</ele>
        <time>2020-09-04T08:57:57Z</time>
      </trkpt>
      <trkpt lat="44.79702" lon="3.09783">
        <ele>1113.82</ele>
        <time>2020-09-04T08:58:12Z</time>
      </trkpt>
      <trkpt lat="44.79712" lon="3.09761">
        <ele>1114.79</ele>
        <time>2020-09-04T08:58:27Z</time>
      </trkpt>
      <trkpt lat="44.79723" lon="3.09741">
        <ele>1115.27</ele>
        <time>2020-09-04T08:58:42Z</time>
      </trkpt>
      <trkpt lat="44.79732" lon="3.09722">
        <ele>1116.23</ele>
        <time>2020-09-04T08:58:57Z</time>
      </trkpt>
      <trkpt lat="44.79743" lon="3.09704">
        <ele>1117.67</ele>
        <time>2020-09-04T08:59:12Z</time>
      </trkpt>
      <trkpt lat="44.79757" lon="3.09688">
        <ele>1117.67</ele>
        <time>2020-09-04T08:59:27Z</time>
      </trkpt>
      <trkpt lat="44.79771" lon="3.09677">
        <ele>1117.19</ele>
        <time>2020-09-04T08:59:42Z</time>
      </trkpt>
      <trkpt lat="44.79776" lon="3.09672">
        <ele>1117.19</ele>
        <time>2020-09-04T08:59:57Z</time>
      </trkpt>
      <trkpt lat="44.79776" lon="3.09672">
        <ele>1117.67</ele>
        <time>2020-09-04T09:00:12Z</time>
      </trkpt>
      <trkpt lat="44.79791" lon="3.09671">
        <ele>1116.23</ele>
        <time>2020-09-04T09:00:27Z</time>
      </trkpt>
      <trkpt lat="44.79812" lon="3.0967">
        <ele>1114.79</ele>
        <time>2020-09-04T09:00:42Z</time>
      </trkpt>
      <trkpt lat="44.79832" lon="3.09671">
        <ele>1114.31</ele>
        <time>2020-09-04T09:00:57Z</time>
      </trkpt>
      <trkpt lat="44.79852" lon="3.09673">
        <ele>1113.34</ele>
        <time>2020-09-04T09:01:12Z</time>
      </trkpt>
      <trkpt lat="44.79871" lon="3.09674">
        <ele>1113.34</ele>
        <time>2020-09-04T09:01:27Z</time>
      </trkpt>
      <trkpt lat="44.79895" lon="3.09675">
        <ele>1112.86</ele>
        <time>2020-09-04T09:01:42Z</time>
      </trkpt>
      <trkpt lat="44.79917" lon="3.09677">
        <ele>1111.9</ele>
        <time>2020-09-04T09:01:57Z</time>
      </trkpt>
      <trkpt lat="44.79937" lon="3.0968">
        <ele>1111.9</ele>
        <time>2020-09-04T09:02:12Z</time>
      </trkpt>
      <trkpt lat="44.79956" lon="3.09685">
        <ele>1111.42</ele>
        <time>2020-09-04T09:02:27Z</time>
      </trkpt>
      <trkpt lat="44.79974" lon="3.09689">
        <ele>1111.42</ele>
        <time>2020-09-04T09:02:42Z</time>
      </trkpt>
      <trkpt lat="44.79994" lon="3.09694">
        <ele>1110.94</ele>
        <time>2020-09-04T09:02:57Z</time>
      </trkpt>
      <trkpt lat="44.80013" lon="3.09698">
        <ele>1110.94</ele>
        <time>2020-09-04T09:03:12Z</time>
      </trkpt>
      <trkpt lat="44.80034" lon="3.09703">
        <ele>1110.46</ele>
        <time>2020-09-04T09:03:27Z</time>
      </trkpt>
      <trkpt lat="44.80053" lon="3.09708">
        <ele>1109.5</ele>
        <time>2020-09-04T09:03:42Z</time>
      </trkpt>
      <trkpt lat="44.80073" lon="3.09712">
        <ele>1108.54</ele>
        <time>2020-09-04T09:03:57Z</time>
      </trkpt>
      <trkpt lat="44.80093" lon="3.09718">
        <ele>1108.54</ele>
        <time>2020-09-04T09:04:12Z</time>
      </trkpt>
      <trkpt lat="44.80111" lon="3.09727">
        <ele>1108.06</ele>
        <time>2020-09-04T09:04:27Z</time>
      </trkpt>
      <trkpt lat="44.80125" lon="3.09733">
        <ele>1107.58</ele>
        <time>2020-09-04T09:04:42Z</time>
      </trkpt>
      <trkpt lat="44.80136" lon="3.09727">
        <ele>1108.54</ele>
        <time>2020-09-04T09:04:57Z</time>
      </trkpt>
      <trkpt lat="44.80139" lon="3.09723">
        <ele>1108.06</ele>
        <time>2020-09-04T09:05:12Z</time>
      </trkpt>
      <trkpt lat="44.80147" lon="3.09721">
        <ele>1108.54</ele>
        <time>2020-09-04T09:05:27Z</time>
      </trkpt>
      <trkpt lat="44.80162" lon="3.0971">
        <ele>1108.54</ele>
        <time>2020-09-04T09:05:42Z</time>
      </trkpt>
      <trkpt lat="44.80177" lon="3.097">
        <ele>1108.06</ele>
        <time>2020-09-04T09:05:57Z</time>
      </trkpt>
      <trkpt lat="44.80195" lon="3.09691">
        <ele>1108.06</ele>
        <time>2020-09-04T09:06:12Z</time>
      </trkpt>
      <trkpt lat="44.80213" lon="3.09682">
        <ele>1109.02</ele>
        <time>2020-09-04T09:06:27Z</time>
      </trkpt>
      <trkpt lat="44.8023" lon="3.09677">
        <ele>1109.5</ele>
        <time>2020-09-04T09:06:42Z</time>
      </trkpt>
      <trkpt lat="44.80245" lon="3.09667">
        <ele>1110.94</ele>
        <time>2020-09-04T09:06:57Z</time>
      </trkpt>
      <trkpt lat="44.80247" lon="3.09665">
        <ele>1109.98</ele>
        <time>2020-09-04T09:07:12Z</time>
      </trkpt>
      <trkpt lat="44.80248" lon="3.09663">
        <ele>1109.98</ele>
        <time>2020-09-04T09:07:27Z</time>
      </trkpt>
      <trkpt lat="44.80247" lon="3.09663">
        <ele>1109.98</ele>
        <time>2020-09-04T09:07:42Z</time>
      </trkpt>
      <trkpt lat="44.80248" lon="3.09662">
        <ele>1109.98</ele>
        <time>2020-09-04T09:07:57Z</time>
      </trkpt>
      <trkpt lat="44.80247" lon="3.09662">
        <ele>1110.46</ele>
        <time>2020-09-04T09:08:12Z</time>
      </trkpt>
      <trkpt lat="44.80246" lon="3.09667">
        <ele>1110.46</ele>
        <time>2020-09-04T09:08:27Z</time>
      </trkpt>
      <trkpt lat="44.80255" lon="3.09657">
        <ele>1110.94</ele>
        <time>2020-09-04T09:08:42Z</time>
      </trkpt>
      <trkpt lat="44.8027" lon="3.09642">
        <ele>1111.9</ele>
        <time>2020-09-04T09:08:57Z</time>
      </trkpt>
      <trkpt lat="44.80284" lon="3.09626">
        <ele>1113.34</ele>
        <time>2020-09-04T09:09:12Z</time>
      </trkpt>
      <trkpt lat="44.80301" lon="3.09614">
        <ele>1114.31</ele>
        <time>2020-09-04T09:09:27Z</time>
      </trkpt>
      <trkpt lat="44.80316" lon="3.09604">
        <ele>1115.75</ele>
        <time>2020-09-04T09:09:42Z</time>
      </trkpt>
      <trkpt lat="44.80329" lon="3.09594">
        <ele>1117.67</ele>
        <time>2020-09-04T09:09:57Z</time>
      </trkpt>
      <trkpt lat="44.80343" lon="3.09584">
        <ele>1119.11</ele>
        <time>2020-09-04T09:10:12Z</time>
      </trkpt>
      <trkpt lat="44.80356" lon="3.09572">
        <ele>1120.55</ele>
        <time>2020-09-04T09:10:27Z</time>
      </trkpt>
      <trkpt lat="44.8037" lon="3.09559">
        <ele>1121.52</ele>
        <time>2020-09-04T09:10:42Z</time>
      </trkpt>
      <trkpt lat="44.80385" lon="3.09547">
        <ele>1123.44</ele>
        <time>2020-09-04T09:10:57Z</time>
      </trkpt>
      <trkpt lat="44.804" lon="3.09537">
        <ele>1124.4</ele>
        <time>2020-09-04T09:11:12Z</time>
      </trkpt>
      <trkpt lat="44.80416" lon="3.09527">
        <ele>1125.36</ele>
        <time>2020-09-04T09:11:27Z</time>
      </trkpt>
      <trkpt lat="44.80432" lon="3.09519">
        <ele>1125.36</ele>
        <time>2020-09-04T09:11:42Z</time>
      </trkpt>
      <trkpt lat="44.80448" lon="3.0951">
        <ele>1126.32</ele>
        <time>2020-09-04T09:11:57Z</time>
      </trkpt>
      <trkpt lat="44.80455" lon="3.09506">
        <ele>1125.84</ele>
        <time>2020-09-04T09:12:12Z</time>
      </trkpt>
      <trkpt lat="44.80456" lon="3.09507">
        <ele>1125.36</ele>
        <time>2020-09-04T09:12:27Z</time>
      </trkpt>
      <trkpt lat="44.80457" lon="3.09505">
        <ele>1125.84</ele>
        <time>2020-09-04T09:12:42Z</time>
      </trkpt>
      <trkpt lat="44.80456" lon="3.09504">
        <ele>1125.84</ele>
        <time>2020-09-04T09:12:57Z</time>
      </trkpt>
      <trkpt lat="44.80468" lon="3.09509">
        <ele>1125.36</ele>
        <time>2020-09-04T09:13:12Z</time>
      </trkpt>
      <trkpt lat="44.80473" lon="3.09507">
        <ele>1124.4</ele>
        <time>2020-09-04T09:13:27Z</time>
      </trkpt>
      <trkpt lat="44.80474" lon="3.09507">
        <ele>1124.4</ele>
        <time>2020-09-04T09:13:42Z</time>
      </trkpt>
      <trkpt lat="44.80493" lon="3.0951">
        <ele>1122.48</ele>
        <time>2020-09-04T09:13:57Z</time>
      </trkpt>
      <trkpt lat="44.80512" lon="3.09511">
        <ele>1119.59</ele>
        <time>2020-09-04T09:14:12Z</time>
      </trkpt>
      <trkpt lat="44.80532" lon="3.09508">
        <ele>1118.15</ele>
        <time>2020-09-04T09:14:27Z</time>
      </trkpt>
      <trkpt lat="44.80554" lon="3.09508">
        <ele>1116.23</ele>
        <time>2020-09-04T09:14:42Z</time>
      </trkpt>
      <trkpt lat="44.80575" lon="3.09506">
        <ele>1115.27</ele>
        <time>2020-09-04T09:14:57Z</time>
      </trkpt>
      <trkpt lat="44.80596" lon="3.095">
        <ele>1113.82</ele>
        <time>2020-09-04T09:15:12Z</time>
      </trkpt>
      <trkpt lat="44.80612" lon="3.09493">
        <ele>1111.9</ele>
        <time>2020-09-04T09:15:27Z</time>
      </trkpt>
      <trkpt lat="44.80629" lon="3.09483">
        <ele>1109.02</ele>
        <time>2020-09-04T09:15:42Z</time>
      </trkpt>
      <trkpt lat="44.80645" lon="3.09473">
        <ele>1108.06</ele>
        <time>2020-09-04T09:15:57Z</time>
      </trkpt>
      <trkpt lat="44.80662" lon="3.09464">
        <ele>1106.13</ele>
        <time>2020-09-04T09:16:12Z</time>
      </trkpt>
      <trkpt lat="44.80688" lon="3.09456">
        <ele>1104.21</ele>
        <time>2020-09-04T09:16:27Z</time>
      </trkpt>
      <trkpt lat="44.80709" lon="3.09444">
        <ele>1101.33</ele>
        <time>2020-09-04T09:16:42Z</time>
      </trkpt>
      <trkpt lat="44.80728" lon="3.09435">
        <ele>1098.44</ele>
        <time>2020-09-04T09:16:57Z</time>
      </trkpt>
      <trkpt lat="44.80751" lon="3.09438">
        <ele>1096.52</ele>
        <time>2020-09-04T09:17:12Z</time>
      </trkpt>
      <trkpt lat="44.80766" lon="3.09441">
        <ele>1093.64</ele>
        <time>2020-09-04T09:17:27Z</time>
      </trkpt>
      <trkpt lat="44.80786" lon="3.0944">
        <ele>1091.23</ele>
        <time>2020-09-04T09:17:42Z</time>
      </trkpt>
      <trkpt lat="44.80802" lon="3.09437">
        <ele>1089.79</ele>
        <time>2020-09-04T09:17:57Z</time>
      </trkpt>
      <trkpt lat="44.80803" lon="3.0944">
        <ele>1089.31</ele>
        <time>2020-09-04T09:18:12Z</time>
      </trkpt>
      <trkpt lat="44.80804" lon="3.09449">
        <ele>1088.83</ele>
        <time>2020-09-04T09:18:27Z</time>
      </trkpt>
      <trkpt lat="44.80806" lon="3.09445">
        <ele>1090.27</ele>
        <time>2020-09-04T09:18:42Z</time>
      </trkpt>
      <trkpt lat="44.80826" lon="3.09437">
        <ele>1088.35</ele>
        <time>2020-09-04T09:18:57Z</time>
      </trkpt>
      <trkpt lat="44.80847" lon="3.09434">
        <ele>1088.35</ele>
        <time>2020-09-04T09:19:12Z</time>
      </trkpt>
      <trkpt lat="44.8087" lon="3.09433">
        <ele>1087.39</ele>
        <time>2020-09-04T09:19:27Z</time>
      </trkpt>
      <trkpt lat="44.80887" lon="3.09431">
        <ele>1085.47</ele>
        <time>2020-09-04T09:19:42Z</time>
      </trkpt>
      <trkpt lat="44.80908" lon="3.0942">
        <ele>1083.06</ele>
        <time>2020-09-04T09:19:57Z</time>
      </trkpt>
      <trkpt lat="44.80928" lon="3.09412">
        <ele>1080.18</ele>
        <time>2020-09-04T09:20:12Z</time>
      </trkpt>
      <trkpt lat="44.80945" lon="3.09404">
        <ele>1077.29</ele>
        <time>2020-09-04T09:20:27Z</time>
      </trkpt>
      <trkpt lat="44.80965" lon="3.09393">
        <ele>1074.41</ele>
        <time>2020-09-04T09:20:42Z</time>
      </trkpt>
      <trkpt lat="44.80983" lon="3.09377">
        <ele>1071.05</ele>
        <time>2020-09-04T09:20:57Z</time>
      </trkpt>
      <trkpt lat="44.81001" lon="3.09374">
        <ele>1069.6</ele>
        <time>2020-09-04T09:21:12Z</time>
      </trkpt>
      <trkpt lat="44.81024" lon="3.09383">
        <ele>1067.68</ele>
        <time>2020-09-04T09:21:27Z</time>
      </trkpt>
      <trkpt lat="44.81042" lon="3.09389">
        <ele>1066.24</ele>
        <time>2020-09-04T09:21:42Z</time>
      </trkpt>
      <trkpt lat="44.81062" lon="3.09395">
        <ele>1064.8</ele>
        <time>2020-09-04T09:21:57Z</time>
      </trkpt>
      <trkpt lat="44.81083" lon="3.09396">
        <ele>1063.36</ele>
        <time>2020-09-04T09:22:12Z</time>
      </trkpt>
      <trkpt lat="44.81101" lon="3.09388">
        <ele>1060.47</ele>
        <time>2020-09-04T09:22:27Z</time>
      </trkpt>
      <trkpt lat="44.81115" lon="3.09373">
        <ele>1057.59</ele>
        <time>2020-09-04T09:22:42Z</time>
      </trkpt>
      <trkpt lat="44.81129" lon="3.0936">
        <ele>1055.18</ele>
        <time>2020-09-04T09:22:57Z</time>
      </trkpt>
      <trkpt lat="44.81142" lon="3.09344">
        <ele>1053.26</ele>
        <time>2020-09-04T09:23:12Z</time>
      </trkpt>
      <trkpt lat="44.81159" lon="3.09331">
        <ele>1050.86</ele>
        <time>2020-09-04T09:23:27Z</time>
      </trkpt>
      <trkpt lat="44.81176" lon="3.09317">
        <ele>1049.42</ele>
        <time>2020-09-04T09:23:42Z</time>
      </trkpt>
      <trkpt lat="44.81188" lon="3.09304">
        <ele>1048.45</ele>
        <time>2020-09-04T09:23:57Z</time>
      </trkpt>
      <trkpt lat="44.81188" lon="3.09305">
        <ele>1047.49</ele>
        <time>2020-09-04T09:24:12Z</time>
      </trkpt>
      <trkpt lat="44.81197" lon="3.09301">
        <ele>1047.49</ele>
        <time>2020-09-04T09:24:27Z</time>
      </trkpt>
      <trkpt lat="44.81213" lon="3.09291">
        <ele>1045.57</ele>
        <time>2020-09-04T09:24:42Z</time>
      </trkpt>
      <trkpt lat="44.81232" lon="3.09284">
        <ele>1043.17</ele>
        <time>2020-09-04T09:24:57Z</time>
      </trkpt>
      <trkpt lat="44.81251" lon="3.0928">
        <ele>1042.69</ele>
        <time>2020-09-04T09:25:12Z</time>
      </trkpt>
      <trkpt lat="44.81273" lon="3.09271">
        <ele>1041.73</ele>
        <time>2020-09-04T09:25:27Z</time>
      </trkpt>
      <trkpt lat="44.81293" lon="3.09264">
        <ele>1041.25</ele>
        <time>2020-09-04T09:25:42Z</time>
      </trkpt>
      <trkpt lat="44.81313" lon="3.09257">
        <ele>1041.73</ele>
        <time>2020-09-04T09:25:57Z</time>
      </trkpt>
      <trkpt lat="44.81333" lon="3.09253">
        <ele>1041.73</ele>
        <time>2020-09-04T09:26:12Z</time>
      </trkpt>
      <trkpt lat="44.81352" lon="3.09253">
        <ele>1040.28</ele>
        <time>2020-09-04T09:26:27Z</time>
      </trkpt>
      <trkpt lat="44.81372" lon="3.09248">
        <ele>1038.84</ele>
        <time>2020-09-04T09:26:42Z</time>
      </trkpt>
      <trkpt lat="44.81387" lon="3.09241">
        <ele>1036.44</ele>
        <time>2020-09-04T09:26:57Z</time>
      </trkpt>
      <trkpt lat="44.81407" lon="3.09229">
        <ele>1035</ele>
        <time>2020-09-04T09:27:12Z</time>
      </trkpt>
      <trkpt lat="44.81426" lon="3.09215">
        <ele>1034.04</ele>
        <time>2020-09-04T09:27:27Z</time>
      </trkpt>
      <trkpt lat="44.81445" lon="3.09197">
        <ele>1032.59</ele>
        <time>2020-09-04T09:27:42Z</time>
      </trkpt>
      <trkpt lat="44.81461" lon="3.0918">
        <ele>1032.59</ele>
        <time>2020-09-04T09:27:57Z</time>
      </trkpt>
      <trkpt lat="44.81475" lon="3.0916">
        <ele>1031.63</ele>
        <time>2020-09-04T09:28:12Z</time>
      </trkpt>
      <trkpt lat="44.81486" lon="3.0914">
        <ele>1031.15</ele>
        <time>2020-09-04T09:28:27Z</time>
      </trkpt>
      <trkpt lat="44.8149" lon="3.09116">
        <ele>1030.19</ele>
        <time>2020-09-04T09:28:42Z</time>
      </trkpt>
      <trkpt lat="44.81494" lon="3.09095">
        <ele>1029.23</ele>
        <time>2020-09-04T09:28:57Z</time>
      </trkpt>
      <trkpt lat="44.81503" lon="3.09076">
        <ele>1025.86</ele>
        <time>2020-09-04T09:29:12Z</time>
      </trkpt>
      <trkpt lat="44.81517" lon="3.09061">
        <ele>1024.42</ele>
        <time>2020-09-04T09:29:27Z</time>
      </trkpt>
      <trkpt lat="44.81532" lon="3.0905">
        <ele>1022.5</ele>
        <time>2020-09-04T09:29:42Z</time>
      </trkpt>
      <trkpt lat="44.81549" lon="3.09041">
        <ele>1022.02</ele>
        <time>2020-09-04T09:29:57Z</time>
      </trkpt>
      <trkpt lat="44.81568" lon="3.09036">
        <ele>1021.06</ele>
        <time>2020-09-04T09:30:12Z</time>
      </trkpt>
      <trkpt lat="44.81585" lon="3.09035">
        <ele>1019.62</ele>
        <time>2020-09-04T09:30:27Z</time>
      </trkpt>
      <trkpt lat="44.81606" lon="3.09033">
        <ele>1018.65</ele>
        <time>2020-09-04T09:30:42Z</time>
      </trkpt>
      <trkpt lat="44.81624" lon="3.09025">
        <ele>1017.69</ele>
        <time>2020-09-04T09:30:57Z</time>
      </trkpt>
      <trkpt lat="44.81639" lon="3.09012">
        <ele>1017.21</ele>
        <time>2020-09-04T09:31:12Z</time>
      </trkpt>
      <trkpt lat="44.81657" lon="3.09004">
        <ele>1016.25</ele>
        <time>2020-09-04T09:31:27Z</time>
      </trkpt>
      <trkpt lat="44.81675" lon="3.09011">
        <ele>1015.77</ele>
        <time>2020-09-04T09:31:42Z</time>
      </trkpt>
      <trkpt lat="44.81691" lon="3.09021">
        <ele>1015.29</ele>
        <time>2020-09-04T09:31:57Z</time>
      </trkpt>
      <trkpt lat="44.81711" lon="3.09024">
        <ele>1014.33</ele>
        <time>2020-09-04T09:32:12Z</time>
      </trkpt>
      <trkpt lat="44.81729" lon="3.09022">
        <ele>1012.41</ele>
        <time>2020-09-04T09:32:27Z</time>
      </trkpt>
      <trkpt lat="44.81746" lon="3.09017">
        <ele>1010</ele>
        <time>2020-09-04T09:32:42Z</time>
      </trkpt>
      <trkpt lat="44.81763" lon="3.09011">
        <ele>1008.08</ele>
        <time>2020-09-04T09:32:57Z</time>
      </trkpt>
      <trkpt lat="44.81778" lon="3.09001">
        <ele>1007.12</ele>
        <time>2020-09-04T09:33:12Z</time>
      </trkpt>
      <trkpt lat="44.81792" lon="3.08988">
        <ele>1005.2</ele>
        <time>2020-09-04T09:33:27Z</time>
      </trkpt>
      <trkpt lat="44.81808" lon="3.08972">
        <ele>1003.27</ele>
        <time>2020-09-04T09:33:42Z</time>
      </trkpt>
      <trkpt lat="44.81825" lon="3.08957">
        <ele>1001.35</ele>
        <time>2020-09-04T09:33:57Z</time>
      </trkpt>
      <trkpt lat="44.81837" lon="3.08944">
        <ele>998.95</ele>
        <time>2020-09-04T09:34:12Z</time>
      </trkpt>
      <trkpt lat="44.81851" lon="3.0893">
        <ele>997.02</ele>
        <time>2020-09-04T09:34:27Z</time>
      </trkpt>
      <trkpt lat="44.81866" lon="3.08914">
        <ele>995.1</ele>
        <time>2020-09-04T09:34:42Z</time>
      </trkpt>
      <trkpt lat="44.81881" lon="3.08893">
        <ele>993.66</ele>
        <time>2020-09-04T09:34:57Z</time>
      </trkpt>
      <trkpt lat="44.81895" lon="3.08875">
        <ele>992.7</ele>
        <time>2020-09-04T09:35:12Z</time>
      </trkpt>
      <trkpt lat="44.81913" lon="3.08859">
        <ele>991.26</ele>
        <time>2020-09-04T09:35:27Z</time>
      </trkpt>
      <trkpt lat="44.81929" lon="3.08848">
        <ele>990.3</ele>
        <time>2020-09-04T09:35:42Z</time>
      </trkpt>
      <trkpt lat="44.81947" lon="3.0884">
        <ele>988.85</ele>
        <time>2020-09-04T09:35:57Z</time>
      </trkpt>
      <trkpt lat="44.81964" lon="3.0883">
        <ele>987.41</ele>
        <time>2020-09-04T09:36:12Z</time>
      </trkpt>
      <trkpt lat="44.81983" lon="3.08818">
        <ele>985.97</ele>
        <time>2020-09-04T09:36:27Z</time>
      </trkpt>
      <trkpt lat="44.81997" lon="3.08803">
        <ele>984.53</ele>
        <time>2020-09-04T09:36:42Z</time>
      </trkpt>
      <trkpt lat="44.82015" lon="3.08795">
        <ele>983.57</ele>
        <time>2020-09-04T09:36:57Z</time>
      </trkpt>
      <trkpt lat="44.82032" lon="3.08806">
        <ele>981.64</ele>
        <time>2020-09-04T09:37:12Z</time>
      </trkpt>
      <trkpt lat="44.82048" lon="3.0882">
        <ele>980.68</ele>
        <time>2020-09-04T09:37:27Z</time>
      </trkpt>
      <trkpt lat="44.82063" lon="3.08834">
        <ele>979.24</ele>
        <time>2020-09-04T09:37:42Z</time>
      </trkpt>
      <trkpt lat="44.8208" lon="3.08847">
        <ele>977.8</ele>
        <time>2020-09-04T09:37:57Z</time>
      </trkpt>
      <trkpt lat="44.82099" lon="3.08846">
        <ele>976.84</ele>
        <time>2020-09-04T09:38:12Z</time>
      </trkpt>
      <trkpt lat="44.82118" lon="3.08843">
        <ele>975.39</ele>
        <time>2020-09-04T09:38:27Z</time>
      </trkpt>
      <trkpt lat="44.82138" lon="3.08838">
        <ele>973.95</ele>
        <time>2020-09-04T09:38:42Z</time>
      </trkpt>
      <trkpt lat="44.82158" lon="3.08836">
        <ele>973.47</ele>
        <time>2020-09-04T09:38:57Z</time>
      </trkpt>
      <trkpt lat="44.82178" lon="3.08835">
        <ele>971.55</ele>
        <time>2020-09-04T09:39:12Z</time>
      </trkpt>
      <trkpt lat="44.82196" lon="3.08832">
        <ele>971.07</ele>
        <time>2020-09-04T09:39:27Z</time>
      </trkpt>
      <trkpt lat="44.82214" lon="3.08829">
        <ele>969.63</ele>
        <time>2020-09-04T09:39:42Z</time>
      </trkpt>
      <trkpt lat="44.82232" lon="3.08826">
        <ele>969.15</ele>
        <time>2020-09-04T09:39:57Z</time>
      </trkpt>
      <trkpt lat="44.82249" lon="3.08821">
        <ele>968.67</ele>
        <time>2020-09-04T09:40:12Z</time>
      </trkpt>
      <trkpt lat="44.82269" lon="3.08814">
        <ele>967.7</ele>
        <time>2020-09-04T09:40:27Z</time>
      </trkpt>
      <trkpt lat="44.82288" lon="3.0881">
        <ele>967.7</ele>
        <time>2020-09-04T09:40:42Z</time>
      </trkpt>
      <trkpt lat="44.82306" lon="3.08808">
        <ele>967.7</ele>
        <time>2020-09-04T09:40:57Z</time>
      </trkpt>
      <trkpt lat="44.82318" lon="3.08806">
        <ele>967.22</ele>
        <time>2020-09-04T09:41:12Z</time>
      </trkpt>
      <trkpt lat="44.82317" lon="3.08807">
        <ele>967.22</ele>
        <time>2020-09-04T09:41:27Z</time>
      </trkpt>
      <trkpt lat="44.82318" lon="3.08808">
        <ele>967.22</ele>
        <time>2020-09-04T09:41:42Z</time>
      </trkpt>
      <trkpt lat="44.82334" lon="3.08812">
        <ele>966.74</ele>
        <time>2020-09-04T09:41:57Z</time>
      </trkpt>
      <trkpt lat="44.8235" lon="3.08809">
        <ele>966.74</ele>
        <time>2020-09-04T09:42:12Z</time>
      </trkpt>
      <trkpt lat="44.8235" lon="3.08808">
        <ele>966.74</ele>
        <time>2020-09-04T09:42:27Z</time>
      </trkpt>
      <trkpt lat="44.82348" lon="3.08808">
        <ele>966.26</ele>
        <time>2020-09-04T09:42:42Z</time>
      </trkpt>
      <trkpt lat="44.82348" lon="3.08808">
        <ele>966.26</ele>
        <time>2020-09-04T09:42:57Z</time>
      </trkpt>
      <trkpt lat="44.82354" lon="3.08808">
        <ele>966.26</ele>
        <time>2020-09-04T09:43:12Z</time>
      </trkpt>
      <trkpt lat="44.82354" lon="3.08806">
        <ele>966.26</ele>
        <time>2020-09-04T09:43:27Z</time>
      </trkpt>
      <trkpt lat="44.82354" lon="3.08804">
        <ele>966.26</ele>
        <time>2020-09-04T09:43:42Z</time>
      </trkpt>
      <trkpt lat="44.82351" lon="3.08808">
        <ele>965.78</ele>
        <time>2020-09-04T09:43:57Z</time>
      </trkpt>
      <trkpt lat="44.8235" lon="3.08809">
        <ele>966.26</ele>
        <time>2020-09-04T09:44:12Z</time>
      </trkpt>
      <trkpt lat="44.82356" lon="3.08812">
        <ele>966.26</ele>
        <time>2020-09-04T09:44:27Z</time>
      </trkpt>
      <trkpt lat="44.82365" lon="3.08809">
        <ele>965.78</ele>
        <time>2020-09-04T09:44:42Z</time>
      </trkpt>
      <trkpt lat="44.82384" lon="3.08813">
        <ele>964.82</ele>
        <time>2020-09-04T09:44:57Z</time>
      </trkpt>
      <trkpt lat="44.82399" lon="3.08814">
        <ele>963.38</ele>
        <time>2020-09-04T09:45:12Z</time>
      </trkpt>
      <trkpt lat="44.82414" lon="3.08816">
        <ele>961.94</ele>
        <time>2020-09-04T09:45:27Z</time>
      </trkpt>
      <trkpt lat="44.82428" lon="3.08818">
        <ele>960.49</ele>
        <time>2020-09-04T09:45:42Z</time>
      </trkpt>
      <trkpt lat="44.82442" lon="3.08828">
        <ele>959.05</ele>
        <time>2020-09-04T09:45:57Z</time>
      </trkpt>
      <trkpt lat="44.82456" lon="3.08831">
        <ele>956.65</ele>
        <time>2020-09-04T09:46:12Z</time>
      </trkpt>
      <trkpt lat="44.82468" lon="3.08823">
        <ele>956.65</ele>
        <time>2020-09-04T09:46:27Z</time>
      </trkpt>
      <trkpt lat="44.82477" lon="3.08802">
        <ele>955.69</ele>
        <time>2020-09-04T09:46:42Z</time>
      </trkpt>
      <trkpt lat="44.82479" lon="3.08777">
        <ele>954.25</ele>
        <time>2020-09-04T09:46:57Z</time>
      </trkpt>
      <trkpt lat="44.82479" lon="3.08751">
        <ele>952.8</ele>
        <time>2020-09-04T09:47:12Z</time>
      </trkpt>
      <trkpt lat="44.82484" lon="3.08734">
        <ele>952.32</ele>
        <time>2020-09-04T09:47:27Z</time>
      </trkpt>
      <trkpt lat="44.82479" lon="3.08723">
        <ele>951.84</ele>
        <time>2020-09-04T09:47:42Z</time>
      </trkpt>
      <trkpt lat="44.82482" lon="3.08701">
        <ele>950.88</ele>
        <time>2020-09-04T09:47:57Z</time>
      </trkpt>
      <trkpt lat="44.82499" lon="3.08683">
        <ele>949.92</ele>
        <time>2020-09-04T09:48:12Z</time>
      </trkpt>
      <trkpt lat="44.82515" lon="3.08669">
        <ele>949.44</ele>
        <time>2020-09-04T09:48:27Z</time>
      </trkpt>
      <trkpt lat="44.82524" lon="3.08659">
        <ele>949.44</ele>
        <time>2020-09-04T09:48:42Z</time>
      </trkpt>
      <trkpt lat="44.82529" lon="3.08656">
        <ele>948.48</ele>
        <time>2020-09-04T09:48:57Z</time>
      </trkpt>
      <trkpt lat="44.82527" lon="3.08658">
        <ele>948.48</ele>
        <time>2020-09-04T09:49:12Z</time>
      </trkpt>
      <trkpt lat="44.82528" lon="3.08654">
        <ele>948.48</ele>
        <time>2020-09-04T09:49:27Z</time>
      </trkpt>
      <trkpt lat="44.82526" lon="3.08651">
        <ele>948.48</ele>
        <time>2020-09-04T09:49:42Z</time>
      </trkpt>
      <trkpt lat="44.82528" lon="3.0865">
        <ele>948.96</ele>
        <time>2020-09-04T09:49:57Z</time>
      </trkpt>
      <trkpt lat="44.82528" lon="3.08648">
        <ele>948.48</ele>
        <time>2020-09-04T09:50:12Z</time>
      </trkpt>
      <trkpt lat="44.82529" lon="3.08649">
        <ele>948.48</ele>
        <time>2020-09-04T09:50:27Z</time>
      </trkpt>
      <trkpt lat="44.82528" lon="3.08649">
        <ele>948.48</ele>
        <time>2020-09-04T09:50:42Z</time>
      </trkpt>
      <trkpt lat="44.82529" lon="3.08648">
        <ele>948</ele>
        <time>2020-09-04T09:50:57Z</time>
      </trkpt>
      <trkpt lat="44.82527" lon="3.08649">
        <ele>948</ele>
        <time>2020-09-04T09:51:12Z</time>
      </trkpt>
      <trkpt lat="44.82521" lon="3.08647">
        <ele>948.48</ele>
        <time>2020-09-04T09:51:27Z</time>
      </trkpt>
      <trkpt lat="44.82527" lon="3.08624">
        <ele>946.56</ele>
        <time>2020-09-04T09:51:42Z</time>
      </trkpt>
      <trkpt lat="44.82531" lon="3.08607">
        <ele>946.07</ele>
        <time>2020-09-04T09:51:57Z</time>
      </trkpt>
      <trkpt lat="44.82539" lon="3.08586">
        <ele>945.11</ele>
        <time>2020-09-04T09:52:12Z</time>
      </trkpt>
      <trkpt lat="44.82541" lon="3.08584">
        <ele>945.11</ele>
        <time>2020-09-04T09:52:27Z</time>
      </trkpt>
      <trkpt lat="44.8254" lon="3.08566">
        <ele>944.63</ele>
        <time>2020-09-04T09:52:42Z</time>
      </trkpt>
      <trkpt lat="44.82539" lon="3.08544">
        <ele>943.19</ele>
        <time>2020-09-04T09:52:57Z</time>
      </trkpt>
      <trkpt lat="44.82536" lon="3.08524">
        <ele>941.75</ele>
        <time>2020-09-04T09:53:12Z</time>
      </trkpt>
      <trkpt lat="44.82533" lon="3.08501">
        <ele>940.31</ele>
        <time>2020-09-04T09:53:27Z</time>
      </trkpt>
      <trkpt lat="44.82532" lon="3.08479">
        <ele>938.38</ele>
        <time>2020-09-04T09:53:42Z</time>
      </trkpt>
      <trkpt lat="44.82534" lon="3.08477">
        <ele>938.86</ele>
        <time>2020-09-04T09:53:57Z</time>
      </trkpt>
      <trkpt lat="44.82542" lon="3.08475">
        <ele>938.38</ele>
        <time>2020-09-04T09:54:12Z</time>
      </trkpt>
      <trkpt lat="44.82544" lon="3.0848">
        <ele>938.38</ele>
        <time>2020-09-04T09:54:27Z</time>
      </trkpt>
      <trkpt lat="44.82541" lon="3.08482">
        <ele>938.86</ele>
        <time>2020-09-04T09:54:42Z</time>
      </trkpt>
      <trkpt lat="44.82539" lon="3.08484">
        <ele>937.9</ele>
        <time>2020-09-04T09:54:57Z</time>
      </trkpt>
      <trkpt lat="44.82553" lon="3.08497">
        <ele>934.54</ele>
        <time>2020-09-04T09:55:12Z</time>
      </trkpt>
      <trkpt lat="44.82555" lon="3.08506">
        <ele>934.06</ele>
        <time>2020-09-04T09:55:27Z</time>
      </trkpt>
      <trkpt lat="44.82559" lon="3.08527">
        <ele>932.62</ele>
        <time>2020-09-04T09:55:42Z</time>
      </trkpt>
      <trkpt lat="44.82568" lon="3.08543">
        <ele>931.65</ele>
        <time>2020-09-04T09:55:57Z</time>
      </trkpt>
      <trkpt lat="44.82582" lon="3.08547">
        <ele>928.77</ele>
        <time>2020-09-04T09:56:12Z</time>
      </trkpt>
      <trkpt lat="44.82592" lon="3.08552">
        <ele>929.25</ele>
        <time>2020-09-04T09:56:27Z</time>
      </trkpt>
      <trkpt lat="44.82593" lon="3.08555">
        <ele>929.25</ele>
        <time>2020-09-04T09:56:42Z</time>
      </trkpt>
      <trkpt lat="44.82593" lon="3.0856">
        <ele>929.25</ele>
        <time>2020-09-04T09:56:57Z</time>
      </trkpt>
      <trkpt lat="44.82583" lon="3.08571">
        <ele>929.73</ele>
        <time>2020-09-04T09:57:12Z</time>
      </trkpt>
      <trkpt lat="44.82572" lon="3.08582">
        <ele>929.25</ele>
        <time>2020-09-04T09:57:27Z</time>
      </trkpt>
      <trkpt lat="44.82564" lon="3.08604">
        <ele>929.25</ele>
        <time>2020-09-04T09:57:42Z</time>
      </trkpt>
      <trkpt lat="44.82562" lon="3.08625">
        <ele>929.25</ele>
        <time>2020-09-04T09:57:57Z</time>
      </trkpt>
      <trkpt lat="44.82564" lon="3.08625">
        <ele>929.73</ele>
        <time>2020-09-04T09:58:12Z</time>
      </trkpt>
      <trkpt lat="44.82568" lon="3.08617">
        <ele>929.25</ele>
        <time>2020-09-04T09:58:27Z</time>
      </trkpt>
      <trkpt lat="44.8256" lon="3.08624">
        <ele>929.73</ele>
        <time>2020-09-04T09:58:42Z</time>
      </trkpt>
      <trkpt lat="44.82551" lon="3.08631">
        <ele>927.33</ele>
        <time>2020-09-04T09:58:57Z</time>
      </trkpt>
      <trkpt lat="44.82546" lon="3.08644">
        <ele>926.37</ele>
        <time>2020-09-04T09:59:12Z</time>
      </trkpt>
      <trkpt lat="44.82541" lon="3.08649">
        <ele>926.37</ele>
        <time>2020-09-04T09:59:27Z</time>
      </trkpt>
      <trkpt lat="44.82541" lon="3.08648">
        <ele>926.37</ele>
        <time>2020-09-04T09:59:42Z</time>
      </trkpt>
      <trkpt lat="44.82547" lon="3.08645">
        <ele>926.37</ele>
        <time>2020-09-04T09:59:57Z</time>
      </trkpt>
      <trkpt lat="44.82551" lon="3.08646">
        <ele>925.41</ele>
        <time>2020-09-04T10:00:12Z</time>
      </trkpt>
      <trkpt lat="44.82551" lon="3.08643">
        <ele>924.45</ele>
        <time>2020-09-04T10:00:27Z</time>
      </trkpt>
      <trkpt lat="44.8255" lon="3.08644">
        <ele>925.89</ele>
        <time>2020-09-04T10:00:42Z</time>
      </trkpt>
      <trkpt lat="44.82548" lon="3.08651">
        <ele>925.89</ele>
        <time>2020-09-04T10:00:57Z</time>
      </trkpt>
      <trkpt lat="44.82548" lon="3.08649">
        <ele>924.45</ele>
        <time>2020-09-04T10:01:12Z</time>
      </trkpt>
      <trkpt lat="44.82548" lon="3.08653">
        <ele>924.45</ele>
        <time>2020-09-04T10:01:27Z</time>
      </trkpt>
      <trkpt lat="44.82548" lon="3.08653">
        <ele>924.45</ele>
        <time>2020-09-04T10:01:42Z</time>
      </trkpt>
      <trkpt lat="44.82551" lon="3.08653">
        <ele>924.45</ele>
        <time>2020-09-04T10:01:57Z</time>
      </trkpt>
      <trkpt lat="44.82553" lon="3.08654">
        <ele>924.45</ele>
        <time>2020-09-04T10:02:12Z</time>
      </trkpt>
      <trkpt lat="44.82553" lon="3.08655">
        <ele>924.45</ele>
        <time>2020-09-04T10:02:27Z</time>
      </trkpt>
      <trkpt lat="44.82554" lon="3.08653">
        <ele>924.93</ele>
        <time>2020-09-04T10:02:42Z</time>
      </trkpt>
      <trkpt lat="44.82556" lon="3.08652">
        <ele>924.45</ele>
        <time>2020-09-04T10:02:57Z</time>
      </trkpt>
      <trkpt lat="44.82556" lon="3.0865">
        <ele>924.45</ele>
        <time>2020-09-04T10:03:12Z</time>
      </trkpt>
      <trkpt lat="44.82551" lon="3.08648">
        <ele>925.41</ele>
        <time>2020-09-04T10:03:27Z</time>
      </trkpt>
      <trkpt lat="44.8255" lon="3.08647">
        <ele>924.93</ele>
        <time>2020-09-04T10:03:42Z</time>
      </trkpt>
      <trkpt lat="44.8255" lon="3.08646">
        <ele>925.89</ele>
        <time>2020-09-04T10:03:57Z</time>
      </trkpt>
      <trkpt lat="44.82552" lon="3.08648">
        <ele>925.41</ele>
        <time>2020-09-04T10:04:12Z</time>
      </trkpt>
      <trkpt lat="44.82555" lon="3.0865">
        <ele>925.41</ele>
        <time>2020-09-04T10:04:27Z</time>
      </trkpt>
      <trkpt lat="44.82557" lon="3.08652">
        <ele>925.41</ele>
        <time>2020-09-04T10:04:42Z</time>
      </trkpt>
      <trkpt lat="44.82559" lon="3.08653">
        <ele>925.41</ele>
        <time>2020-09-04T10:04:57Z</time>
      </trkpt>
      <trkpt lat="44.82561" lon="3.08652">
        <ele>925.41</ele>
        <time>2020-09-04T10:05:12Z</time>
      </trkpt>
      <trkpt lat="44.82559" lon="3.08649">
        <ele>925.41</ele>
        <time>2020-09-04T10:05:27Z</time>
      </trkpt>
      <trkpt lat="44.82558" lon="3.08645">
        <ele>925.89</ele>
        <time>2020-09-04T10:05:42Z</time>
      </trkpt>
      <trkpt lat="44.82553" lon="3.08643">
        <ele>925.41</ele>
        <time>2020-09-04T10:05:57Z</time>
      </trkpt>
      <trkpt lat="44.82552" lon="3.08643">
        <ele>925.89</ele>
        <time>2020-09-04T10:06:12Z</time>
      </trkpt>
      <trkpt lat="44.82554" lon="3.0865">
        <ele>925.41</ele>
        <time>2020-09-04T10:06:27Z</time>
      </trkpt>
      <trkpt lat="44.82556" lon="3.08653">
        <ele>925.41</ele>
        <time>2020-09-04T10:06:42Z</time>
      </trkpt>
      <trkpt lat="44.82555" lon="3.08652">
        <ele>925.41</ele>
        <time>2020-09-04T10:06:57Z</time>
      </trkpt>
      <trkpt lat="44.82554" lon="3.08651">
        <ele>926.37</ele>
        <time>2020-09-04T10:07:12Z</time>
      </trkpt>
      <trkpt lat="44.82553" lon="3.08653">
        <ele>925.89</ele>
        <time>2020-09-04T10:07:27Z</time>
      </trkpt>
      <trkpt lat="44.82551" lon="3.08651">
        <ele>925.89</ele>
        <time>2020-09-04T10:07:42Z</time>
      </trkpt>
      <trkpt lat="44.8255" lon="3.08651">
        <ele>926.37</ele>
        <time>2020-09-04T10:07:57Z</time>
      </trkpt>
      <trkpt lat="44.82549" lon="3.08652">
        <ele>926.85</ele>
        <time>2020-09-04T10:08:12Z</time>
      </trkpt>
      <trkpt lat="44.8255" lon="3.08653">
        <ele>926.37</ele>
        <time>2020-09-04T10:08:27Z</time>
      </trkpt>
      <trkpt lat="44.82551" lon="3.08654">
        <ele>926.37</ele>
        <time>2020-09-04T10:08:42Z</time>
      </trkpt>
      <trkpt lat="44.8255" lon="3.08652">
        <ele>926.37</ele>
        <time>2020-09-04T10:08:57Z</time>
      </trkpt>
      <trkpt lat="44.8255" lon="3.08654">
        <ele>926.37</ele>
        <time>2020-09-04T10:09:12Z</time>
      </trkpt>
      <trkpt lat="44.82549" lon="3.08652">
        <ele>926.37</ele>
        <time>2020-09-04T10:09:27Z</time>
      </trkpt>
      <trkpt lat="44.82546" lon="3.08648">
        <ele>926.37</ele>
        <time>2020-09-04T10:09:42Z</time>
      </trkpt>
      <trkpt lat="44.82544" lon="3.08648">
        <ele>926.37</ele>
        <time>2020-09-04T10:09:57Z</time>
      </trkpt>
      <trkpt lat="44.82546" lon="3.08648">
        <ele>926.37</ele>
        <time>2020-09-04T10:10:12Z</time>
      </trkpt>
      <trkpt lat="44.82547" lon="3.08648">
        <ele>926.37</ele>
        <time>2020-09-04T10:10:27Z</time>
      </trkpt>
      <trkpt lat="44.82547" lon="3.08648">
        <ele>926.85</ele>
        <time>2020-09-04T10:10:42Z</time>
      </trkpt>
      <trkpt lat="44.82553" lon="3.08649">
        <ele>926.37</ele>
        <time>2020-09-04T10:10:57Z</time>
      </trkpt>
      <trkpt lat="44.82552" lon="3.0865">
        <ele>926.37</ele>
        <time>2020-09-04T10:11:12Z</time>
      </trkpt>
      <trkpt lat="44.82548" lon="3.08647">
        <ele>926.85</ele>
        <time>2020-09-04T10:11:27Z</time>
      </trkpt>
      <trkpt lat="44.82549" lon="3.08648">
        <ele>926.85</ele>
        <time>2020-09-04T10:11:42Z</time>
      </trkpt>
      <trkpt lat="44.82549" lon="3.08651">
        <ele>926.37</ele>
        <time>2020-09-04T10:11:57Z</time>
      </trkpt>
      <trkpt lat="44.82547" lon="3.08649">
        <ele>926.37</ele>
        <time>2020-09-04T10:12:12Z</time>
      </trkpt>
      <trkpt lat="44.82546" lon="3.08649">
        <ele>926.37</ele>
        <time>2020-09-04T10:12:27Z</time>
      </trkpt>
      <trkpt lat="44.82547" lon="3.08648">
        <ele>926.37</ele>
        <time>2020-09-04T10:12:42Z</time>
      </trkpt>
      <trkpt lat="44.82545" lon="3.08647">
        <ele>926.37</ele>
        <time>2020-09-04T10:12:57Z</time>
      </trkpt>
      <trkpt lat="44.82546" lon="3.08647">
        <ele>926.37</ele>
        <time>2020-09-04T10:13:12Z</time>
      </trkpt>
      <trkpt lat="44.82549" lon="3.08649">
        <ele>925.89</ele>
        <time>2020-09-04T10:13:27Z</time>
      </trkpt>
      <trkpt lat="44.8255" lon="3.08653">
        <ele>925.89</ele>
        <time>2020-09-04T10:13:42Z</time>
      </trkpt>
      <trkpt lat="44.82547" lon="3.08651">
        <ele>925.89</ele>
        <time>2020-09-04T10:13:57Z</time>
      </trkpt>
      <trkpt lat="44.82547" lon="3.0865">
        <ele>925.89</ele>
        <time>2020-09-04T10:14:12Z</time>
      </trkpt>
      <trkpt lat="44.82549" lon="3.0865">
        <ele>925.89</ele>
        <time>2020-09-04T10:14:27Z</time>
      </trkpt>
      <trkpt lat="44.8255" lon="3.0865">
        <ele>926.37</ele>
        <time>2020-09-04T10:14:42Z</time>
      </trkpt>
      <trkpt lat="44.82549" lon="3.0865">
        <ele>925.89</ele>
        <time>2020-09-04T10:14:57Z</time>
      </trkpt>
      <trkpt lat="44.8255" lon="3.0865">
        <ele>925.89</ele>
        <time>2020-09-04T10:15:12Z</time>
      </trkpt>
      <trkpt lat="44.82551" lon="3.0865">
        <ele>925.89</ele>
        <time>2020-09-04T10:15:27Z</time>
      </trkpt>
      <trkpt lat="44.82551" lon="3.0865">
        <ele>926.37</ele>
        <time>2020-09-04T10:15:42Z</time>
      </trkpt>
      <trkpt lat="44.82552" lon="3.08648">
        <ele>925.89</ele>
        <time>2020-09-04T10:15:57Z</time>
      </trkpt>
      <trkpt lat="44.82552" lon="3.08648">
        <ele>926.37</ele>
        <time>2020-09-04T10:16:12Z</time>
      </trkpt>
      <trkpt lat="44.82553" lon="3.08648">
        <ele>925.89</ele>
        <time>2020-09-04T10:16:27Z</time>
      </trkpt>
      <trkpt lat="44.82552" lon="3.08648">
        <ele>925.89</ele>
        <time>2020-09-04T10:16:42Z</time>
      </trkpt>
      <trkpt lat="44.82551" lon="3.08648">
        <ele>925.89</ele>
        <time>2020-09-04T10:16:57Z</time>
      </trkpt>
      <trkpt lat="44.82552" lon="3.08649">
        <ele>925.89</ele>
        <time>2020-09-04T10:17:12Z</time>
      </trkpt>
      <trkpt lat="44.82554" lon="3.08651">
        <ele>925.89</ele>
        <time>2020-09-04T10:17:27Z</time>
      </trkpt>
      <trkpt lat="44.82551" lon="3.08652">
        <ele>925.89</ele>
        <time>2020-09-04T10:17:42Z</time>
      </trkpt>
      <trkpt lat="44.82549" lon="3.08653">
        <ele>926.37</ele>
        <time>2020-09-04T10:17:57Z</time>
      </trkpt>
      <trkpt lat="44.82549" lon="3.08652">
        <ele>925.89</ele>
        <time>2020-09-04T10:18:12Z</time>
      </trkpt>
      <trkpt lat="44.82551" lon="3.08646">
        <ele>925.89</ele>
        <time>2020-09-04T10:18:27Z</time>
      </trkpt>
      <trkpt lat="44.82549" lon="3.08647">
        <ele>926.37</ele>
        <time>2020-09-04T10:18:42Z</time>
      </trkpt>
      <trkpt lat="44.82546" lon="3.08646">
        <ele>925.89</ele>
        <time>2020-09-04T10:18:57Z</time>
      </trkpt>
      <trkpt lat="44.82547" lon="3.08648">
        <ele>925.41</ele>
        <time>2020-09-04T10:19:12Z</time>
      </trkpt>
      <trkpt lat="44.82549" lon="3.0865">
        <ele>925.89</ele>
        <time>2020-09-04T10:19:27Z</time>
      </trkpt>
      <trkpt lat="44.82551" lon="3.08646">
        <ele>925.89</ele>
        <time>2020-09-04T10:19:42Z</time>
      </trkpt>
      <trkpt lat="44.82554" lon="3.08643">
        <ele>925.41</ele>
        <time>2020-09-04T10:19:57Z</time>
      </trkpt>
      <trkpt lat="44.82553" lon="3.08644">
        <ele>925.41</ele>
        <time>2020-09-04T10:20:12Z</time>
      </trkpt>
      <trkpt lat="44.82552" lon="3.08643">
        <ele>925.89</ele>
        <time>2020-09-04T10:20:27Z</time>
      </trkpt>
      <trkpt lat="44.82552" lon="3.08643">
        <ele>925.41</ele>
        <time>2020-09-04T10:20:42Z</time>
      </trkpt>
      <trkpt lat="44.82551" lon="3.08644">
        <ele>925.89</ele>
        <time>2020-09-04T10:20:57Z</time>
      </trkpt>
      <trkpt lat="44.8255" lon="3.08647">
        <ele>925.89</ele>
        <time>2020-09-04T10:21:12Z</time>
      </trkpt>
      <trkpt lat="44.8255" lon="3.08648">
        <ele>926.37</ele>
        <time>2020-09-04T10:21:27Z</time>
      </trkpt>
      <trkpt lat="44.82551" lon="3.0865">
        <ele>925.89</ele>
        <time>2020-09-04T10:21:42Z</time>
      </trkpt>
      <trkpt lat="44.82551" lon="3.08649">
        <ele>926.37</ele>
        <time>2020-09-04T10:21:57Z</time>
      </trkpt>
      <trkpt lat="44.82551" lon="3.08648">
        <ele>925.41</ele>
        <time>2020-09-04T10:22:12Z</time>
      </trkpt>
      <trkpt lat="44.82552" lon="3.08646">
        <ele>926.37</ele>
        <time>2020-09-04T10:22:27Z</time>
      </trkpt>
      <trkpt lat="44.82552" lon="3.08646">
        <ele>925.41</ele>
        <time>2020-09-04T10:22:42Z</time>
      </trkpt>
      <trkpt lat="44.82551" lon="3.08645">
        <ele>926.37</ele>
        <time>2020-09-04T10:22:57Z</time>
      </trkpt>
      <trkpt lat="44.82551" lon="3.08645">
        <ele>925.41</ele>
        <time>2020-09-04T10:23:12Z</time>
      </trkpt>
      <trkpt lat="44.82554" lon="3.08647">
        <ele>925.89</ele>
        <time>2020-09-04T10:23:27Z</time>
      </trkpt>
      <trkpt lat="44.82552" lon="3.08645">
        <ele>925.89</ele>
        <time>2020-09-04T10:23:42Z</time>
      </trkpt>
      <trkpt lat="44.82551" lon="3.08644">
        <ele>925.89</ele>
        <time>2020-09-04T10:23:57Z</time>
      </trkpt>
      <trkpt lat="44.8255" lon="3.08644">
        <ele>925.89</ele>
        <time>2020-09-04T10:24:12Z</time>
      </trkpt>
      <trkpt lat="44.82549" lon="3.08643">
        <ele>926.37</ele>
        <time>2020-09-04T10:24:27Z</time>
      </trkpt>
      <trkpt lat="44.82547" lon="3.08648">
        <ele>926.37</ele>
        <time>2020-09-04T10:24:42Z</time>
      </trkpt>
      <trkpt lat="44.82548" lon="3.0865">
        <ele>926.37</ele>
        <time>2020-09-04T10:24:57Z</time>
      </trkpt>
      <trkpt lat="44.82547" lon="3.08652">
        <ele>926.37</ele>
        <time>2020-09-04T10:25:12Z</time>
      </trkpt>
      <trkpt lat="44.82549" lon="3.08654">
        <ele>926.37</ele>
        <time>2020-09-04T10:25:27Z</time>
      </trkpt>
      <trkpt lat="44.82549" lon="3.08652">
        <ele>926.37</ele>
        <time>2020-09-04T10:25:42Z</time>
      </trkpt>
      <trkpt lat="44.8255" lon="3.08649">
        <ele>926.37</ele>
        <time>2020-09-04T10:25:57Z</time>
      </trkpt>
      <trkpt lat="44.82551" lon="3.08649">
        <ele>926.37</ele>
        <time>2020-09-04T10:26:12Z</time>
      </trkpt>
      <trkpt lat="44.82551" lon="3.08649">
        <ele>926.37</ele>
        <time>2020-09-04T10:26:27Z</time>
      </trkpt>
      <trkpt lat="44.8255" lon="3.08651">
        <ele>926.37</ele>
        <time>2020-09-04T10:26:42Z</time>
      </trkpt>
      <trkpt lat="44.82551" lon="3.08651">
        <ele>925.89</ele>
        <time>2020-09-04T10:26:57Z</time>
      </trkpt>
      <trkpt lat="44.82552" lon="3.08651">
        <ele>925.89</ele>
        <time>2020-09-04T10:27:12Z</time>
      </trkpt>
      <trkpt lat="44.82553" lon="3.08648">
        <ele>926.37</ele>
        <time>2020-09-04T10:27:27Z</time>
      </trkpt>
      <trkpt lat="44.82554" lon="3.08646">
        <ele>926.37</ele>
        <time>2020-09-04T10:27:42Z</time>
      </trkpt>
      <trkpt lat="44.82554" lon="3.08643">
        <ele>926.85</ele>
        <time>2020-09-04T10:27:57Z</time>
      </trkpt>
      <trkpt lat="44.82553" lon="3.08644">
        <ele>926.37</ele>
        <time>2020-09-04T10:28:12Z</time>
      </trkpt>
      <trkpt lat="44.8255" lon="3.08641">
        <ele>927.81</ele>
        <time>2020-09-04T10:28:27Z</time>
      </trkpt>
      <trkpt lat="44.8255" lon="3.0864">
        <ele>928.29</ele>
        <time>2020-09-04T10:28:42Z</time>
      </trkpt>
      <trkpt lat="44.82552" lon="3.08638">
        <ele>927.81</ele>
        <time>2020-09-04T10:28:57Z</time>
      </trkpt>
      <trkpt lat="44.8255" lon="3.08638">
        <ele>928.29</ele>
        <time>2020-09-04T10:29:12Z</time>
      </trkpt>
      <trkpt lat="44.8255" lon="3.08636">
        <ele>928.29</ele>
        <time>2020-09-04T10:29:27Z</time>
      </trkpt>
      <trkpt lat="44.82549" lon="3.08634">
        <ele>928.29</ele>
        <time>2020-09-04T10:29:42Z</time>
      </trkpt>
      <trkpt lat="44.82547" lon="3.08631">
        <ele>928.29</ele>
        <time>2020-09-04T10:29:57Z</time>
      </trkpt>
      <trkpt lat="44.82548" lon="3.0863">
        <ele>928.77</ele>
        <time>2020-09-04T10:30:12Z</time>
      </trkpt>
      <trkpt lat="44.82549" lon="3.08634">
        <ele>928.29</ele>
        <time>2020-09-04T10:30:27Z</time>
      </trkpt>
      <trkpt lat="44.82547" lon="3.08638">
        <ele>928.29</ele>
        <time>2020-09-04T10:30:42Z</time>
      </trkpt>
      <trkpt lat="44.82546" lon="3.08639">
        <ele>928.77</ele>
        <time>2020-09-04T10:30:57Z</time>
      </trkpt>
      <trkpt lat="44.82548" lon="3.08642">
        <ele>928.77</ele>
        <time>2020-09-04T10:31:12Z</time>
      </trkpt>
      <trkpt lat="44.8255" lon="3.0864">
        <ele>928.77</ele>
        <time>2020-09-04T10:31:27Z</time>
      </trkpt>
      <trkpt lat="44.8255" lon="3.08639">
        <ele>929.25</ele>
        <time>2020-09-04T10:31:42Z</time>
      </trkpt>
      <trkpt lat="44.82551" lon="3.0864">
        <ele>929.25</ele>
        <time>2020-09-04T10:31:57Z</time>
      </trkpt>
      <trkpt lat="44.8255" lon="3.08641">
        <ele>929.25</ele>
        <time>2020-09-04T10:32:12Z</time>
      </trkpt>
      <trkpt lat="44.82553" lon="3.08641">
        <ele>929.25</ele>
        <time>2020-09-04T10:32:27Z</time>
      </trkpt>
      <trkpt lat="44.82554" lon="3.08646">
        <ele>930.21</ele>
        <time>2020-09-04T10:32:42Z</time>
      </trkpt>
      <trkpt lat="44.82548" lon="3.08649">
        <ele>930.21</ele>
        <time>2020-09-04T10:32:57Z</time>
      </trkpt>
      <trkpt lat="44.82551" lon="3.08632">
        <ele>930.69</ele>
        <time>2020-09-04T10:33:12Z</time>
      </trkpt>
      <trkpt lat="44.82554" lon="3.08623">
        <ele>932.14</ele>
        <time>2020-09-04T10:33:27Z</time>
      </trkpt>
      <trkpt lat="44.82561" lon="3.08612">
        <ele>932.62</ele>
        <time>2020-09-04T10:33:42Z</time>
      </trkpt>
      <trkpt lat="44.82564" lon="3.08603">
        <ele>932.14</ele>
        <time>2020-09-04T10:33:57Z</time>
      </trkpt>
      <trkpt lat="44.8257" lon="3.08583">
        <ele>932.62</ele>
        <time>2020-09-04T10:34:12Z</time>
      </trkpt>
      <trkpt lat="44.82576" lon="3.08564">
        <ele>933.1</ele>
        <time>2020-09-04T10:34:27Z</time>
      </trkpt>
      <trkpt lat="44.82583" lon="3.08548">
        <ele>932.62</ele>
        <time>2020-09-04T10:34:42Z</time>
      </trkpt>
      <trkpt lat="44.82574" lon="3.08569">
        <ele>932.14</ele>
        <time>2020-09-04T10:34:57Z</time>
      </trkpt>
      <trkpt lat="44.82566" lon="3.08557">
        <ele>934.06</ele>
        <time>2020-09-04T10:35:12Z</time>
      </trkpt>
      <trkpt lat="44.82561" lon="3.08537">
        <ele>934.54</ele>
        <time>2020-09-04T10:35:27Z</time>
      </trkpt>
      <trkpt lat="44.82552" lon="3.08519">
        <ele>935.5</ele>
        <time>2020-09-04T10:35:42Z</time>
      </trkpt>
      <trkpt lat="44.82552" lon="3.08505">
        <ele>936.46</ele>
        <time>2020-09-04T10:35:57Z</time>
      </trkpt>
      <trkpt lat="44.82545" lon="3.08489">
        <ele>937.9</ele>
        <time>2020-09-04T10:36:12Z</time>
      </trkpt>
      <trkpt lat="44.82533" lon="3.08483">
        <ele>940.31</ele>
        <time>2020-09-04T10:36:27Z</time>
      </trkpt>
      <trkpt lat="44.82533" lon="3.08476">
        <ele>941.27</ele>
        <time>2020-09-04T10:36:42Z</time>
      </trkpt>
      <trkpt lat="44.8254" lon="3.08474">
        <ele>941.75</ele>
        <time>2020-09-04T10:36:57Z</time>
      </trkpt>
      <trkpt lat="44.8253" lon="3.08481">
        <ele>941.27</ele>
        <time>2020-09-04T10:37:12Z</time>
      </trkpt>
      <trkpt lat="44.82533" lon="3.08505">
        <ele>942.23</ele>
        <time>2020-09-04T10:37:27Z</time>
      </trkpt>
      <trkpt lat="44.82537" lon="3.08529">
        <ele>943.19</ele>
        <time>2020-09-04T10:37:42Z</time>
      </trkpt>
      <trkpt lat="44.82542" lon="3.08552">
        <ele>945.59</ele>
        <time>2020-09-04T10:37:57Z</time>
      </trkpt>
      <trkpt lat="44.82542" lon="3.08573">
        <ele>946.07</ele>
        <time>2020-09-04T10:38:12Z</time>
      </trkpt>
      <trkpt lat="44.82537" lon="3.08597">
        <ele>947.04</ele>
        <time>2020-09-04T10:38:27Z</time>
      </trkpt>
      <trkpt lat="44.82529" lon="3.08618">
        <ele>948</ele>
        <time>2020-09-04T10:38:42Z</time>
      </trkpt>
      <trkpt lat="44.82524" lon="3.08638">
        <ele>948.96</ele>
        <time>2020-09-04T10:38:57Z</time>
      </trkpt>
      <trkpt lat="44.82516" lon="3.08658">
        <ele>950.4</ele>
        <time>2020-09-04T10:39:12Z</time>
      </trkpt>
      <trkpt lat="44.82505" lon="3.08675">
        <ele>951.36</ele>
        <time>2020-09-04T10:39:27Z</time>
      </trkpt>
      <trkpt lat="44.82492" lon="3.08692">
        <ele>951.36</ele>
        <time>2020-09-04T10:39:42Z</time>
      </trkpt>
      <trkpt lat="44.82484" lon="3.08713">
        <ele>952.8</ele>
        <time>2020-09-04T10:39:57Z</time>
      </trkpt>
      <trkpt lat="44.82483" lon="3.08735">
        <ele>953.77</ele>
        <time>2020-09-04T10:40:12Z</time>
      </trkpt>
      <trkpt lat="44.82484" lon="3.08756">
        <ele>954.73</ele>
        <time>2020-09-04T10:40:27Z</time>
      </trkpt>
      <trkpt lat="44.82484" lon="3.08779">
        <ele>955.69</ele>
        <time>2020-09-04T10:40:42Z</time>
      </trkpt>
      <trkpt lat="44.82482" lon="3.08802">
        <ele>957.13</ele>
        <time>2020-09-04T10:40:57Z</time>
      </trkpt>
      <trkpt lat="44.82476" lon="3.08824">
        <ele>957.61</ele>
        <time>2020-09-04T10:41:12Z</time>
      </trkpt>
      <trkpt lat="44.82467" lon="3.08845">
        <ele>957.61</ele>
        <time>2020-09-04T10:41:27Z</time>
      </trkpt>
      <trkpt lat="44.82456" lon="3.08866">
        <ele>956.65</ele>
        <time>2020-09-04T10:41:42Z</time>
      </trkpt>
      <trkpt lat="44.82444" lon="3.08883">
        <ele>956.65</ele>
        <time>2020-09-04T10:41:57Z</time>
      </trkpt>
      <trkpt lat="44.82433" lon="3.08902">
        <ele>956.65</ele>
        <time>2020-09-04T10:42:12Z</time>
      </trkpt>
      <trkpt lat="44.82424" lon="3.08923">
        <ele>956.17</ele>
        <time>2020-09-04T10:42:27Z</time>
      </trkpt>
      <trkpt lat="44.82417" lon="3.08946">
        <ele>957.13</ele>
        <time>2020-09-04T10:42:42Z</time>
      </trkpt>
      <trkpt lat="44.82411" lon="3.08969">
        <ele>957.13</ele>
        <time>2020-09-04T10:42:57Z</time>
      </trkpt>
      <trkpt lat="44.82407" lon="3.08994">
        <ele>957.61</ele>
        <time>2020-09-04T10:43:12Z</time>
      </trkpt>
      <trkpt lat="44.82407" lon="3.09018">
        <ele>958.09</ele>
        <time>2020-09-04T10:43:27Z</time>
      </trkpt>
      <trkpt lat="44.82409" lon="3.09043">
        <ele>958.57</ele>
        <time>2020-09-04T10:43:42Z</time>
      </trkpt>
      <trkpt lat="44.8241" lon="3.09068">
        <ele>959.53</ele>
        <time>2020-09-04T10:43:57Z</time>
      </trkpt>
      <trkpt lat="44.8241" lon="3.09085">
        <ele>960.01</ele>
        <time>2020-09-04T10:44:12Z</time>
      </trkpt>
      <trkpt lat="44.82408" lon="3.0911">
        <ele>961.46</ele>
        <time>2020-09-04T10:44:27Z</time>
      </trkpt>
      <trkpt lat="44.82404" lon="3.09132">
        <ele>962.42</ele>
        <time>2020-09-04T10:44:42Z</time>
      </trkpt>
      <trkpt lat="44.82397" lon="3.09154">
        <ele>963.86</ele>
        <time>2020-09-04T10:44:57Z</time>
      </trkpt>
      <trkpt lat="44.82391" lon="3.09175">
        <ele>965.3</ele>
        <time>2020-09-04T10:45:12Z</time>
      </trkpt>
      <trkpt lat="44.82383" lon="3.09194">
        <ele>966.74</ele>
        <time>2020-09-04T10:45:27Z</time>
      </trkpt>
      <trkpt lat="44.82378" lon="3.09214">
        <ele>968.67</ele>
        <time>2020-09-04T10:45:42Z</time>
      </trkpt>
      <trkpt lat="44.82394" lon="3.09217">
        <ele>967.22</ele>
        <time>2020-09-04T10:45:57Z</time>
      </trkpt>
      <trkpt lat="44.82412" lon="3.09212">
        <ele>966.74</ele>
        <time>2020-09-04T10:46:12Z</time>
      </trkpt>
      <trkpt lat="44.82427" lon="3.09202">
        <ele>965.3</ele>
        <time>2020-09-04T10:46:27Z</time>
      </trkpt>
      <trkpt lat="44.82444" lon="3.09202">
        <ele>965.3</ele>
        <time>2020-09-04T10:46:42Z</time>
      </trkpt>
      <trkpt lat="44.82462" lon="3.09207">
        <ele>964.82</ele>
        <time>2020-09-04T10:46:57Z</time>
      </trkpt>
      <trkpt lat="44.82476" lon="3.09217">
        <ele>965.3</ele>
        <time>2020-09-04T10:47:12Z</time>
      </trkpt>
      <trkpt lat="44.8249" lon="3.09231">
        <ele>966.74</ele>
        <time>2020-09-04T10:47:27Z</time>
      </trkpt>
      <trkpt lat="44.82501" lon="3.0925">
        <ele>967.22</ele>
        <time>2020-09-04T10:47:42Z</time>
      </trkpt>
      <trkpt lat="44.82511" lon="3.09271">
        <ele>967.22</ele>
        <time>2020-09-04T10:47:57Z</time>
      </trkpt>
      <trkpt lat="44.82519" lon="3.09293">
        <ele>968.18</ele>
        <time>2020-09-04T10:48:12Z</time>
      </trkpt>
      <trkpt lat="44.82525" lon="3.09313">
        <ele>967.7</ele>
        <time>2020-09-04T10:48:27Z</time>
      </trkpt>
      <trkpt lat="44.82529" lon="3.09335">
        <ele>968.18</ele>
        <time>2020-09-04T10:48:42Z</time>
      </trkpt>
      <trkpt lat="44.8253" lon="3.09359">
        <ele>968.18</ele>
        <time>2020-09-04T10:48:57Z</time>
      </trkpt>
      <trkpt lat="44.82533" lon="3.09382">
        <ele>967.22</ele>
        <time>2020-09-04T10:49:12Z</time>
      </trkpt>
      <trkpt lat="44.82536" lon="3.09407">
        <ele>966.74</ele>
        <time>2020-09-04T10:49:27Z</time>
      </trkpt>
      <trkpt lat="44.82536" lon="3.09435">
        <ele>966.74</ele>
        <time>2020-09-04T10:49:42Z</time>
      </trkpt>
      <trkpt lat="44.82533" lon="3.0946">
        <ele>966.74</ele>
        <time>2020-09-04T10:49:57Z</time>
      </trkpt>
      <trkpt lat="44.8253" lon="3.09484">
        <ele>966.26</ele>
        <time>2020-09-04T10:50:12Z</time>
      </trkpt>
      <trkpt lat="44.82526" lon="3.09506">
        <ele>965.78</ele>
        <time>2020-09-04T10:50:27Z</time>
      </trkpt>
      <trkpt lat="44.82522" lon="3.0953">
        <ele>966.26</ele>
        <time>2020-09-04T10:50:42Z</time>
      </trkpt>
      <trkpt lat="44.82524" lon="3.09554">
        <ele>965.78</ele>
        <time>2020-09-04T10:50:57Z</time>
      </trkpt>
      <trkpt lat="44.82524" lon="3.09575">
        <ele>963.86</ele>
        <time>2020-09-04T10:51:12Z</time>
      </trkpt>
      <trkpt lat="44.82519" lon="3.096">
        <ele>962.42</ele>
        <time>2020-09-04T10:51:27Z</time>
      </trkpt>
      <trkpt lat="44.8251" lon="3.09622">
        <ele>961.46</ele>
        <time>2020-09-04T10:51:42Z</time>
      </trkpt>
      <trkpt lat="44.8251" lon="3.09624">
        <ele>961.46</ele>
        <time>2020-09-04T10:51:57Z</time>
      </trkpt>
      <trkpt lat="44.82512" lon="3.09643">
        <ele>960.49</ele>
        <time>2020-09-04T10:52:12Z</time>
      </trkpt>
      <trkpt lat="44.82515" lon="3.09656">
        <ele>960.49</ele>
        <time>2020-09-04T10:52:27Z</time>
      </trkpt>
      <trkpt lat="44.82518" lon="3.09679">
        <ele>960.01</ele>
        <time>2020-09-04T10:52:42Z</time>
      </trkpt>
      <trkpt lat="44.8253" lon="3.09696">
        <ele>959.53</ele>
        <time>2020-09-04T10:52:57Z</time>
      </trkpt>
      <trkpt lat="44.82543" lon="3.09712">
        <ele>960.01</ele>
        <time>2020-09-04T10:53:12Z</time>
      </trkpt>
      <trkpt lat="44.82556" lon="3.09726">
        <ele>959.53</ele>
        <time>2020-09-04T10:53:27Z</time>
      </trkpt>
      <trkpt lat="44.82569" lon="3.09734">
        <ele>960.98</ele>
        <time>2020-09-04T10:53:42Z</time>
      </trkpt>
      <trkpt lat="44.82584" lon="3.09745">
        <ele>961.46</ele>
        <time>2020-09-04T10:53:57Z</time>
      </trkpt>
      <trkpt lat="44.82594" lon="3.09759">
        <ele>961.94</ele>
        <time>2020-09-04T10:54:12Z</time>
      </trkpt>
      <trkpt lat="44.82606" lon="3.09779">
        <ele>962.9</ele>
        <time>2020-09-04T10:54:27Z</time>
      </trkpt>
      <trkpt lat="44.82617" lon="3.09798">
        <ele>963.38</ele>
        <time>2020-09-04T10:54:42Z</time>
      </trkpt>
      <trkpt lat="44.82623" lon="3.09817">
        <ele>964.82</ele>
        <time>2020-09-04T10:54:57Z</time>
      </trkpt>
      <trkpt lat="44.82623" lon="3.09837">
        <ele>966.26</ele>
        <time>2020-09-04T10:55:12Z</time>
      </trkpt>
      <trkpt lat="44.82624" lon="3.09857">
        <ele>968.18</ele>
        <time>2020-09-04T10:55:27Z</time>
      </trkpt>
      <trkpt lat="44.82626" lon="3.09879">
        <ele>968.67</ele>
        <time>2020-09-04T10:55:42Z</time>
      </trkpt>
      <trkpt lat="44.82624" lon="3.09899">
        <ele>969.15</ele>
        <time>2020-09-04T10:55:57Z</time>
      </trkpt>
      <trkpt lat="44.82623" lon="3.09924">
        <ele>969.63</ele>
        <time>2020-09-04T10:56:12Z</time>
      </trkpt>
      <trkpt lat="44.82621" lon="3.09948">
        <ele>970.11</ele>
        <time>2020-09-04T10:56:27Z</time>
      </trkpt>
      <trkpt lat="44.82618" lon="3.09969">
        <ele>971.07</ele>
        <time>2020-09-04T10:56:42Z</time>
      </trkpt>
      <trkpt lat="44.82612" lon="3.09988">
        <ele>972.51</ele>
        <time>2020-09-04T10:56:57Z</time>
      </trkpt>
      <trkpt lat="44.82606" lon="3.09995">
        <ele>973.47</ele>
        <time>2020-09-04T10:57:12Z</time>
      </trkpt>
      <trkpt lat="44.82606" lon="3.10004">
        <ele>974.43</ele>
        <time>2020-09-04T10:57:27Z</time>
      </trkpt>
      <trkpt lat="44.82607" lon="3.10025">
        <ele>975.88</ele>
        <time>2020-09-04T10:57:42Z</time>
      </trkpt>
      <trkpt lat="44.8261" lon="3.10047">
        <ele>976.36</ele>
        <time>2020-09-04T10:57:57Z</time>
      </trkpt>
      <trkpt lat="44.82611" lon="3.10064">
        <ele>976.84</ele>
        <time>2020-09-04T10:58:12Z</time>
      </trkpt>
      <trkpt lat="44.82616" lon="3.10081">
        <ele>976.84</ele>
        <time>2020-09-04T10:58:27Z</time>
      </trkpt>
      <trkpt lat="44.82619" lon="3.10092">
        <ele>977.32</ele>
        <time>2020-09-04T10:58:42Z</time>
      </trkpt>
      <trkpt lat="44.82631" lon="3.10111">
        <ele>977.8</ele>
        <time>2020-09-04T10:58:57Z</time>
      </trkpt>
      <trkpt lat="44.82642" lon="3.1013">
        <ele>978.28</ele>
        <time>2020-09-04T10:59:12Z</time>
      </trkpt>
      <trkpt lat="44.82654" lon="3.10149">
        <ele>975.88</ele>
        <time>2020-09-04T10:59:27Z</time>
      </trkpt>
      <trkpt lat="44.8266" lon="3.10175">
        <ele>974.91</ele>
        <time>2020-09-04T10:59:42Z</time>
      </trkpt>
      <trkpt lat="44.82666" lon="3.10199">
        <ele>973.47</ele>
        <time>2020-09-04T10:59:57Z</time>
      </trkpt>
      <trkpt lat="44.82677" lon="3.10215">
        <ele>973.47</ele>
        <time>2020-09-04T11:00:12Z</time>
      </trkpt>
      <trkpt lat="44.82693" lon="3.10234">
        <ele>972.99</ele>
        <time>2020-09-04T11:00:27Z</time>
      </trkpt>
      <trkpt lat="44.82707" lon="3.10253">
        <ele>972.51</ele>
        <time>2020-09-04T11:00:42Z</time>
      </trkpt>
      <trkpt lat="44.82716" lon="3.10276">
        <ele>971.07</ele>
        <time>2020-09-04T11:00:57Z</time>
      </trkpt>
      <trkpt lat="44.82729" lon="3.10297">
        <ele>968.67</ele>
        <time>2020-09-04T11:01:12Z</time>
      </trkpt>
      <trkpt lat="44.82737" lon="3.10321">
        <ele>966.74</ele>
        <time>2020-09-04T11:01:27Z</time>
      </trkpt>
      <trkpt lat="44.82742" lon="3.10346">
        <ele>965.78</ele>
        <time>2020-09-04T11:01:42Z</time>
      </trkpt>
      <trkpt lat="44.82748" lon="3.1037">
        <ele>963.86</ele>
        <time>2020-09-04T11:01:57Z</time>
      </trkpt>
      <trkpt lat="44.82756" lon="3.1039">
        <ele>963.38</ele>
        <time>2020-09-04T11:02:12Z</time>
      </trkpt>
      <trkpt lat="44.82766" lon="3.10405">
        <ele>961.94</ele>
        <time>2020-09-04T11:02:27Z</time>
      </trkpt>
      <trkpt lat="44.82783" lon="3.10423">
        <ele>960.98</ele>
        <time>2020-09-04T11:02:42Z</time>
      </trkpt>
      <trkpt lat="44.8279" lon="3.10445">
        <ele>959.05</ele>
        <time>2020-09-04T11:02:57Z</time>
      </trkpt>
      <trkpt lat="44.82789" lon="3.10472">
        <ele>958.57</ele>
        <time>2020-09-04T11:03:12Z</time>
      </trkpt>
      <trkpt lat="44.82788" lon="3.10498">
        <ele>957.13</ele>
        <time>2020-09-04T11:03:27Z</time>
      </trkpt>
      <trkpt lat="44.82787" lon="3.10526">
        <ele>956.65</ele>
        <time>2020-09-04T11:03:42Z</time>
      </trkpt>
      <trkpt lat="44.82786" lon="3.10549">
        <ele>956.17</ele>
        <time>2020-09-04T11:03:57Z</time>
      </trkpt>
      <trkpt lat="44.82785" lon="3.10574">
        <ele>954.73</ele>
        <time>2020-09-04T11:04:12Z</time>
      </trkpt>
      <trkpt lat="44.82785" lon="3.10583">
        <ele>954.73</ele>
        <time>2020-09-04T11:04:27Z</time>
      </trkpt>
      <trkpt lat="44.82783" lon="3.10591">
        <ele>954.73</ele>
        <time>2020-09-04T11:04:42Z</time>
      </trkpt>
      <trkpt lat="44.82785" lon="3.106">
        <ele>953.77</ele>
        <time>2020-09-04T11:04:57Z</time>
      </trkpt>
      <trkpt lat="44.82798" lon="3.10613">
        <ele>951.84</ele>
        <time>2020-09-04T11:05:12Z</time>
      </trkpt>
      <trkpt lat="44.82807" lon="3.1063">
        <ele>950.4</ele>
        <time>2020-09-04T11:05:27Z</time>
      </trkpt>
      <trkpt lat="44.82811" lon="3.10632">
        <ele>950.4</ele>
        <time>2020-09-04T11:05:42Z</time>
      </trkpt>
      <trkpt lat="44.82809" lon="3.10632">
        <ele>949.92</ele>
        <time>2020-09-04T11:05:57Z</time>
      </trkpt>
      <trkpt lat="44.82819" lon="3.10646">
        <ele>949.92</ele>
        <time>2020-09-04T11:06:12Z</time>
      </trkpt>
      <trkpt lat="44.82821" lon="3.10631">
        <ele>948.48</ele>
        <time>2020-09-04T11:06:27Z</time>
      </trkpt>
      <trkpt lat="44.82828" lon="3.10615">
        <ele>945.59</ele>
        <time>2020-09-04T11:06:42Z</time>
      </trkpt>
      <trkpt lat="44.82838" lon="3.10623">
        <ele>943.19</ele>
        <time>2020-09-04T11:06:57Z</time>
      </trkpt>
      <trkpt lat="44.82853" lon="3.1063">
        <ele>940.79</ele>
        <time>2020-09-04T11:07:12Z</time>
      </trkpt>
      <trkpt lat="44.82869" lon="3.10639">
        <ele>938.38</ele>
        <time>2020-09-04T11:07:27Z</time>
      </trkpt>
      <trkpt lat="44.8288" lon="3.10652">
        <ele>936.94</ele>
        <time>2020-09-04T11:07:42Z</time>
      </trkpt>
      <trkpt lat="44.82885" lon="3.10661">
        <ele>935.5</ele>
        <time>2020-09-04T11:07:57Z</time>
      </trkpt>
      <trkpt lat="44.82897" lon="3.10685">
        <ele>933.58</ele>
        <time>2020-09-04T11:08:12Z</time>
      </trkpt>
      <trkpt lat="44.82901" lon="3.10704">
        <ele>932.14</ele>
        <time>2020-09-04T11:08:27Z</time>
      </trkpt>
      <trkpt lat="44.82903" lon="3.1073">
        <ele>930.69</ele>
        <time>2020-09-04T11:08:42Z</time>
      </trkpt>
      <trkpt lat="44.829" lon="3.10758">
        <ele>930.21</ele>
        <time>2020-09-04T11:08:57Z</time>
      </trkpt>
      <trkpt lat="44.82902" lon="3.10782">
        <ele>929.73</ele>
        <time>2020-09-04T11:09:12Z</time>
      </trkpt>
      <trkpt lat="44.829" lon="3.10784">
        <ele>928.77</ele>
        <time>2020-09-04T11:09:27Z</time>
      </trkpt>
      <trkpt lat="44.82901" lon="3.10783">
        <ele>928.77</ele>
        <time>2020-09-04T11:09:42Z</time>
      </trkpt>
      <trkpt lat="44.82901" lon="3.10784">
        <ele>929.25</ele>
        <time>2020-09-04T11:09:57Z</time>
      </trkpt>
      <trkpt lat="44.82903" lon="3.1078">
        <ele>928.77</ele>
        <time>2020-09-04T11:10:12Z</time>
      </trkpt>
      <trkpt lat="44.8291" lon="3.10798">
        <ele>930.21</ele>
        <time>2020-09-04T11:10:27Z</time>
      </trkpt>
      <trkpt lat="44.82923" lon="3.10802">
        <ele>931.17</ele>
        <time>2020-09-04T11:10:42Z</time>
      </trkpt>
      <trkpt lat="44.82938" lon="3.10793">
        <ele>932.62</ele>
        <time>2020-09-04T11:10:57Z</time>
      </trkpt>
      <trkpt lat="44.82947" lon="3.10774">
        <ele>934.06</ele>
        <time>2020-09-04T11:11:12Z</time>
      </trkpt>
      <trkpt lat="44.8295" lon="3.1075">
        <ele>934.54</ele>
        <time>2020-09-04T11:11:27Z</time>
      </trkpt>
      <trkpt lat="44.82953" lon="3.1073">
        <ele>934.54</ele>
        <time>2020-09-04T11:11:42Z</time>
      </trkpt>
      <trkpt lat="44.82954" lon="3.10702">
        <ele>933.58</ele>
        <time>2020-09-04T11:11:57Z</time>
      </trkpt>
      <trkpt lat="44.82954" lon="3.10676">
        <ele>934.06</ele>
        <time>2020-09-04T11:12:12Z</time>
      </trkpt>
      <trkpt lat="44.82957" lon="3.1065">
        <ele>934.06</ele>
        <time>2020-09-04T11:12:27Z</time>
      </trkpt>
      <trkpt lat="44.82963" lon="3.10625">
        <ele>933.58</ele>
        <time>2020-09-04T11:12:42Z</time>
      </trkpt>
      <trkpt lat="44.82969" lon="3.10601">
        <ele>934.06</ele>
        <time>2020-09-04T11:12:57Z</time>
      </trkpt>
      <trkpt lat="44.82972" lon="3.10577">
        <ele>934.54</ele>
        <time>2020-09-04T11:13:12Z</time>
      </trkpt>
      <trkpt lat="44.82975" lon="3.10551">
        <ele>935.02</ele>
        <time>2020-09-04T11:13:27Z</time>
      </trkpt>
      <trkpt lat="44.8298" lon="3.10529">
        <ele>935.98</ele>
        <time>2020-09-04T11:13:42Z</time>
      </trkpt>
      <trkpt lat="44.82985" lon="3.10508">
        <ele>936.94</ele>
        <time>2020-09-04T11:13:57Z</time>
      </trkpt>
      <trkpt lat="44.82993" lon="3.10489">
        <ele>938.86</ele>
        <time>2020-09-04T11:14:12Z</time>
      </trkpt>
      <trkpt lat="44.83004" lon="3.10468">
        <ele>940.79</ele>
        <time>2020-09-04T11:14:27Z</time>
      </trkpt>
      <trkpt lat="44.83015" lon="3.10456">
        <ele>942.23</ele>
        <time>2020-09-04T11:14:42Z</time>
      </trkpt>
      <trkpt lat="44.83028" lon="3.10449">
        <ele>943.67</ele>
        <time>2020-09-04T11:14:57Z</time>
      </trkpt>
      <trkpt lat="44.83042" lon="3.1045">
        <ele>946.07</ele>
        <time>2020-09-04T11:15:12Z</time>
      </trkpt>
      <trkpt lat="44.83055" lon="3.1046">
        <ele>948</ele>
        <time>2020-09-04T11:15:27Z</time>
      </trkpt>
      <trkpt lat="44.83065" lon="3.10471">
        <ele>949.92</ele>
        <time>2020-09-04T11:15:42Z</time>
      </trkpt>
      <trkpt lat="44.83074" lon="3.10479">
        <ele>952.8</ele>
        <time>2020-09-04T11:15:57Z</time>
      </trkpt>
      <trkpt lat="44.83083" lon="3.10489">
        <ele>954.73</ele>
        <time>2020-09-04T11:16:12Z</time>
      </trkpt>
      <trkpt lat="44.8309" lon="3.105">
        <ele>956.17</ele>
        <time>2020-09-04T11:16:27Z</time>
      </trkpt>
      <trkpt lat="44.83099" lon="3.10509">
        <ele>958.57</ele>
        <time>2020-09-04T11:16:42Z</time>
      </trkpt>
      <trkpt lat="44.83107" lon="3.10519">
        <ele>960.01</ele>
        <time>2020-09-04T11:16:57Z</time>
      </trkpt>
      <trkpt lat="44.83113" lon="3.10531">
        <ele>962.42</ele>
        <time>2020-09-04T11:17:12Z</time>
      </trkpt>
      <trkpt lat="44.8312" lon="3.10546">
        <ele>963.38</ele>
        <time>2020-09-04T11:17:27Z</time>
      </trkpt>
      <trkpt lat="44.83125" lon="3.10561">
        <ele>965.3</ele>
        <time>2020-09-04T11:17:42Z</time>
      </trkpt>
      <trkpt lat="44.83132" lon="3.10576">
        <ele>967.22</ele>
        <time>2020-09-04T11:17:57Z</time>
      </trkpt>
      <trkpt lat="44.83138" lon="3.10594">
        <ele>968.67</ele>
        <time>2020-09-04T11:18:12Z</time>
      </trkpt>
      <trkpt lat="44.83143" lon="3.1061">
        <ele>970.11</ele>
        <time>2020-09-04T11:18:27Z</time>
      </trkpt>
      <trkpt lat="44.83149" lon="3.10629">
        <ele>971.07</ele>
        <time>2020-09-04T11:18:42Z</time>
      </trkpt>
      <trkpt lat="44.83154" lon="3.10649">
        <ele>972.51</ele>
        <time>2020-09-04T11:18:57Z</time>
      </trkpt>
      <trkpt lat="44.83154" lon="3.10671">
        <ele>973.95</ele>
        <time>2020-09-04T11:19:12Z</time>
      </trkpt>
      <trkpt lat="44.83157" lon="3.10693">
        <ele>974.91</ele>
        <time>2020-09-04T11:19:27Z</time>
      </trkpt>
      <trkpt lat="44.83163" lon="3.10711">
        <ele>976.36</ele>
        <time>2020-09-04T11:19:42Z</time>
      </trkpt>
      <trkpt lat="44.83169" lon="3.10729">
        <ele>977.8</ele>
        <time>2020-09-04T11:19:57Z</time>
      </trkpt>
      <trkpt lat="44.83178" lon="3.10745">
        <ele>979.72</ele>
        <time>2020-09-04T11:20:12Z</time>
      </trkpt>
      <trkpt lat="44.83183" lon="3.10762">
        <ele>981.16</ele>
        <time>2020-09-04T11:20:27Z</time>
      </trkpt>
      <trkpt lat="44.83184" lon="3.10781">
        <ele>982.6</ele>
        <time>2020-09-04T11:20:42Z</time>
      </trkpt>
      <trkpt lat="44.83181" lon="3.108">
        <ele>984.05</ele>
        <time>2020-09-04T11:20:57Z</time>
      </trkpt>
      <trkpt lat="44.83179" lon="3.10816">
        <ele>984.53</ele>
        <time>2020-09-04T11:21:12Z</time>
      </trkpt>
      <trkpt lat="44.83177" lon="3.10816">
        <ele>985.01</ele>
        <time>2020-09-04T11:21:27Z</time>
      </trkpt>
      <trkpt lat="44.83175" lon="3.10814">
        <ele>984.05</ele>
        <time>2020-09-04T11:21:42Z</time>
      </trkpt>
      <trkpt lat="44.83167" lon="3.10814">
        <ele>984.53</ele>
        <time>2020-09-04T11:21:57Z</time>
      </trkpt>
      <trkpt lat="44.83171" lon="3.10812">
        <ele>983.57</ele>
        <time>2020-09-04T11:22:12Z</time>
      </trkpt>
      <trkpt lat="44.83173" lon="3.10811">
        <ele>984.05</ele>
        <time>2020-09-04T11:22:27Z</time>
      </trkpt>
      <trkpt lat="44.83173" lon="3.10813">
        <ele>984.05</ele>
        <time>2020-09-04T11:22:42Z</time>
      </trkpt>
      <trkpt lat="44.83163" lon="3.10831">
        <ele>984.05</ele>
        <time>2020-09-04T11:22:57Z</time>
      </trkpt>
      <trkpt lat="44.83156" lon="3.10856">
        <ele>984.05</ele>
        <time>2020-09-04T11:23:12Z</time>
      </trkpt>
      <trkpt lat="44.83151" lon="3.10882">
        <ele>985.49</ele>
        <time>2020-09-04T11:23:27Z</time>
      </trkpt>
      <trkpt lat="44.83152" lon="3.10908">
        <ele>985.49</ele>
        <time>2020-09-04T11:23:42Z</time>
      </trkpt>
      <trkpt lat="44.83154" lon="3.10934">
        <ele>986.93</ele>
        <time>2020-09-04T11:23:57Z</time>
      </trkpt>
      <trkpt lat="44.83156" lon="3.10958">
        <ele>988.37</ele>
        <time>2020-09-04T11:24:12Z</time>
      </trkpt>
      <trkpt lat="44.83162" lon="3.1098">
        <ele>988.85</ele>
        <time>2020-09-04T11:24:27Z</time>
      </trkpt>
      <trkpt lat="44.83168" lon="3.11001">
        <ele>991.74</ele>
        <time>2020-09-04T11:24:42Z</time>
      </trkpt>
      <trkpt lat="44.83163" lon="3.11021">
        <ele>993.18</ele>
        <time>2020-09-04T11:24:57Z</time>
      </trkpt>
      <trkpt lat="44.83155" lon="3.11039">
        <ele>994.62</ele>
        <time>2020-09-04T11:25:12Z</time>
      </trkpt>
      <trkpt lat="44.83145" lon="3.11056">
        <ele>996.54</ele>
        <time>2020-09-04T11:25:27Z</time>
      </trkpt>
      <trkpt lat="44.83133" lon="3.11073">
        <ele>997.02</ele>
        <time>2020-09-04T11:25:42Z</time>
      </trkpt>
      <trkpt lat="44.83117" lon="3.11087">
        <ele>996.54</ele>
        <time>2020-09-04T11:25:57Z</time>
      </trkpt>
      <trkpt lat="44.83103" lon="3.11098">
        <ele>998.47</ele>
        <time>2020-09-04T11:26:12Z</time>
      </trkpt>
      <trkpt lat="44.83087" lon="3.11107">
        <ele>999.43</ele>
        <time>2020-09-04T11:26:27Z</time>
      </trkpt>
      <trkpt lat="44.83071" lon="3.11117">
        <ele>999.91</ele>
        <time>2020-09-04T11:26:42Z</time>
      </trkpt>
      <trkpt lat="44.83058" lon="3.11133">
        <ele>1000.87</ele>
        <time>2020-09-04T11:26:57Z</time>
      </trkpt>
      <trkpt lat="44.83048" lon="3.11146">
        <ele>1000.87</ele>
        <time>2020-09-04T11:27:12Z</time>
      </trkpt>
      <trkpt lat="44.83039" lon="3.11156">
        <ele>1000.39</ele>
        <time>2020-09-04T11:27:27Z</time>
      </trkpt>
      <trkpt lat="44.83027" lon="3.11176">
        <ele>999.91</ele>
        <time>2020-09-04T11:27:42Z</time>
      </trkpt>
      <trkpt lat="44.83016" lon="3.11199">
        <ele>998.95</ele>
        <time>2020-09-04T11:27:57Z</time>
      </trkpt>
      <trkpt lat="44.83001" lon="3.11218">
        <ele>998.95</ele>
        <time>2020-09-04T11:28:12Z</time>
      </trkpt>
      <trkpt lat="44.82997" lon="3.11217">
        <ele>999.43</ele>
        <time>2020-09-04T11:28:27Z</time>
      </trkpt>
      <trkpt lat="44.82988" lon="3.11227">
        <ele>999.43</ele>
        <time>2020-09-04T11:28:42Z</time>
      </trkpt>
      <trkpt lat="44.82974" lon="3.11242">
        <ele>1000.39</ele>
        <time>2020-09-04T11:28:57Z</time>
      </trkpt>
      <trkpt lat="44.82958" lon="3.11255">
        <ele>1002.79</ele>
        <time>2020-09-04T11:29:12Z</time>
      </trkpt>
      <trkpt lat="44.82942" lon="3.11266">
        <ele>1004.23</ele>
        <time>2020-09-04T11:29:27Z</time>
      </trkpt>
      <trkpt lat="44.8293" lon="3.11275">
        <ele>1005.2</ele>
        <time>2020-09-04T11:29:42Z</time>
      </trkpt>
      <trkpt lat="44.82927" lon="3.11275">
        <ele>1006.16</ele>
        <time>2020-09-04T11:29:57Z</time>
      </trkpt>
      <trkpt lat="44.82923" lon="3.11282">
        <ele>1007.12</ele>
        <time>2020-09-04T11:30:12Z</time>
      </trkpt>
      <trkpt lat="44.82908" lon="3.11291">
        <ele>1008.56</ele>
        <time>2020-09-04T11:30:27Z</time>
      </trkpt>
      <trkpt lat="44.82891" lon="3.113">
        <ele>1009.04</ele>
        <time>2020-09-04T11:30:42Z</time>
      </trkpt>
      <trkpt lat="44.82874" lon="3.11309">
        <ele>1010</ele>
        <time>2020-09-04T11:30:57Z</time>
      </trkpt>
      <trkpt lat="44.82857" lon="3.11322">
        <ele>1010.48</ele>
        <time>2020-09-04T11:31:12Z</time>
      </trkpt>
      <trkpt lat="44.82841" lon="3.11334">
        <ele>1011.44</ele>
        <time>2020-09-04T11:31:27Z</time>
      </trkpt>
      <trkpt lat="44.82824" lon="3.11348">
        <ele>1011.93</ele>
        <time>2020-09-04T11:31:42Z</time>
      </trkpt>
      <trkpt lat="44.82809" lon="3.11361">
        <ele>1011.44</ele>
        <time>2020-09-04T11:31:57Z</time>
      </trkpt>
      <trkpt lat="44.82793" lon="3.11375">
        <ele>1011.93</ele>
        <time>2020-09-04T11:32:12Z</time>
      </trkpt>
      <trkpt lat="44.82778" lon="3.11388">
        <ele>1010.96</ele>
        <time>2020-09-04T11:32:27Z</time>
      </trkpt>
      <trkpt lat="44.82762" lon="3.11401">
        <ele>1012.89</ele>
        <time>2020-09-04T11:32:42Z</time>
      </trkpt>
      <trkpt lat="44.82746" lon="3.11413">
        <ele>1012.41</ele>
        <time>2020-09-04T11:32:57Z</time>
      </trkpt>
      <trkpt lat="44.82738" lon="3.11422">
        <ele>1012.89</ele>
        <time>2020-09-04T11:33:12Z</time>
      </trkpt>
      <trkpt lat="44.82723" lon="3.11439">
        <ele>1013.37</ele>
        <time>2020-09-04T11:33:27Z</time>
      </trkpt>
      <trkpt lat="44.82708" lon="3.11454">
        <ele>1013.85</ele>
        <time>2020-09-04T11:33:42Z</time>
      </trkpt>
      <trkpt lat="44.82691" lon="3.11468">
        <ele>1014.33</ele>
        <time>2020-09-04T11:33:57Z</time>
      </trkpt>
      <trkpt lat="44.82679" lon="3.11475">
        <ele>1014.33</ele>
        <time>2020-09-04T11:34:12Z</time>
      </trkpt>
      <trkpt lat="44.82669" lon="3.11479">
        <ele>1015.29</ele>
        <time>2020-09-04T11:34:27Z</time>
      </trkpt>
      <trkpt lat="44.82667" lon="3.11478">
        <ele>1013.85</ele>
        <time>2020-09-04T11:34:42Z</time>
      </trkpt>
      <trkpt lat="44.82667" lon="3.11478">
        <ele>1014.81</ele>
        <time>2020-09-04T11:34:57Z</time>
      </trkpt>
      <trkpt lat="44.82665" lon="3.11479">
        <ele>1014.33</ele>
        <time>2020-09-04T11:35:12Z</time>
      </trkpt>
      <trkpt lat="44.82665" lon="3.11485">
        <ele>1014.81</ele>
        <time>2020-09-04T11:35:27Z</time>
      </trkpt>
      <trkpt lat="44.82665" lon="3.11489">
        <ele>1014.81</ele>
        <time>2020-09-04T11:35:42Z</time>
      </trkpt>
      <trkpt lat="44.82664" lon="3.11492">
        <ele>1015.29</ele>
        <time>2020-09-04T11:35:57Z</time>
      </trkpt>
      <trkpt lat="44.82663" lon="3.11496">
        <ele>1015.29</ele>
        <time>2020-09-04T11:36:12Z</time>
      </trkpt>
      <trkpt lat="44.82657" lon="3.11497">
        <ele>1015.77</ele>
        <time>2020-09-04T11:36:27Z</time>
      </trkpt>
      <trkpt lat="44.82643" lon="3.11505">
        <ele>1015.77</ele>
        <time>2020-09-04T11:36:42Z</time>
      </trkpt>
      <trkpt lat="44.8263" lon="3.11517">
        <ele>1015.77</ele>
        <time>2020-09-04T11:36:57Z</time>
      </trkpt>
      <trkpt lat="44.82618" lon="3.11532">
        <ele>1014.81</ele>
        <time>2020-09-04T11:37:12Z</time>
      </trkpt>
      <trkpt lat="44.82606" lon="3.1155">
        <ele>1013.85</ele>
        <time>2020-09-04T11:37:27Z</time>
      </trkpt>
      <trkpt lat="44.82597" lon="3.1157">
        <ele>1012.41</ele>
        <time>2020-09-04T11:37:42Z</time>
      </trkpt>
      <trkpt lat="44.82587" lon="3.11591">
        <ele>1011.93</ele>
        <time>2020-09-04T11:37:57Z</time>
      </trkpt>
      <trkpt lat="44.82575" lon="3.11609">
        <ele>1010.48</ele>
        <time>2020-09-04T11:38:12Z</time>
      </trkpt>
      <trkpt lat="44.82563" lon="3.11626">
        <ele>1009.52</ele>
        <time>2020-09-04T11:38:27Z</time>
      </trkpt>
      <trkpt lat="44.82552" lon="3.11644">
        <ele>1007.6</ele>
        <time>2020-09-04T11:38:42Z</time>
      </trkpt>
      <trkpt lat="44.8254" lon="3.1166">
        <ele>1005.2</ele>
        <time>2020-09-04T11:38:57Z</time>
      </trkpt>
      <trkpt lat="44.82522" lon="3.11673">
        <ele>1005.2</ele>
        <time>2020-09-04T11:39:12Z</time>
      </trkpt>
      <trkpt lat="44.82505" lon="3.11678">
        <ele>1005.2</ele>
        <time>2020-09-04T11:39:27Z</time>
      </trkpt>
      <trkpt lat="44.82486" lon="3.11675">
        <ele>1004.72</ele>
        <time>2020-09-04T11:39:42Z</time>
      </trkpt>
      <trkpt lat="44.82467" lon="3.11674">
        <ele>1003.27</ele>
        <time>2020-09-04T11:39:57Z</time>
      </trkpt>
      <trkpt lat="44.82449" lon="3.11677">
        <ele>1003.27</ele>
        <time>2020-09-04T11:40:12Z</time>
      </trkpt>
      <trkpt lat="44.82431" lon="3.11683">
        <ele>1002.31</ele>
        <time>2020-09-04T11:40:27Z</time>
      </trkpt>
      <trkpt lat="44.82415" lon="3.11688">
        <ele>1001.35</ele>
        <time>2020-09-04T11:40:42Z</time>
      </trkpt>
      <trkpt lat="44.82399" lon="3.11701">
        <ele>999.43</ele>
        <time>2020-09-04T11:40:57Z</time>
      </trkpt>
      <trkpt lat="44.82393" lon="3.11712">
        <ele>998.95</ele>
        <time>2020-09-04T11:41:12Z</time>
      </trkpt>
      <trkpt lat="44.82384" lon="3.11735">
        <ele>997.51</ele>
        <time>2020-09-04T11:41:27Z</time>
      </trkpt>
      <trkpt lat="44.8238" lon="3.1176">
        <ele>996.06</ele>
        <time>2020-09-04T11:41:42Z</time>
      </trkpt>
      <trkpt lat="44.82381" lon="3.11784">
        <ele>994.62</ele>
        <time>2020-09-04T11:41:57Z</time>
      </trkpt>
      <trkpt lat="44.82386" lon="3.11809">
        <ele>993.18</ele>
        <time>2020-09-04T11:42:12Z</time>
      </trkpt>
      <trkpt lat="44.82392" lon="3.11833">
        <ele>992.22</ele>
        <time>2020-09-04T11:42:27Z</time>
      </trkpt>
      <trkpt lat="44.82395" lon="3.11858">
        <ele>990.78</ele>
        <time>2020-09-04T11:42:42Z</time>
      </trkpt>
      <trkpt lat="44.82383" lon="3.11874">
        <ele>988.85</ele>
        <time>2020-09-04T11:42:57Z</time>
      </trkpt>
      <trkpt lat="44.82365" lon="3.11878">
        <ele>986.45</ele>
        <time>2020-09-04T11:43:12Z</time>
      </trkpt>
      <trkpt lat="44.82347" lon="3.11879">
        <ele>984.53</ele>
        <time>2020-09-04T11:43:27Z</time>
      </trkpt>
      <trkpt lat="44.8233" lon="3.1188">
        <ele>982.6</ele>
        <time>2020-09-04T11:43:42Z</time>
      </trkpt>
      <trkpt lat="44.82312" lon="3.11885">
        <ele>982.12</ele>
        <time>2020-09-04T11:43:57Z</time>
      </trkpt>
      <trkpt lat="44.82294" lon="3.11885">
        <ele>981.16</ele>
        <time>2020-09-04T11:44:12Z</time>
      </trkpt>
      <trkpt lat="44.82274" lon="3.11881">
        <ele>980.68</ele>
        <time>2020-09-04T11:44:27Z</time>
      </trkpt>
      <trkpt lat="44.82257" lon="3.11878">
        <ele>981.16</ele>
        <time>2020-09-04T11:44:42Z</time>
      </trkpt>
      <trkpt lat="44.8224" lon="3.11872">
        <ele>981.16</ele>
        <time>2020-09-04T11:44:57Z</time>
      </trkpt>
      <trkpt lat="44.82222" lon="3.11867">
        <ele>981.16</ele>
        <time>2020-09-04T11:45:12Z</time>
      </trkpt>
      <trkpt lat="44.82206" lon="3.1186">
        <ele>982.12</ele>
        <time>2020-09-04T11:45:27Z</time>
      </trkpt>
      <trkpt lat="44.82189" lon="3.11852">
        <ele>982.6</ele>
        <time>2020-09-04T11:45:42Z</time>
      </trkpt>
      <trkpt lat="44.82175" lon="3.11841">
        <ele>983.09</ele>
        <time>2020-09-04T11:45:57Z</time>
      </trkpt>
      <trkpt lat="44.82161" lon="3.11828">
        <ele>985.01</ele>
        <time>2020-09-04T11:46:12Z</time>
      </trkpt>
      <trkpt lat="44.82154" lon="3.11811">
        <ele>985.97</ele>
        <time>2020-09-04T11:46:27Z</time>
      </trkpt>
      <trkpt lat="44.82148" lon="3.11791">
        <ele>987.41</ele>
        <time>2020-09-04T11:46:42Z</time>
      </trkpt>
      <trkpt lat="44.82143" lon="3.11771">
        <ele>986.45</ele>
        <time>2020-09-04T11:46:57Z</time>
      </trkpt>
      <trkpt lat="44.82139" lon="3.11749">
        <ele>986.45</ele>
        <time>2020-09-04T11:47:12Z</time>
      </trkpt>
      <trkpt lat="44.82126" lon="3.11732">
        <ele>986.45</ele>
        <time>2020-09-04T11:47:27Z</time>
      </trkpt>
      <trkpt lat="44.8211" lon="3.11719">
        <ele>985.01</ele>
        <time>2020-09-04T11:47:42Z</time>
      </trkpt>
      <trkpt lat="44.82092" lon="3.11714">
        <ele>985.01</ele>
        <time>2020-09-04T11:47:57Z</time>
      </trkpt>
      <trkpt lat="44.82074" lon="3.11719">
        <ele>984.53</ele>
        <time>2020-09-04T11:48:12Z</time>
      </trkpt>
      <trkpt lat="44.8206" lon="3.11736">
        <ele>985.01</ele>
        <time>2020-09-04T11:48:27Z</time>
      </trkpt>
      <trkpt lat="44.8205" lon="3.11756">
        <ele>983.57</ele>
        <time>2020-09-04T11:48:42Z</time>
      </trkpt>
      <trkpt lat="44.8204" lon="3.11778">
        <ele>982.6</ele>
        <time>2020-09-04T11:48:57Z</time>
      </trkpt>
      <trkpt lat="44.82029" lon="3.11798">
        <ele>981.16</ele>
        <time>2020-09-04T11:49:12Z</time>
      </trkpt>
      <trkpt lat="44.82019" lon="3.11821">
        <ele>980.68</ele>
        <time>2020-09-04T11:49:27Z</time>
      </trkpt>
      <trkpt lat="44.82009" lon="3.1184">
        <ele>980.2</ele>
        <time>2020-09-04T11:49:42Z</time>
      </trkpt>
      <trkpt lat="44.82003" lon="3.11844">
        <ele>978.76</ele>
        <time>2020-09-04T11:49:57Z</time>
      </trkpt>
      <trkpt lat="44.82001" lon="3.1185">
        <ele>978.76</ele>
        <time>2020-09-04T11:50:12Z</time>
      </trkpt>
      <trkpt lat="44.81994" lon="3.11864">
        <ele>977.8</ele>
        <time>2020-09-04T11:50:27Z</time>
      </trkpt>
      <trkpt lat="44.8199" lon="3.11873">
        <ele>977.32</ele>
        <time>2020-09-04T11:50:42Z</time>
      </trkpt>
      <trkpt lat="44.81988" lon="3.11883">
        <ele>977.32</ele>
        <time>2020-09-04T11:50:57Z</time>
      </trkpt>
      <trkpt lat="44.8198" lon="3.11902">
        <ele>976.36</ele>
        <time>2020-09-04T11:51:12Z</time>
      </trkpt>
      <trkpt lat="44.81972" lon="3.11921">
        <ele>976.36</ele>
        <time>2020-09-04T11:51:27Z</time>
      </trkpt>
      <trkpt lat="44.81962" lon="3.11944">
        <ele>975.39</ele>
        <time>2020-09-04T11:51:42Z</time>
      </trkpt>
      <trkpt lat="44.81953" lon="3.11964">
        <ele>973.95</ele>
        <time>2020-09-04T11:51:57Z</time>
      </trkpt>
      <trkpt lat="44.81944" lon="3.11985">
        <ele>973.47</ele>
        <time>2020-09-04T11:52:12Z</time>
      </trkpt>
      <trkpt lat="44.81936" lon="3.12001">
        <ele>972.51</ele>
        <time>2020-09-04T11:52:27Z</time>
      </trkpt>
      <trkpt lat="44.81927" lon="3.1202">
        <ele>972.03</ele>
        <time>2020-09-04T11:52:42Z</time>
      </trkpt>
      <trkpt lat="44.81917" lon="3.12041">
        <ele>971.55</ele>
        <time>2020-09-04T11:52:57Z</time>
      </trkpt>
      <trkpt lat="44.81907" lon="3.1206">
        <ele>970.11</ele>
        <time>2020-09-04T11:53:12Z</time>
      </trkpt>
      <trkpt lat="44.81896" lon="3.12079">
        <ele>969.15</ele>
        <time>2020-09-04T11:53:27Z</time>
      </trkpt>
      <trkpt lat="44.81883" lon="3.12094">
        <ele>968.18</ele>
        <time>2020-09-04T11:53:42Z</time>
      </trkpt>
      <trkpt lat="44.81872" lon="3.12108">
        <ele>967.7</ele>
        <time>2020-09-04T11:53:57Z</time>
      </trkpt>
      <trkpt lat="44.81873" lon="3.12108">
        <ele>967.7</ele>
        <time>2020-09-04T11:54:12Z</time>
      </trkpt>
      <trkpt lat="44.81874" lon="3.12109">
        <ele>967.22</ele>
        <time>2020-09-04T11:54:27Z</time>
      </trkpt>
      <trkpt lat="44.81869" lon="3.12108">
        <ele>967.22</ele>
        <time>2020-09-04T11:54:42Z</time>
      </trkpt>
      <trkpt lat="44.81861" lon="3.1211">
        <ele>966.26</ele>
        <time>2020-09-04T11:54:57Z</time>
      </trkpt>
      <trkpt lat="44.81847" lon="3.1211">
        <ele>966.26</ele>
        <time>2020-09-04T11:55:12Z</time>
      </trkpt>
      <trkpt lat="44.81829" lon="3.12104">
        <ele>966.26</ele>
        <time>2020-09-04T11:55:27Z</time>
      </trkpt>
      <trkpt lat="44.81822" lon="3.1209">
        <ele>965.78</ele>
        <time>2020-09-04T11:55:42Z</time>
      </trkpt>
      <trkpt lat="44.81812" lon="3.12086">
        <ele>965.78</ele>
        <time>2020-09-04T11:55:57Z</time>
      </trkpt>
      <trkpt lat="44.81796" lon="3.12076">
        <ele>965.78</ele>
        <time>2020-09-04T11:56:12Z</time>
      </trkpt>
      <trkpt lat="44.81786" lon="3.1207">
        <ele>965.78</ele>
        <time>2020-09-04T11:56:27Z</time>
      </trkpt>
      <trkpt lat="44.81786" lon="3.1207">
        <ele>965.78</ele>
        <time>2020-09-04T11:56:42Z</time>
      </trkpt>
      <trkpt lat="44.81786" lon="3.12072">
        <ele>965.78</ele>
        <time>2020-09-04T11:56:57Z</time>
      </trkpt>
      <trkpt lat="44.81791" lon="3.12062">
        <ele>964.82</ele>
        <time>2020-09-04T11:57:12Z</time>
      </trkpt>
      <trkpt lat="44.8178" lon="3.12057">
        <ele>965.3</ele>
        <time>2020-09-04T11:57:27Z</time>
      </trkpt>
      <trkpt lat="44.81768" lon="3.1205">
        <ele>964.34</ele>
        <time>2020-09-04T11:57:42Z</time>
      </trkpt>
      <trkpt lat="44.81769" lon="3.12045">
        <ele>964.82</ele>
        <time>2020-09-04T11:57:57Z</time>
      </trkpt>
      <trkpt lat="44.81755" lon="3.12045">
        <ele>964.82</ele>
        <time>2020-09-04T11:58:12Z</time>
      </trkpt>
      <trkpt lat="44.81748" lon="3.12031">
        <ele>964.82</ele>
        <time>2020-09-04T11:58:27Z</time>
      </trkpt>
      <trkpt lat="44.81746" lon="3.12029">
        <ele>964.82</ele>
        <time>2020-09-04T11:58:42Z</time>
      </trkpt>
      <trkpt lat="44.81746" lon="3.1203">
        <ele>964.34</ele>
        <time>2020-09-04T11:58:57Z</time>
      </trkpt>
      <trkpt lat="44.81747" lon="3.12035">
        <ele>964.82</ele>
        <time>2020-09-04T11:59:12Z</time>
      </trkpt>
      <trkpt lat="44.81746" lon="3.12037">
        <ele>964.34</ele>
        <time>2020-09-04T11:59:27Z</time>
      </trkpt>
      <trkpt lat="44.81747" lon="3.12038">
        <ele>964.82</ele>
        <time>2020-09-04T11:59:42Z</time>
      </trkpt>
      <trkpt lat="44.81746" lon="3.12044">
        <ele>963.86</ele>
        <time>2020-09-04T11:59:57Z</time>
      </trkpt>
      <trkpt lat="44.81745" lon="3.12051">
        <ele>963.38</ele>
        <time>2020-09-04T12:00:12Z</time>
      </trkpt>
      <trkpt lat="44.8175" lon="3.12058">
        <ele>963.86</ele>
        <time>2020-09-04T12:00:27Z</time>
      </trkpt>
      <trkpt lat="44.81751" lon="3.12059">
        <ele>963.38</ele>
        <time>2020-09-04T12:00:42Z</time>
      </trkpt>
      <trkpt lat="44.81753" lon="3.12059">
        <ele>963.86</ele>
        <time>2020-09-04T12:00:57Z</time>
      </trkpt>
      <trkpt lat="44.81755" lon="3.12058">
        <ele>964.34</ele>
        <time>2020-09-04T12:01:12Z</time>
      </trkpt>
      <trkpt lat="44.81755" lon="3.12062">
        <ele>964.82</ele>
        <time>2020-09-04T12:01:27Z</time>
      </trkpt>
      <trkpt lat="44.81755" lon="3.12059">
        <ele>964.82</ele>
        <time>2020-09-04T12:01:42Z</time>
      </trkpt>
      <trkpt lat="44.81757" lon="3.12056">
        <ele>964.82</ele>
        <time>2020-09-04T12:01:57Z</time>
      </trkpt>
      <trkpt lat="44.81759" lon="3.12053">
        <ele>964.82</ele>
        <time>2020-09-04T12:02:12Z</time>
      </trkpt>
      <trkpt lat="44.81761" lon="3.12052">
        <ele>965.3</ele>
        <time>2020-09-04T12:02:27Z</time>
      </trkpt>
      <trkpt lat="44.81759" lon="3.12054">
        <ele>965.3</ele>
        <time>2020-09-04T12:02:42Z</time>
      </trkpt>
      <trkpt lat="44.8176" lon="3.12054">
        <ele>965.78</ele>
        <time>2020-09-04T12:02:57Z</time>
      </trkpt>
      <trkpt lat="44.8176" lon="3.12038">
        <ele>965.78</ele>
        <time>2020-09-04T12:03:12Z</time>
      </trkpt>
      <trkpt lat="44.81766" lon="3.12023">
        <ele>965.3</ele>
        <time>2020-09-04T12:03:27Z</time>
      </trkpt>
      <trkpt lat="44.81777" lon="3.12005">
        <ele>964.82</ele>
        <time>2020-09-04T12:03:42Z</time>
      </trkpt>
      <trkpt lat="44.81786" lon="3.11995">
        <ele>965.3</ele>
        <time>2020-09-04T12:03:57Z</time>
      </trkpt>
      <trkpt lat="44.81782" lon="3.11999">
        <ele>965.3</ele>
        <time>2020-09-04T12:04:12Z</time>
      </trkpt>
      <trkpt lat="44.81782" lon="3.11999">
        <ele>964.34</ele>
        <time>2020-09-04T12:04:27Z</time>
      </trkpt>
      <trkpt lat="44.81782" lon="3.11998">
        <ele>964.34</ele>
        <time>2020-09-04T12:04:42Z</time>
      </trkpt>
      <trkpt lat="44.81784" lon="3.11996">
        <ele>965.3</ele>
        <time>2020-09-04T12:04:57Z</time>
      </trkpt>
      <trkpt lat="44.81784" lon="3.11994">
        <ele>964.82</ele>
        <time>2020-09-04T12:05:12Z</time>
      </trkpt>
      <trkpt lat="44.81787" lon="3.11993">
        <ele>964.82</ele>
        <time>2020-09-04T12:05:27Z</time>
      </trkpt>
      <trkpt lat="44.81789" lon="3.11992">
        <ele>964.34</ele>
        <time>2020-09-04T12:05:42Z</time>
      </trkpt>
      <trkpt lat="44.81789" lon="3.11991">
        <ele>964.34</ele>
        <time>2020-09-04T12:05:57Z</time>
      </trkpt>
      <trkpt lat="44.81789" lon="3.11988">
        <ele>964.82</ele>
        <time>2020-09-04T12:06:12Z</time>
      </trkpt>
      <trkpt lat="44.81788" lon="3.11986">
        <ele>965.3</ele>
        <time>2020-09-04T12:06:27Z</time>
      </trkpt>
      <trkpt lat="44.81789" lon="3.11983">
        <ele>964.82</ele>
        <time>2020-09-04T12:06:42Z</time>
      </trkpt>
      <trkpt lat="44.81789" lon="3.11981">
        <ele>965.3</ele>
        <time>2020-09-04T12:06:57Z</time>
      </trkpt>
      <trkpt lat="44.81789" lon="3.11985">
        <ele>965.3</ele>
        <time>2020-09-04T12:07:12Z</time>
      </trkpt>
      <trkpt lat="44.8179" lon="3.11985">
        <ele>965.78</ele>
        <time>2020-09-04T12:07:27Z</time>
      </trkpt>
      <trkpt lat="44.81791" lon="3.11983">
        <ele>965.78</ele>
        <time>2020-09-04T12:07:42Z</time>
      </trkpt>
      <trkpt lat="44.81792" lon="3.11981">
        <ele>965.78</ele>
        <time>2020-09-04T12:07:57Z</time>
      </trkpt>
      <trkpt lat="44.81792" lon="3.11979">
        <ele>965.78</ele>
        <time>2020-09-04T12:08:12Z</time>
      </trkpt>
      <trkpt lat="44.8179" lon="3.11979">
        <ele>965.78</ele>
        <time>2020-09-04T12:08:27Z</time>
      </trkpt>
      <trkpt lat="44.81789" lon="3.1198">
        <ele>965.78</ele>
        <time>2020-09-04T12:08:42Z</time>
      </trkpt>
      <trkpt lat="44.81787" lon="3.11982">
        <ele>966.26</ele>
        <time>2020-09-04T12:08:57Z</time>
      </trkpt>
      <trkpt lat="44.81786" lon="3.11981">
        <ele>966.26</ele>
        <time>2020-09-04T12:09:12Z</time>
      </trkpt>
      <trkpt lat="44.81786" lon="3.11981">
        <ele>966.74</ele>
        <time>2020-09-04T12:09:27Z</time>
      </trkpt>
      <trkpt lat="44.81789" lon="3.11982">
        <ele>966.26</ele>
        <time>2020-09-04T12:09:42Z</time>
      </trkpt>
      <trkpt lat="44.8179" lon="3.11983">
        <ele>965.78</ele>
        <time>2020-09-04T12:09:57Z</time>
      </trkpt>
      <trkpt lat="44.81789" lon="3.11985">
        <ele>965.78</ele>
        <time>2020-09-04T12:10:12Z</time>
      </trkpt>
      <trkpt lat="44.81789" lon="3.11989">
        <ele>966.74</ele>
        <time>2020-09-04T12:10:27Z</time>
      </trkpt>
      <trkpt lat="44.81789" lon="3.11988">
        <ele>966.74</ele>
        <time>2020-09-04T12:10:42Z</time>
      </trkpt>
      <trkpt lat="44.81788" lon="3.11994">
        <ele>967.22</ele>
        <time>2020-09-04T12:10:57Z</time>
      </trkpt>
      <trkpt lat="44.81786" lon="3.11991">
        <ele>966.74</ele>
        <time>2020-09-04T12:11:12Z</time>
      </trkpt>
      <trkpt lat="44.81786" lon="3.11991">
        <ele>967.22</ele>
        <time>2020-09-04T12:11:27Z</time>
      </trkpt>
      <trkpt lat="44.81786" lon="3.11988">
        <ele>967.22</ele>
        <time>2020-09-04T12:11:42Z</time>
      </trkpt>
      <trkpt lat="44.81784" lon="3.1199">
        <ele>967.7</ele>
        <time>2020-09-04T12:11:57Z</time>
      </trkpt>
      <trkpt lat="44.81784" lon="3.11989">
        <ele>967.22</ele>
        <time>2020-09-04T12:12:12Z</time>
      </trkpt>
      <trkpt lat="44.81784" lon="3.11986">
        <ele>966.74</ele>
        <time>2020-09-04T12:12:27Z</time>
      </trkpt>
      <trkpt lat="44.81783" lon="3.11981">
        <ele>966.74</ele>
        <time>2020-09-04T12:12:42Z</time>
      </trkpt>
      <trkpt lat="44.81784" lon="3.11984">
        <ele>966.74</ele>
        <time>2020-09-04T12:12:57Z</time>
      </trkpt>
      <trkpt lat="44.81788" lon="3.11988">
        <ele>967.22</ele>
        <time>2020-09-04T12:13:12Z</time>
      </trkpt>
      <trkpt lat="44.81793" lon="3.1199">
        <ele>967.22</ele>
        <time>2020-09-04T12:13:27Z</time>
      </trkpt>
      <trkpt lat="44.81796" lon="3.11991">
        <ele>967.22</ele>
        <time>2020-09-04T12:13:42Z</time>
      </trkpt>
      <trkpt lat="44.81798" lon="3.1199">
        <ele>967.7</ele>
        <time>2020-09-04T12:13:57Z</time>
      </trkpt>
      <trkpt lat="44.81799" lon="3.11989">
        <ele>968.18</ele>
        <time>2020-09-04T12:14:12Z</time>
      </trkpt>
      <trkpt lat="44.81799" lon="3.11989">
        <ele>968.18</ele>
        <time>2020-09-04T12:14:27Z</time>
      </trkpt>
      <trkpt lat="44.81798" lon="3.11992">
        <ele>968.18</ele>
        <time>2020-09-04T12:14:42Z</time>
      </trkpt>
      <trkpt lat="44.81798" lon="3.11991">
        <ele>968.67</ele>
        <time>2020-09-04T12:14:57Z</time>
      </trkpt>
      <trkpt lat="44.81799" lon="3.11991">
        <ele>968.67</ele>
        <time>2020-09-04T12:15:12Z</time>
      </trkpt>
      <trkpt lat="44.818" lon="3.11994">
        <ele>968.67</ele>
        <time>2020-09-04T12:15:27Z</time>
      </trkpt>
      <trkpt lat="44.81799" lon="3.11996">
        <ele>969.15</ele>
        <time>2020-09-04T12:15:42Z</time>
      </trkpt>
      <trkpt lat="44.818" lon="3.12">
        <ele>969.15</ele>
        <time>2020-09-04T12:15:57Z</time>
      </trkpt>
      <trkpt lat="44.81798" lon="3.11999">
        <ele>969.15</ele>
        <time>2020-09-04T12:16:12Z</time>
      </trkpt>
      <trkpt lat="44.81799" lon="3.11997">
        <ele>969.15</ele>
        <time>2020-09-04T12:16:27Z</time>
      </trkpt>
      <trkpt lat="44.81799" lon="3.11995">
        <ele>969.63</ele>
        <time>2020-09-04T12:16:42Z</time>
      </trkpt>
      <trkpt lat="44.81798" lon="3.11993">
        <ele>969.15</ele>
        <time>2020-09-04T12:16:57Z</time>
      </trkpt>
      <trkpt lat="44.81796" lon="3.11991">
        <ele>970.11</ele>
        <time>2020-09-04T12:17:12Z</time>
      </trkpt>
      <trkpt lat="44.81797" lon="3.11992">
        <ele>969.63</ele>
        <time>2020-09-04T12:17:27Z</time>
      </trkpt>
      <trkpt lat="44.81797" lon="3.11993">
        <ele>969.63</ele>
        <time>2020-09-04T12:17:42Z</time>
      </trkpt>
      <trkpt lat="44.8178" lon="3.12016">
        <ele>970.11</ele>
        <time>2020-09-04T12:17:57Z</time>
      </trkpt>
      <trkpt lat="44.81773" lon="3.1202">
        <ele>970.59</ele>
        <time>2020-09-04T12:18:12Z</time>
      </trkpt>
      <trkpt lat="44.81756" lon="3.1203">
        <ele>970.59</ele>
        <time>2020-09-04T12:18:27Z</time>
      </trkpt>
      <trkpt lat="44.81745" lon="3.12034">
        <ele>971.07</ele>
        <time>2020-09-04T12:18:42Z</time>
      </trkpt>
      <trkpt lat="44.8173" lon="3.12047">
        <ele>971.07</ele>
        <time>2020-09-04T12:18:57Z</time>
      </trkpt>
      <trkpt lat="44.8172" lon="3.12048">
        <ele>971.07</ele>
        <time>2020-09-04T12:19:12Z</time>
      </trkpt>
      <trkpt lat="44.81707" lon="3.12057">
        <ele>971.55</ele>
        <time>2020-09-04T12:19:27Z</time>
      </trkpt>
      <trkpt lat="44.81699" lon="3.12042">
        <ele>971.55</ele>
        <time>2020-09-04T12:19:42Z</time>
      </trkpt>
      <trkpt lat="44.81697" lon="3.12036">
        <ele>972.03</ele>
        <time>2020-09-04T12:19:57Z</time>
      </trkpt>
      <trkpt lat="44.81696" lon="3.12025">
        <ele>971.55</ele>
        <time>2020-09-04T12:20:12Z</time>
      </trkpt>
      <trkpt lat="44.81696" lon="3.12026">
        <ele>971.55</ele>
        <time>2020-09-04T12:20:27Z</time>
      </trkpt>
      <trkpt lat="44.81692" lon="3.12047">
        <ele>971.55</ele>
        <time>2020-09-04T12:20:42Z</time>
      </trkpt>
      <trkpt lat="44.81684" lon="3.1207">
        <ele>970.59</ele>
        <time>2020-09-04T12:20:57Z</time>
      </trkpt>
      <trkpt lat="44.81681" lon="3.12085">
        <ele>971.55</ele>
        <time>2020-09-04T12:21:12Z</time>
      </trkpt>
      <trkpt lat="44.81681" lon="3.1208">
        <ele>970.59</ele>
        <time>2020-09-04T12:21:27Z</time>
      </trkpt>
      <trkpt lat="44.81682" lon="3.12081">
        <ele>970.11</ele>
        <time>2020-09-04T12:21:42Z</time>
      </trkpt>
      <trkpt lat="44.81681" lon="3.12081">
        <ele>969.63</ele>
        <time>2020-09-04T12:21:57Z</time>
      </trkpt>
      <trkpt lat="44.81682" lon="3.1208">
        <ele>970.11</ele>
        <time>2020-09-04T12:22:12Z</time>
      </trkpt>
      <trkpt lat="44.81684" lon="3.1208">
        <ele>969.63</ele>
        <time>2020-09-04T12:22:27Z</time>
      </trkpt>
      <trkpt lat="44.81686" lon="3.12079">
        <ele>969.63</ele>
        <time>2020-09-04T12:22:42Z</time>
      </trkpt>
      <trkpt lat="44.81685" lon="3.12078">
        <ele>969.15</ele>
        <time>2020-09-04T12:22:57Z</time>
      </trkpt>
      <trkpt lat="44.81684" lon="3.12076">
        <ele>969.63</ele>
        <time>2020-09-04T12:23:12Z</time>
      </trkpt>
      <trkpt lat="44.81683" lon="3.12076">
        <ele>969.15</ele>
        <time>2020-09-04T12:23:27Z</time>
      </trkpt>
      <trkpt lat="44.81681" lon="3.12077">
        <ele>969.15</ele>
        <time>2020-09-04T12:23:42Z</time>
      </trkpt>
      <trkpt lat="44.81681" lon="3.12078">
        <ele>969.15</ele>
        <time>2020-09-04T12:23:57Z</time>
      </trkpt>
      <trkpt lat="44.81682" lon="3.12079">
        <ele>970.59</ele>
        <time>2020-09-04T12:24:12Z</time>
      </trkpt>
      <trkpt lat="44.81683" lon="3.12085">
        <ele>969.63</ele>
        <time>2020-09-04T12:24:27Z</time>
      </trkpt>
      <trkpt lat="44.81684" lon="3.12085">
        <ele>970.11</ele>
        <time>2020-09-04T12:24:42Z</time>
      </trkpt>
      <trkpt lat="44.81684" lon="3.12087">
        <ele>970.11</ele>
        <time>2020-09-04T12:24:57Z</time>
      </trkpt>
      <trkpt lat="44.81676" lon="3.12108">
        <ele>971.07</ele>
        <time>2020-09-04T12:25:12Z</time>
      </trkpt>
      <trkpt lat="44.81673" lon="3.12133">
        <ele>970.59</ele>
        <time>2020-09-04T12:25:27Z</time>
      </trkpt>
      <trkpt lat="44.81673" lon="3.12151">
        <ele>971.07</ele>
        <time>2020-09-04T12:25:42Z</time>
      </trkpt>
      <trkpt lat="44.81672" lon="3.12166">
        <ele>971.55</ele>
        <time>2020-09-04T12:25:57Z</time>
      </trkpt>
      <trkpt lat="44.8168" lon="3.12168">
        <ele>971.07</ele>
        <time>2020-09-04T12:26:12Z</time>
      </trkpt>
      <trkpt lat="44.81676" lon="3.12167">
        <ele>971.55</ele>
        <time>2020-09-04T12:26:27Z</time>
      </trkpt>
      <trkpt lat="44.81672" lon="3.12173">
        <ele>971.55</ele>
        <time>2020-09-04T12:26:42Z</time>
      </trkpt>
      <trkpt lat="44.81672" lon="3.12182">
        <ele>972.03</ele>
        <time>2020-09-04T12:26:57Z</time>
      </trkpt>
      <trkpt lat="44.81671" lon="3.12185">
        <ele>972.03</ele>
        <time>2020-09-04T12:27:12Z</time>
      </trkpt>
      <trkpt lat="44.81672" lon="3.12192">
        <ele>972.03</ele>
        <time>2020-09-04T12:27:27Z</time>
      </trkpt>
      <trkpt lat="44.81674" lon="3.12215">
        <ele>972.03</ele>
        <time>2020-09-04T12:27:42Z</time>
      </trkpt>
      <trkpt lat="44.81677" lon="3.12239">
        <ele>972.51</ele>
        <time>2020-09-04T12:27:57Z</time>
      </trkpt>
      <trkpt lat="44.81682" lon="3.12261">
        <ele>972.51</ele>
        <time>2020-09-04T12:28:12Z</time>
      </trkpt>
      <trkpt lat="44.81689" lon="3.1228">
        <ele>972.99</ele>
        <time>2020-09-04T12:28:27Z</time>
      </trkpt>
      <trkpt lat="44.817" lon="3.12297">
        <ele>972.99</ele>
        <time>2020-09-04T12:28:42Z</time>
      </trkpt>
      <trkpt lat="44.81709" lon="3.1231">
        <ele>972.99</ele>
        <time>2020-09-04T12:28:57Z</time>
      </trkpt>
      <trkpt lat="44.81713" lon="3.12319">
        <ele>972.51</ele>
        <time>2020-09-04T12:29:12Z</time>
      </trkpt>
      <trkpt lat="44.81719" lon="3.12333">
        <ele>972.99</ele>
        <time>2020-09-04T12:29:27Z</time>
      </trkpt>
      <trkpt lat="44.81734" lon="3.12352">
        <ele>972.51</ele>
        <time>2020-09-04T12:29:42Z</time>
      </trkpt>
      <trkpt lat="44.81745" lon="3.12374">
        <ele>972.51</ele>
        <time>2020-09-04T12:29:57Z</time>
      </trkpt>
      <trkpt lat="44.81754" lon="3.12393">
        <ele>972.51</ele>
        <time>2020-09-04T12:30:12Z</time>
      </trkpt>
      <trkpt lat="44.81764" lon="3.12414">
        <ele>972.51</ele>
        <time>2020-09-04T12:30:27Z</time>
      </trkpt>
      <trkpt lat="44.81776" lon="3.12434">
        <ele>972.99</ele>
        <time>2020-09-04T12:30:42Z</time>
      </trkpt>
      <trkpt lat="44.81789" lon="3.1245">
        <ele>973.47</ele>
        <time>2020-09-04T12:30:57Z</time>
      </trkpt>
      <trkpt lat="44.81793" lon="3.12474">
        <ele>973.47</ele>
        <time>2020-09-04T12:31:12Z</time>
      </trkpt>
      <trkpt lat="44.81797" lon="3.12496">
        <ele>973.47</ele>
        <time>2020-09-04T12:31:27Z</time>
      </trkpt>
      <trkpt lat="44.81803" lon="3.12518">
        <ele>973.95</ele>
        <time>2020-09-04T12:31:42Z</time>
      </trkpt>
      <trkpt lat="44.81809" lon="3.1254">
        <ele>974.43</ele>
        <time>2020-09-04T12:31:57Z</time>
      </trkpt>
      <trkpt lat="44.81815" lon="3.12561">
        <ele>975.39</ele>
        <time>2020-09-04T12:32:12Z</time>
      </trkpt>
      <trkpt lat="44.81819" lon="3.12583">
        <ele>976.36</ele>
        <time>2020-09-04T12:32:27Z</time>
      </trkpt>
      <trkpt lat="44.81824" lon="3.12604">
        <ele>977.8</ele>
        <time>2020-09-04T12:32:42Z</time>
      </trkpt>
      <trkpt lat="44.81827" lon="3.12621">
        <ele>978.76</ele>
        <time>2020-09-04T12:32:57Z</time>
      </trkpt>
      <trkpt lat="44.8183" lon="3.12643">
        <ele>979.24</ele>
        <time>2020-09-04T12:33:12Z</time>
      </trkpt>
      <trkpt lat="44.81831" lon="3.12667">
        <ele>979.72</ele>
        <time>2020-09-04T12:33:27Z</time>
      </trkpt>
      <trkpt lat="44.8183" lon="3.12692">
        <ele>980.68</ele>
        <time>2020-09-04T12:33:42Z</time>
      </trkpt>
      <trkpt lat="44.81828" lon="3.12716">
        <ele>981.16</ele>
        <time>2020-09-04T12:33:57Z</time>
      </trkpt>
      <trkpt lat="44.81822" lon="3.12738">
        <ele>981.16</ele>
        <time>2020-09-04T12:34:12Z</time>
      </trkpt>
      <trkpt lat="44.81813" lon="3.12756">
        <ele>983.09</ele>
        <time>2020-09-04T12:34:27Z</time>
      </trkpt>
      <trkpt lat="44.81805" lon="3.12778">
        <ele>983.09</ele>
        <time>2020-09-04T12:34:42Z</time>
      </trkpt>
      <trkpt lat="44.81798" lon="3.12799">
        <ele>984.05</ele>
        <time>2020-09-04T12:34:57Z</time>
      </trkpt>
      <trkpt lat="44.8179" lon="3.1282">
        <ele>985.01</ele>
        <time>2020-09-04T12:35:12Z</time>
      </trkpt>
      <trkpt lat="44.81783" lon="3.12841">
        <ele>985.49</ele>
        <time>2020-09-04T12:35:27Z</time>
      </trkpt>
      <trkpt lat="44.81778" lon="3.12863">
        <ele>986.45</ele>
        <time>2020-09-04T12:35:42Z</time>
      </trkpt>
      <trkpt lat="44.81774" lon="3.12886">
        <ele>986.93</ele>
        <time>2020-09-04T12:35:57Z</time>
      </trkpt>
      <trkpt lat="44.81772" lon="3.1291">
        <ele>986.93</ele>
        <time>2020-09-04T12:36:12Z</time>
      </trkpt>
      <trkpt lat="44.81769" lon="3.1293">
        <ele>987.41</ele>
        <time>2020-09-04T12:36:27Z</time>
      </trkpt>
      <trkpt lat="44.81764" lon="3.12954">
        <ele>987.41</ele>
        <time>2020-09-04T12:36:42Z</time>
      </trkpt>
      <trkpt lat="44.8176" lon="3.12977">
        <ele>987.41</ele>
        <time>2020-09-04T12:36:57Z</time>
      </trkpt>
      <trkpt lat="44.81765" lon="3.13002">
        <ele>987.41</ele>
        <time>2020-09-04T12:37:12Z</time>
      </trkpt>
      <trkpt lat="44.81775" lon="3.1302">
        <ele>987.89</ele>
        <time>2020-09-04T12:37:27Z</time>
      </trkpt>
      <trkpt lat="44.81789" lon="3.1304">
        <ele>988.85</ele>
        <time>2020-09-04T12:37:42Z</time>
      </trkpt>
      <trkpt lat="44.81793" lon="3.13059">
        <ele>990.3</ele>
        <time>2020-09-04T12:37:57Z</time>
      </trkpt>
      <trkpt lat="44.81793" lon="3.13069">
        <ele>991.26</ele>
        <time>2020-09-04T12:38:12Z</time>
      </trkpt>
      <trkpt lat="44.81796" lon="3.13093">
        <ele>993.18</ele>
        <time>2020-09-04T12:38:27Z</time>
      </trkpt>
      <trkpt lat="44.818" lon="3.13111">
        <ele>994.14</ele>
        <time>2020-09-04T12:38:42Z</time>
      </trkpt>
      <trkpt lat="44.81806" lon="3.1313">
        <ele>996.06</ele>
        <time>2020-09-04T12:38:57Z</time>
      </trkpt>
      <trkpt lat="44.81813" lon="3.13144">
        <ele>997.99</ele>
        <time>2020-09-04T12:39:12Z</time>
      </trkpt>
      <trkpt lat="44.81823" lon="3.13156">
        <ele>999.91</ele>
        <time>2020-09-04T12:39:27Z</time>
      </trkpt>
      <trkpt lat="44.8183" lon="3.13167">
        <ele>1001.83</ele>
        <time>2020-09-04T12:39:42Z</time>
      </trkpt>
      <trkpt lat="44.81836" lon="3.13186">
        <ele>1003.75</ele>
        <time>2020-09-04T12:39:57Z</time>
      </trkpt>
      <trkpt lat="44.81841" lon="3.13203">
        <ele>1004.23</ele>
        <time>2020-09-04T12:40:12Z</time>
      </trkpt>
      <trkpt lat="44.81842" lon="3.13202">
        <ele>1004.72</ele>
        <time>2020-09-04T12:40:27Z</time>
      </trkpt>
      <trkpt lat="44.81846" lon="3.13206">
        <ele>1004.72</ele>
        <time>2020-09-04T12:40:42Z</time>
      </trkpt>
      <trkpt lat="44.81845" lon="3.13195">
        <ele>1006.16</ele>
        <time>2020-09-04T12:40:57Z</time>
      </trkpt>
      <trkpt lat="44.81841" lon="3.13172">
        <ele>1007.6</ele>
        <time>2020-09-04T12:41:12Z</time>
      </trkpt>
      <trkpt lat="44.8184" lon="3.13168">
        <ele>1008.08</ele>
        <time>2020-09-04T12:41:27Z</time>
      </trkpt>
      <trkpt lat="44.81845" lon="3.13165">
        <ele>1008.08</ele>
        <time>2020-09-04T12:41:42Z</time>
      </trkpt>
      <trkpt lat="44.81839" lon="3.13155">
        <ele>1008.08</ele>
        <time>2020-09-04T12:41:57Z</time>
      </trkpt>
      <trkpt lat="44.81841" lon="3.13173">
        <ele>1008.08</ele>
        <time>2020-09-04T12:42:12Z</time>
      </trkpt>
      <trkpt lat="44.81851" lon="3.13203">
        <ele>1005.68</ele>
        <time>2020-09-04T12:42:27Z</time>
      </trkpt>
      <trkpt lat="44.81855" lon="3.1323">
        <ele>1004.72</ele>
        <time>2020-09-04T12:42:42Z</time>
      </trkpt>
      <trkpt lat="44.81864" lon="3.13251">
        <ele>1005.68</ele>
        <time>2020-09-04T12:42:57Z</time>
      </trkpt>
      <trkpt lat="44.81877" lon="3.13274">
        <ele>1005.68</ele>
        <time>2020-09-04T12:43:12Z</time>
      </trkpt>
      <trkpt lat="44.81884" lon="3.13298">
        <ele>1007.12</ele>
        <time>2020-09-04T12:43:27Z</time>
      </trkpt>
      <trkpt lat="44.81882" lon="3.13321">
        <ele>1009.04</ele>
        <time>2020-09-04T12:43:42Z</time>
      </trkpt>
      <trkpt lat="44.81876" lon="3.13344">
        <ele>1009.52</ele>
        <time>2020-09-04T12:43:57Z</time>
      </trkpt>
      <trkpt lat="44.81868" lon="3.13364">
        <ele>1011.93</ele>
        <time>2020-09-04T12:44:12Z</time>
      </trkpt>
      <trkpt lat="44.81858" lon="3.13381">
        <ele>1012.41</ele>
        <time>2020-09-04T12:44:27Z</time>
      </trkpt>
      <trkpt lat="44.81848" lon="3.13401">
        <ele>1013.85</ele>
        <time>2020-09-04T12:44:42Z</time>
      </trkpt>
      <trkpt lat="44.81837" lon="3.13415">
        <ele>1014.81</ele>
        <time>2020-09-04T12:44:57Z</time>
      </trkpt>
      <trkpt lat="44.81828" lon="3.1343">
        <ele>1015.77</ele>
        <time>2020-09-04T12:45:12Z</time>
      </trkpt>
      <trkpt lat="44.8182" lon="3.13445">
        <ele>1017.21</ele>
        <time>2020-09-04T12:45:27Z</time>
      </trkpt>
      <trkpt lat="44.81817" lon="3.13453">
        <ele>1017.21</ele>
        <time>2020-09-04T12:45:42Z</time>
      </trkpt>
      <trkpt lat="44.81811" lon="3.13473">
        <ele>1018.65</ele>
        <time>2020-09-04T12:45:57Z</time>
      </trkpt>
      <trkpt lat="44.81801" lon="3.13493">
        <ele>1020.58</ele>
        <time>2020-09-04T12:46:12Z</time>
      </trkpt>
      <trkpt lat="44.81791" lon="3.13511">
        <ele>1022.5</ele>
        <time>2020-09-04T12:46:27Z</time>
      </trkpt>
      <trkpt lat="44.81781" lon="3.13528">
        <ele>1023.94</ele>
        <time>2020-09-04T12:46:42Z</time>
      </trkpt>
      <trkpt lat="44.81771" lon="3.13546">
        <ele>1024.9</ele>
        <time>2020-09-04T12:46:57Z</time>
      </trkpt>
      <trkpt lat="44.81762" lon="3.13565">
        <ele>1026.34</ele>
        <time>2020-09-04T12:47:12Z</time>
      </trkpt>
      <trkpt lat="44.81753" lon="3.13584">
        <ele>1027.79</ele>
        <time>2020-09-04T12:47:27Z</time>
      </trkpt>
      <trkpt lat="44.81744" lon="3.13602">
        <ele>1028.75</ele>
        <time>2020-09-04T12:47:42Z</time>
      </trkpt>
      <trkpt lat="44.81738" lon="3.13621">
        <ele>1029.71</ele>
        <time>2020-09-04T12:47:57Z</time>
      </trkpt>
      <trkpt lat="44.81733" lon="3.13642">
        <ele>1031.15</ele>
        <time>2020-09-04T12:48:12Z</time>
      </trkpt>
      <trkpt lat="44.81728" lon="3.13659">
        <ele>1032.59</ele>
        <time>2020-09-04T12:48:27Z</time>
      </trkpt>
      <trkpt lat="44.81728" lon="3.13661">
        <ele>1032.59</ele>
        <time>2020-09-04T12:48:42Z</time>
      </trkpt>
      <trkpt lat="44.81727" lon="3.13662">
        <ele>1032.11</ele>
        <time>2020-09-04T12:48:57Z</time>
      </trkpt>
      <trkpt lat="44.8173" lon="3.13675">
        <ele>1033.07</ele>
        <time>2020-09-04T12:49:12Z</time>
      </trkpt>
      <trkpt lat="44.81725" lon="3.13698">
        <ele>1034.04</ele>
        <time>2020-09-04T12:49:27Z</time>
      </trkpt>
      <trkpt lat="44.81713" lon="3.13714">
        <ele>1035.96</ele>
        <time>2020-09-04T12:49:42Z</time>
      </trkpt>
      <trkpt lat="44.817" lon="3.13727">
        <ele>1037.88</ele>
        <time>2020-09-04T12:49:57Z</time>
      </trkpt>
      <trkpt lat="44.81689" lon="3.13741">
        <ele>1040.28</ele>
        <time>2020-09-04T12:50:12Z</time>
      </trkpt>
      <trkpt lat="44.81677" lon="3.13755">
        <ele>1041.25</ele>
        <time>2020-09-04T12:50:27Z</time>
      </trkpt>
      <trkpt lat="44.81668" lon="3.13771">
        <ele>1043.65</ele>
        <time>2020-09-04T12:50:42Z</time>
      </trkpt>
      <trkpt lat="44.81656" lon="3.13784">
        <ele>1044.13</ele>
        <time>2020-09-04T12:50:57Z</time>
      </trkpt>
      <trkpt lat="44.81644" lon="3.13796">
        <ele>1046.05</ele>
        <time>2020-09-04T12:51:12Z</time>
      </trkpt>
      <trkpt lat="44.81632" lon="3.1381">
        <ele>1047.49</ele>
        <time>2020-09-04T12:51:27Z</time>
      </trkpt>
      <trkpt lat="44.8162" lon="3.13822">
        <ele>1049.42</ele>
        <time>2020-09-04T12:51:42Z</time>
      </trkpt>
      <trkpt lat="44.81608" lon="3.13833">
        <ele>1050.86</ele>
        <time>2020-09-04T12:51:57Z</time>
      </trkpt>
      <trkpt lat="44.81597" lon="3.13844">
        <ele>1052.3</ele>
        <time>2020-09-04T12:52:12Z</time>
      </trkpt>
      <trkpt lat="44.81585" lon="3.13854">
        <ele>1054.7</ele>
        <time>2020-09-04T12:52:27Z</time>
      </trkpt>
      <trkpt lat="44.81575" lon="3.13869">
        <ele>1056.15</ele>
        <time>2020-09-04T12:52:42Z</time>
      </trkpt>
      <trkpt lat="44.81575" lon="3.13891">
        <ele>1057.59</ele>
        <time>2020-09-04T12:52:57Z</time>
      </trkpt>
      <trkpt lat="44.81575" lon="3.13911">
        <ele>1059.99</ele>
        <time>2020-09-04T12:53:12Z</time>
      </trkpt>
      <trkpt lat="44.81579" lon="3.13932">
        <ele>1061.43</ele>
        <time>2020-09-04T12:53:27Z</time>
      </trkpt>
      <trkpt lat="44.81583" lon="3.13954">
        <ele>1062.39</ele>
        <time>2020-09-04T12:53:42Z</time>
      </trkpt>
      <trkpt lat="44.81583" lon="3.13978">
        <ele>1063.84</ele>
        <time>2020-09-04T12:53:57Z</time>
      </trkpt>
      <trkpt lat="44.81581" lon="3.14001">
        <ele>1062.87</ele>
        <time>2020-09-04T12:54:12Z</time>
      </trkpt>
      <trkpt lat="44.81584" lon="3.14022">
        <ele>1064.8</ele>
        <time>2020-09-04T12:54:27Z</time>
      </trkpt>
      <trkpt lat="44.81588" lon="3.14045">
        <ele>1066.24</ele>
        <time>2020-09-04T12:54:42Z</time>
      </trkpt>
      <trkpt lat="44.81592" lon="3.14058">
        <ele>1066.72</ele>
        <time>2020-09-04T12:54:57Z</time>
      </trkpt>
      <trkpt lat="44.81592" lon="3.14062">
        <ele>1066.72</ele>
        <time>2020-09-04T12:55:12Z</time>
      </trkpt>
      <trkpt lat="44.81587" lon="3.14084">
        <ele>1067.2</ele>
        <time>2020-09-04T12:55:27Z</time>
      </trkpt>
      <trkpt lat="44.81576" lon="3.14101">
        <ele>1068.16</ele>
        <time>2020-09-04T12:55:42Z</time>
      </trkpt>
      <trkpt lat="44.81566" lon="3.1412">
        <ele>1069.6</ele>
        <time>2020-09-04T12:55:57Z</time>
      </trkpt>
      <trkpt lat="44.81556" lon="3.14141">
        <ele>1070.08</ele>
        <time>2020-09-04T12:56:12Z</time>
      </trkpt>
      <trkpt lat="44.81545" lon="3.14158">
        <ele>1071.53</ele>
        <time>2020-09-04T12:56:27Z</time>
      </trkpt>
      <trkpt lat="44.81536" lon="3.14176">
        <ele>1072.49</ele>
        <time>2020-09-04T12:56:42Z</time>
      </trkpt>
      <trkpt lat="44.81529" lon="3.14195">
        <ele>1073.93</ele>
        <time>2020-09-04T12:56:57Z</time>
      </trkpt>
      <trkpt lat="44.81525" lon="3.14216">
        <ele>1075.37</ele>
        <time>2020-09-04T12:57:12Z</time>
      </trkpt>
      <trkpt lat="44.81522" lon="3.14234">
        <ele>1077.29</ele>
        <time>2020-09-04T12:57:27Z</time>
      </trkpt>
      <trkpt lat="44.8152" lon="3.14253">
        <ele>1078.26</ele>
        <time>2020-09-04T12:57:42Z</time>
      </trkpt>
      <trkpt lat="44.81516" lon="3.14272">
        <ele>1080.66</ele>
        <time>2020-09-04T12:57:57Z</time>
      </trkpt>
      <trkpt lat="44.81514" lon="3.14291">
        <ele>1081.62</ele>
        <time>2020-09-04T12:58:12Z</time>
      </trkpt>
      <trkpt lat="44.81511" lon="3.14312">
        <ele>1083.54</ele>
        <time>2020-09-04T12:58:27Z</time>
      </trkpt>
      <trkpt lat="44.81507" lon="3.14331">
        <ele>1084.5</ele>
        <time>2020-09-04T12:58:42Z</time>
      </trkpt>
      <trkpt lat="44.81502" lon="3.14348">
        <ele>1086.43</ele>
        <time>2020-09-04T12:58:57Z</time>
      </trkpt>
      <trkpt lat="44.81502" lon="3.14348">
        <ele>1086.91</ele>
        <time>2020-09-04T12:59:12Z</time>
      </trkpt>
      <trkpt lat="44.81501" lon="3.14347">
        <ele>1086.43</ele>
        <time>2020-09-04T12:59:27Z</time>
      </trkpt>
      <trkpt lat="44.81495" lon="3.14371">
        <ele>1088.35</ele>
        <time>2020-09-04T12:59:42Z</time>
      </trkpt>
      <trkpt lat="44.81487" lon="3.14394">
        <ele>1089.79</ele>
        <time>2020-09-04T12:59:57Z</time>
      </trkpt>
      <trkpt lat="44.8148" lon="3.14419">
        <ele>1088.83</ele>
        <time>2020-09-04T13:00:12Z</time>
      </trkpt>
      <trkpt lat="44.81475" lon="3.14436">
        <ele>1089.31</ele>
        <time>2020-09-04T13:00:27Z</time>
      </trkpt>
      <trkpt lat="44.81466" lon="3.14456">
        <ele>1090.75</ele>
        <time>2020-09-04T13:00:42Z</time>
      </trkpt>
      <trkpt lat="44.81457" lon="3.14477">
        <ele>1091.71</ele>
        <time>2020-09-04T13:00:57Z</time>
      </trkpt>
      <trkpt lat="44.81451" lon="3.14499">
        <ele>1094.12</ele>
        <time>2020-09-04T13:01:12Z</time>
      </trkpt>
      <trkpt lat="44.81447" lon="3.1452">
        <ele>1095.08</ele>
        <time>2020-09-04T13:01:27Z</time>
      </trkpt>
      <trkpt lat="44.81442" lon="3.14541">
        <ele>1096.04</ele>
        <time>2020-09-04T13:01:42Z</time>
      </trkpt>
      <trkpt lat="44.81438" lon="3.14563">
        <ele>1097.48</ele>
        <time>2020-09-04T13:01:57Z</time>
      </trkpt>
      <trkpt lat="44.81434" lon="3.14584">
        <ele>1098.92</ele>
        <time>2020-09-04T13:02:12Z</time>
      </trkpt>
      <trkpt lat="44.81433" lon="3.14604">
        <ele>1100.85</ele>
        <time>2020-09-04T13:02:27Z</time>
      </trkpt>
      <trkpt lat="44.81432" lon="3.14624">
        <ele>1101.81</ele>
        <time>2020-09-04T13:02:42Z</time>
      </trkpt>
      <trkpt lat="44.81431" lon="3.14644">
        <ele>1103.73</ele>
        <time>2020-09-04T13:02:57Z</time>
      </trkpt>
      <trkpt lat="44.81432" lon="3.14663">
        <ele>1105.65</ele>
        <time>2020-09-04T13:03:12Z</time>
      </trkpt>
      <trkpt lat="44.81431" lon="3.14684">
        <ele>1107.1</ele>
        <time>2020-09-04T13:03:27Z</time>
      </trkpt>
      <trkpt lat="44.8143" lon="3.14703">
        <ele>1109.02</ele>
        <time>2020-09-04T13:03:42Z</time>
      </trkpt>
      <trkpt lat="44.81428" lon="3.14725">
        <ele>1110.94</ele>
        <time>2020-09-04T13:03:57Z</time>
      </trkpt>
      <trkpt lat="44.81425" lon="3.14745">
        <ele>1113.34</ele>
        <time>2020-09-04T13:04:12Z</time>
      </trkpt>
      <trkpt lat="44.81423" lon="3.14767">
        <ele>1114.31</ele>
        <time>2020-09-04T13:04:27Z</time>
      </trkpt>
      <trkpt lat="44.81422" lon="3.14767">
        <ele>1114.31</ele>
        <time>2020-09-04T13:04:42Z</time>
      </trkpt>
      <trkpt lat="44.81421" lon="3.14765">
        <ele>1114.79</ele>
        <time>2020-09-04T13:04:57Z</time>
      </trkpt>
      <trkpt lat="44.81422" lon="3.14764">
        <ele>1115.27</ele>
        <time>2020-09-04T13:05:12Z</time>
      </trkpt>
      <trkpt lat="44.81422" lon="3.14778">
        <ele>1115.27</ele>
        <time>2020-09-04T13:05:27Z</time>
      </trkpt>
      <trkpt lat="44.81421" lon="3.14783">
        <ele>1116.23</ele>
        <time>2020-09-04T13:05:42Z</time>
      </trkpt>
      <trkpt lat="44.8142" lon="3.14784">
        <ele>1115.75</ele>
        <time>2020-09-04T13:05:57Z</time>
      </trkpt>
      <trkpt lat="44.8142" lon="3.14785">
        <ele>1116.23</ele>
        <time>2020-09-04T13:06:12Z</time>
      </trkpt>
      <trkpt lat="44.81424" lon="3.14785">
        <ele>1116.23</ele>
        <time>2020-09-04T13:06:27Z</time>
      </trkpt>
      <trkpt lat="44.81423" lon="3.14794">
        <ele>1116.23</ele>
        <time>2020-09-04T13:06:42Z</time>
      </trkpt>
      <trkpt lat="44.81422" lon="3.14816">
        <ele>1117.19</ele>
        <time>2020-09-04T13:06:57Z</time>
      </trkpt>
      <trkpt lat="44.8142" lon="3.14838">
        <ele>1119.11</ele>
        <time>2020-09-04T13:07:12Z</time>
      </trkpt>
      <trkpt lat="44.81419" lon="3.14857">
        <ele>1121.03</ele>
        <time>2020-09-04T13:07:27Z</time>
      </trkpt>
      <trkpt lat="44.81417" lon="3.14877">
        <ele>1121.03</ele>
        <time>2020-09-04T13:07:42Z</time>
      </trkpt>
      <trkpt lat="44.81416" lon="3.14898">
        <ele>1121.52</ele>
        <time>2020-09-04T13:07:57Z</time>
      </trkpt>
      <trkpt lat="44.81413" lon="3.1492">
        <ele>1122</ele>
        <time>2020-09-04T13:08:12Z</time>
      </trkpt>
      <trkpt lat="44.81412" lon="3.1494">
        <ele>1121.52</ele>
        <time>2020-09-04T13:08:27Z</time>
      </trkpt>
      <trkpt lat="44.81412" lon="3.14964">
        <ele>1121.52</ele>
        <time>2020-09-04T13:08:42Z</time>
      </trkpt>
      <trkpt lat="44.8141" lon="3.14987">
        <ele>1122</ele>
        <time>2020-09-04T13:08:57Z</time>
      </trkpt>
      <trkpt lat="44.8141" lon="3.14991">
        <ele>1122.48</ele>
        <time>2020-09-04T13:09:12Z</time>
      </trkpt>
      <trkpt lat="44.81409" lon="3.14993">
        <ele>1122.48</ele>
        <time>2020-09-04T13:09:27Z</time>
      </trkpt>
      <trkpt lat="44.81407" lon="3.15017">
        <ele>1122.96</ele>
        <time>2020-09-04T13:09:42Z</time>
      </trkpt>
      <trkpt lat="44.81405" lon="3.1504">
        <ele>1123.92</ele>
        <time>2020-09-04T13:09:57Z</time>
      </trkpt>
      <trkpt lat="44.81402" lon="3.15062">
        <ele>1124.88</ele>
        <time>2020-09-04T13:10:12Z</time>
      </trkpt>
      <trkpt lat="44.81398" lon="3.15082">
        <ele>1126.32</ele>
        <time>2020-09-04T13:10:27Z</time>
      </trkpt>
      <trkpt lat="44.81395" lon="3.15099">
        <ele>1127.28</ele>
        <time>2020-09-04T13:10:42Z</time>
      </trkpt>
      <trkpt lat="44.81393" lon="3.15108">
        <ele>1127.76</ele>
        <time>2020-09-04T13:10:57Z</time>
      </trkpt>
      <trkpt lat="44.81392" lon="3.15127">
        <ele>1129.69</ele>
        <time>2020-09-04T13:11:12Z</time>
      </trkpt>
      <trkpt lat="44.81391" lon="3.15146">
        <ele>1130.65</ele>
        <time>2020-09-04T13:11:27Z</time>
      </trkpt>
      <trkpt lat="44.81392" lon="3.15169">
        <ele>1132.09</ele>
        <time>2020-09-04T13:11:42Z</time>
      </trkpt>
      <trkpt lat="44.8139" lon="3.15188">
        <ele>1132.57</ele>
        <time>2020-09-04T13:11:57Z</time>
      </trkpt>
      <trkpt lat="44.81388" lon="3.15208">
        <ele>1134.01</ele>
        <time>2020-09-04T13:12:12Z</time>
      </trkpt>
      <trkpt lat="44.81387" lon="3.15227">
        <ele>1134.97</ele>
        <time>2020-09-04T13:12:27Z</time>
      </trkpt>
      <trkpt lat="44.81387" lon="3.15247">
        <ele>1135.94</ele>
        <time>2020-09-04T13:12:42Z</time>
      </trkpt>
      <trkpt lat="44.81384" lon="3.15266">
        <ele>1137.38</ele>
        <time>2020-09-04T13:12:57Z</time>
      </trkpt>
      <trkpt lat="44.81385" lon="3.15287">
        <ele>1138.34</ele>
        <time>2020-09-04T13:13:12Z</time>
      </trkpt>
      <trkpt lat="44.81382" lon="3.15307">
        <ele>1139.78</ele>
        <time>2020-09-04T13:13:27Z</time>
      </trkpt>
      <trkpt lat="44.81381" lon="3.15327">
        <ele>1140.74</ele>
        <time>2020-09-04T13:13:42Z</time>
      </trkpt>
      <trkpt lat="44.8138" lon="3.15348">
        <ele>1141.22</ele>
        <time>2020-09-04T13:13:57Z</time>
      </trkpt>
      <trkpt lat="44.81384" lon="3.15351">
        <ele>1141.7</ele>
        <time>2020-09-04T13:14:12Z</time>
      </trkpt>
      <trkpt lat="44.81385" lon="3.15352">
        <ele>1141.7</ele>
        <time>2020-09-04T13:14:27Z</time>
      </trkpt>
      <trkpt lat="44.81379" lon="3.15353">
        <ele>1141.22</ele>
        <time>2020-09-04T13:14:42Z</time>
      </trkpt>
      <trkpt lat="44.81378" lon="3.15355">
        <ele>1141.22</ele>
        <time>2020-09-04T13:14:57Z</time>
      </trkpt>
      <trkpt lat="44.81374" lon="3.15367">
        <ele>1142.18</ele>
        <time>2020-09-04T13:15:12Z</time>
      </trkpt>
      <trkpt lat="44.81366" lon="3.15385">
        <ele>1143.14</ele>
        <time>2020-09-04T13:15:27Z</time>
      </trkpt>
      <trkpt lat="44.81358" lon="3.15407">
        <ele>1144.11</ele>
        <time>2020-09-04T13:15:42Z</time>
      </trkpt>
      <trkpt lat="44.8135" lon="3.1543">
        <ele>1144.59</ele>
        <time>2020-09-04T13:15:57Z</time>
      </trkpt>
      <trkpt lat="44.81342" lon="3.15449">
        <ele>1145.55</ele>
        <time>2020-09-04T13:16:12Z</time>
      </trkpt>
      <trkpt lat="44.81335" lon="3.15471">
        <ele>1146.99</ele>
        <time>2020-09-04T13:16:27Z</time>
      </trkpt>
      <trkpt lat="44.81328" lon="3.15493">
        <ele>1146.99</ele>
        <time>2020-09-04T13:16:42Z</time>
      </trkpt>
      <trkpt lat="44.81322" lon="3.15517">
        <ele>1147.47</ele>
        <time>2020-09-04T13:16:57Z</time>
      </trkpt>
      <trkpt lat="44.81321" lon="3.15534">
        <ele>1147.47</ele>
        <time>2020-09-04T13:17:12Z</time>
      </trkpt>
      <trkpt lat="44.81324" lon="3.15537">
        <ele>1147.95</ele>
        <time>2020-09-04T13:17:27Z</time>
      </trkpt>
      <trkpt lat="44.81324" lon="3.15538">
        <ele>1147.95</ele>
        <time>2020-09-04T13:17:42Z</time>
      </trkpt>
      <trkpt lat="44.81312" lon="3.15542">
        <ele>1147.95</ele>
        <time>2020-09-04T13:17:57Z</time>
      </trkpt>
      <trkpt lat="44.81305" lon="3.1556">
        <ele>1147.95</ele>
        <time>2020-09-04T13:18:12Z</time>
      </trkpt>
      <trkpt lat="44.81296" lon="3.15579">
        <ele>1147.47</ele>
        <time>2020-09-04T13:18:27Z</time>
      </trkpt>
      <trkpt lat="44.81288" lon="3.15595">
        <ele>1147.47</ele>
        <time>2020-09-04T13:18:42Z</time>
      </trkpt>
      <trkpt lat="44.8128" lon="3.15616">
        <ele>1147.95</ele>
        <time>2020-09-04T13:18:57Z</time>
      </trkpt>
      <trkpt lat="44.81271" lon="3.15634">
        <ele>1146.51</ele>
        <time>2020-09-04T13:19:12Z</time>
      </trkpt>
      <trkpt lat="44.81264" lon="3.15652">
        <ele>1145.07</ele>
        <time>2020-09-04T13:19:27Z</time>
      </trkpt>
      <trkpt lat="44.81254" lon="3.15672">
        <ele>1143.63</ele>
        <time>2020-09-04T13:19:42Z</time>
      </trkpt>
      <trkpt lat="44.81246" lon="3.1569">
        <ele>1143.14</ele>
        <time>2020-09-04T13:19:57Z</time>
      </trkpt>
      <trkpt lat="44.81233" lon="3.15705">
        <ele>1141.7</ele>
        <time>2020-09-04T13:20:12Z</time>
      </trkpt>
      <trkpt lat="44.81217" lon="3.15713">
        <ele>1140.74</ele>
        <time>2020-09-04T13:20:27Z</time>
      </trkpt>
      <trkpt lat="44.812" lon="3.15718">
        <ele>1139.3</ele>
        <time>2020-09-04T13:20:42Z</time>
      </trkpt>
      <trkpt lat="44.81185" lon="3.15721">
        <ele>1138.34</ele>
        <time>2020-09-04T13:20:57Z</time>
      </trkpt>
      <trkpt lat="44.81176" lon="3.15733">
        <ele>1136.42</ele>
        <time>2020-09-04T13:21:12Z</time>
      </trkpt>
      <trkpt lat="44.81182" lon="3.15749">
        <ele>1134.97</ele>
        <time>2020-09-04T13:21:27Z</time>
      </trkpt>
      <trkpt lat="44.81189" lon="3.15766">
        <ele>1134.49</ele>
        <time>2020-09-04T13:21:42Z</time>
      </trkpt>
      <trkpt lat="44.81196" lon="3.15784">
        <ele>1132.57</ele>
        <time>2020-09-04T13:21:57Z</time>
      </trkpt>
      <trkpt lat="44.81206" lon="3.15802">
        <ele>1131.61</ele>
        <time>2020-09-04T13:22:12Z</time>
      </trkpt>
      <trkpt lat="44.81203" lon="3.15806">
        <ele>1132.09</ele>
        <time>2020-09-04T13:22:27Z</time>
      </trkpt>
      <trkpt lat="44.81206" lon="3.15806">
        <ele>1131.61</ele>
        <time>2020-09-04T13:22:42Z</time>
      </trkpt>
      <trkpt lat="44.81213" lon="3.15829">
        <ele>1129.69</ele>
        <time>2020-09-04T13:22:57Z</time>
      </trkpt>
      <trkpt lat="44.81216" lon="3.15857">
        <ele>1128.73</ele>
        <time>2020-09-04T13:23:12Z</time>
      </trkpt>
      <trkpt lat="44.8121" lon="3.15879">
        <ele>1127.76</ele>
        <time>2020-09-04T13:23:27Z</time>
      </trkpt>
      <trkpt lat="44.81197" lon="3.15904">
        <ele>1126.8</ele>
        <time>2020-09-04T13:23:42Z</time>
      </trkpt>
      <trkpt lat="44.81184" lon="3.15906">
        <ele>1127.28</ele>
        <time>2020-09-04T13:23:57Z</time>
      </trkpt>
      <trkpt lat="44.8117" lon="3.15902">
        <ele>1126.8</ele>
        <time>2020-09-04T13:24:12Z</time>
      </trkpt>
      <trkpt lat="44.81165" lon="3.15916">
        <ele>1126.8</ele>
        <time>2020-09-04T13:24:27Z</time>
      </trkpt>
      <trkpt lat="44.81166" lon="3.15927">
        <ele>1126.8</ele>
        <time>2020-09-04T13:24:42Z</time>
      </trkpt>
      <trkpt lat="44.81168" lon="3.15937">
        <ele>1127.28</ele>
        <time>2020-09-04T13:24:57Z</time>
      </trkpt>
      <trkpt lat="44.81166" lon="3.15943">
        <ele>1126.32</ele>
        <time>2020-09-04T13:25:12Z</time>
      </trkpt>
      <trkpt lat="44.81163" lon="3.15947">
        <ele>1125.84</ele>
        <time>2020-09-04T13:25:27Z</time>
      </trkpt>
      <trkpt lat="44.81166" lon="3.15947">
        <ele>1125.36</ele>
        <time>2020-09-04T13:25:42Z</time>
      </trkpt>
      <trkpt lat="44.81166" lon="3.15945">
        <ele>1125.84</ele>
        <time>2020-09-04T13:25:57Z</time>
      </trkpt>
      <trkpt lat="44.81166" lon="3.15944">
        <ele>1125.84</ele>
        <time>2020-09-04T13:26:12Z</time>
      </trkpt>
      <trkpt lat="44.81166" lon="3.1594">
        <ele>1125.84</ele>
        <time>2020-09-04T13:26:27Z</time>
      </trkpt>
      <trkpt lat="44.81168" lon="3.15938">
        <ele>1126.32</ele>
        <time>2020-09-04T13:26:42Z</time>
      </trkpt>
      <trkpt lat="44.81167" lon="3.1594">
        <ele>1126.32</ele>
        <time>2020-09-04T13:26:57Z</time>
      </trkpt>
      <trkpt lat="44.81166" lon="3.15942">
        <ele>1126.32</ele>
        <time>2020-09-04T13:27:12Z</time>
      </trkpt>
      <trkpt lat="44.81165" lon="3.1594">
        <ele>1126.32</ele>
        <time>2020-09-04T13:27:27Z</time>
      </trkpt>
      <trkpt lat="44.81165" lon="3.1594">
        <ele>1126.32</ele>
        <time>2020-09-04T13:27:42Z</time>
      </trkpt>
      <trkpt lat="44.81163" lon="3.15942">
        <ele>1126.8</ele>
        <time>2020-09-04T13:27:57Z</time>
      </trkpt>
      <trkpt lat="44.81161" lon="3.15942">
        <ele>1126.32</ele>
        <time>2020-09-04T13:28:12Z</time>
      </trkpt>
      <trkpt lat="44.81161" lon="3.15942">
        <ele>1126.32</ele>
        <time>2020-09-04T13:28:27Z</time>
      </trkpt>
      <trkpt lat="44.81162" lon="3.15943">
        <ele>1126.8</ele>
        <time>2020-09-04T13:28:42Z</time>
      </trkpt>
      <trkpt lat="44.81162" lon="3.15944">
        <ele>1127.76</ele>
        <time>2020-09-04T13:28:57Z</time>
      </trkpt>
      <trkpt lat="44.81165" lon="3.15946">
        <ele>1127.28</ele>
        <time>2020-09-04T13:29:12Z</time>
      </trkpt>
      <trkpt lat="44.81167" lon="3.15952">
        <ele>1128.24</ele>
        <time>2020-09-04T13:29:27Z</time>
      </trkpt>
      <trkpt lat="44.81172" lon="3.15958">
        <ele>1127.76</ele>
        <time>2020-09-04T13:29:42Z</time>
      </trkpt>
      <trkpt lat="44.8117" lon="3.15979">
        <ele>1128.24</ele>
        <time>2020-09-04T13:29:57Z</time>
      </trkpt>
      <trkpt lat="44.81178" lon="3.16004">
        <ele>1126.8</ele>
        <time>2020-09-04T13:30:12Z</time>
      </trkpt>
      <trkpt lat="44.8119" lon="3.1602">
        <ele>1126.32</ele>
        <time>2020-09-04T13:30:27Z</time>
      </trkpt>
      <trkpt lat="44.81203" lon="3.16033">
        <ele>1125.84</ele>
        <time>2020-09-04T13:30:42Z</time>
      </trkpt>
      <trkpt lat="44.8121" lon="3.16048">
        <ele>1125.36</ele>
        <time>2020-09-04T13:30:57Z</time>
      </trkpt>
      <trkpt lat="44.8122" lon="3.16064">
        <ele>1124.4</ele>
        <time>2020-09-04T13:31:12Z</time>
      </trkpt>
      <trkpt lat="44.81232" lon="3.16087">
        <ele>1125.36</ele>
        <time>2020-09-04T13:31:27Z</time>
      </trkpt>
      <trkpt lat="44.81235" lon="3.16111">
        <ele>1124.88</ele>
        <time>2020-09-04T13:31:42Z</time>
      </trkpt>
      <trkpt lat="44.81232" lon="3.16133">
        <ele>1125.36</ele>
        <time>2020-09-04T13:31:57Z</time>
      </trkpt>
      <trkpt lat="44.81229" lon="3.16155">
        <ele>1125.84</ele>
        <time>2020-09-04T13:32:12Z</time>
      </trkpt>
      <trkpt lat="44.81228" lon="3.16177">
        <ele>1126.32</ele>
        <time>2020-09-04T13:32:27Z</time>
      </trkpt>
      <trkpt lat="44.81225" lon="3.16201">
        <ele>1125.36</ele>
        <time>2020-09-04T13:32:42Z</time>
      </trkpt>
      <trkpt lat="44.8122" lon="3.16222">
        <ele>1124.88</ele>
        <time>2020-09-04T13:32:57Z</time>
      </trkpt>
      <trkpt lat="44.81216" lon="3.16245">
        <ele>1125.84</ele>
        <time>2020-09-04T13:33:12Z</time>
      </trkpt>
      <trkpt lat="44.81207" lon="3.16265">
        <ele>1126.8</ele>
        <time>2020-09-04T13:33:27Z</time>
      </trkpt>
      <trkpt lat="44.81198" lon="3.16285">
        <ele>1126.8</ele>
        <time>2020-09-04T13:33:42Z</time>
      </trkpt>
      <trkpt lat="44.81188" lon="3.16306">
        <ele>1126.8</ele>
        <time>2020-09-04T13:33:57Z</time>
      </trkpt>
      <trkpt lat="44.81179" lon="3.16326">
        <ele>1127.28</ele>
        <time>2020-09-04T13:34:12Z</time>
      </trkpt>
      <trkpt lat="44.81169" lon="3.16347">
        <ele>1127.28</ele>
        <time>2020-09-04T13:34:27Z</time>
      </trkpt>
      <trkpt lat="44.8116" lon="3.16368">
        <ele>1127.76</ele>
        <time>2020-09-04T13:34:42Z</time>
      </trkpt>
      <trkpt lat="44.81154" lon="3.16392">
        <ele>1128.24</ele>
        <time>2020-09-04T13:34:57Z</time>
      </trkpt>
      <trkpt lat="44.81148" lon="3.16414">
        <ele>1129.21</ele>
        <time>2020-09-04T13:35:12Z</time>
      </trkpt>
      <trkpt lat="44.81147" lon="3.16433">
        <ele>1129.21</ele>
        <time>2020-09-04T13:35:27Z</time>
      </trkpt>
      <trkpt lat="44.81149" lon="3.16432">
        <ele>1129.21</ele>
        <time>2020-09-04T13:35:42Z</time>
      </trkpt>
      <trkpt lat="44.81144" lon="3.16452">
        <ele>1129.69</ele>
        <time>2020-09-04T13:35:57Z</time>
      </trkpt>
      <trkpt lat="44.81143" lon="3.16479">
        <ele>1130.65</ele>
        <time>2020-09-04T13:36:12Z</time>
      </trkpt>
      <trkpt lat="44.81143" lon="3.16505">
        <ele>1130.65</ele>
        <time>2020-09-04T13:36:27Z</time>
      </trkpt>
      <trkpt lat="44.81143" lon="3.16528">
        <ele>1131.13</ele>
        <time>2020-09-04T13:36:42Z</time>
      </trkpt>
      <trkpt lat="44.81144" lon="3.16549">
        <ele>1131.61</ele>
        <time>2020-09-04T13:36:57Z</time>
      </trkpt>
      <trkpt lat="44.81146" lon="3.16573">
        <ele>1132.09</ele>
        <time>2020-09-04T13:37:12Z</time>
      </trkpt>
      <trkpt lat="44.81143" lon="3.16595">
        <ele>1132.57</ele>
        <time>2020-09-04T13:37:27Z</time>
      </trkpt>
      <trkpt lat="44.81139" lon="3.16618">
        <ele>1132.57</ele>
        <time>2020-09-04T13:37:42Z</time>
      </trkpt>
      <trkpt lat="44.81138" lon="3.16643">
        <ele>1133.05</ele>
        <time>2020-09-04T13:37:57Z</time>
      </trkpt>
      <trkpt lat="44.81136" lon="3.16664">
        <ele>1133.53</ele>
        <time>2020-09-04T13:38:12Z</time>
      </trkpt>
      <trkpt lat="44.81136" lon="3.1667">
        <ele>1133.53</ele>
        <time>2020-09-04T13:38:27Z</time>
      </trkpt>
      <trkpt lat="44.81136" lon="3.1667">
        <ele>1134.01</ele>
        <time>2020-09-04T13:38:42Z</time>
      </trkpt>
      <trkpt lat="44.81137" lon="3.1667">
        <ele>1133.53</ele>
        <time>2020-09-04T13:38:57Z</time>
      </trkpt>
      <trkpt lat="44.81138" lon="3.16673">
        <ele>1133.05</ele>
        <time>2020-09-04T13:39:12Z</time>
      </trkpt>
      <trkpt lat="44.81135" lon="3.16668">
        <ele>1133.53</ele>
        <time>2020-09-04T13:39:27Z</time>
      </trkpt>
      <trkpt lat="44.81135" lon="3.1667">
        <ele>1133.05</ele>
        <time>2020-09-04T13:39:42Z</time>
      </trkpt>
      <trkpt lat="44.81134" lon="3.16671">
        <ele>1133.53</ele>
        <time>2020-09-04T13:39:57Z</time>
      </trkpt>
      <trkpt lat="44.81137" lon="3.16673">
        <ele>1134.01</ele>
        <time>2020-09-04T13:40:12Z</time>
      </trkpt>
      <trkpt lat="44.81134" lon="3.16669">
        <ele>1133.53</ele>
        <time>2020-09-04T13:40:27Z</time>
      </trkpt>
      <trkpt lat="44.81123" lon="3.16653">
        <ele>1134.01</ele>
        <time>2020-09-04T13:40:42Z</time>
      </trkpt>
      <trkpt lat="44.8112" lon="3.16652">
        <ele>1134.01</ele>
        <time>2020-09-04T13:40:57Z</time>
      </trkpt>
      <trkpt lat="44.81121" lon="3.16653">
        <ele>1134.01</ele>
        <time>2020-09-04T13:41:12Z</time>
      </trkpt>
      <trkpt lat="44.81125" lon="3.16659">
        <ele>1134.49</ele>
        <time>2020-09-04T13:41:27Z</time>
      </trkpt>
      <trkpt lat="44.81128" lon="3.16672">
        <ele>1133.53</ele>
        <time>2020-09-04T13:41:42Z</time>
      </trkpt>
      <trkpt lat="44.81142" lon="3.16664">
        <ele>1134.01</ele>
        <time>2020-09-04T13:41:57Z</time>
      </trkpt>
      <trkpt lat="44.81146" lon="3.16659">
        <ele>1134.01</ele>
        <time>2020-09-04T13:42:12Z</time>
      </trkpt>
      <trkpt lat="44.81151" lon="3.16657">
        <ele>1134.49</ele>
        <time>2020-09-04T13:42:27Z</time>
      </trkpt>
      <trkpt lat="44.81151" lon="3.16663">
        <ele>1133.53</ele>
        <time>2020-09-04T13:42:42Z</time>
      </trkpt>
      <trkpt lat="44.81149" lon="3.16665">
        <ele>1133.05</ele>
        <time>2020-09-04T13:42:57Z</time>
      </trkpt>
      <trkpt lat="44.81149" lon="3.16666">
        <ele>1133.53</ele>
        <time>2020-09-04T13:43:12Z</time>
      </trkpt>
      <trkpt lat="44.81147" lon="3.16668">
        <ele>1133.05</ele>
        <time>2020-09-04T13:43:27Z</time>
      </trkpt>
      <trkpt lat="44.81147" lon="3.16669">
        <ele>1133.53</ele>
        <time>2020-09-04T13:43:42Z</time>
      </trkpt>
      <trkpt lat="44.81147" lon="3.16668">
        <ele>1133.53</ele>
        <time>2020-09-04T13:43:57Z</time>
      </trkpt>
      <trkpt lat="44.81147" lon="3.16668">
        <ele>1133.53</ele>
        <time>2020-09-04T13:44:12Z</time>
      </trkpt>
      <trkpt lat="44.81148" lon="3.16666">
        <ele>1133.53</ele>
        <time>2020-09-04T13:44:27Z</time>
      </trkpt>
      <trkpt lat="44.81149" lon="3.16664">
        <ele>1133.05</ele>
        <time>2020-09-04T13:44:42Z</time>
      </trkpt>
      <trkpt lat="44.81151" lon="3.16662">
        <ele>1133.05</ele>
        <time>2020-09-04T13:44:57Z</time>
      </trkpt>
      <trkpt lat="44.8115" lon="3.16661">
        <ele>1134.01</ele>
        <time>2020-09-04T13:45:12Z</time>
      </trkpt>
      <trkpt lat="44.81148" lon="3.16665">
        <ele>1133.53</ele>
        <time>2020-09-04T13:45:27Z</time>
      </trkpt>
      <trkpt lat="44.81149" lon="3.16663">
        <ele>1134.01</ele>
        <time>2020-09-04T13:45:42Z</time>
      </trkpt>
      <trkpt lat="44.81149" lon="3.16662">
        <ele>1133.53</ele>
        <time>2020-09-04T13:45:57Z</time>
      </trkpt>
      <trkpt lat="44.81148" lon="3.16663">
        <ele>1133.53</ele>
        <time>2020-09-04T13:46:12Z</time>
      </trkpt>
      <trkpt lat="44.81149" lon="3.16662">
        <ele>1134.01</ele>
        <time>2020-09-04T13:46:27Z</time>
      </trkpt>
      <trkpt lat="44.81148" lon="3.16662">
        <ele>1133.53</ele>
        <time>2020-09-04T13:46:42Z</time>
      </trkpt>
      <trkpt lat="44.81149" lon="3.16663">
        <ele>1134.01</ele>
        <time>2020-09-04T13:46:57Z</time>
      </trkpt>
      <trkpt lat="44.81151" lon="3.16664">
        <ele>1133.05</ele>
        <time>2020-09-04T13:47:12Z</time>
      </trkpt>
      <trkpt lat="44.8115" lon="3.16664">
        <ele>1133.53</ele>
        <time>2020-09-04T13:47:27Z</time>
      </trkpt>
      <trkpt lat="44.81149" lon="3.16664">
        <ele>1134.01</ele>
        <time>2020-09-04T13:47:42Z</time>
      </trkpt>
      <trkpt lat="44.81149" lon="3.16662">
        <ele>1133.53</ele>
        <time>2020-09-04T13:47:57Z</time>
      </trkpt>
      <trkpt lat="44.81149" lon="3.16663">
        <ele>1133.53</ele>
        <time>2020-09-04T13:48:12Z</time>
      </trkpt>
      <trkpt lat="44.81149" lon="3.16665">
        <ele>1133.53</ele>
        <time>2020-09-04T13:48:27Z</time>
      </trkpt>
      <trkpt lat="44.81149" lon="3.16669">
        <ele>1133.53</ele>
        <time>2020-09-04T13:48:42Z</time>
      </trkpt>
      <trkpt lat="44.81148" lon="3.16668">
        <ele>1133.05</ele>
        <time>2020-09-04T13:48:57Z</time>
      </trkpt>
      <trkpt lat="44.81147" lon="3.16665">
        <ele>1133.53</ele>
        <time>2020-09-04T13:49:12Z</time>
      </trkpt>
      <trkpt lat="44.8115" lon="3.16664">
        <ele>1133.53</ele>
        <time>2020-09-04T13:49:27Z</time>
      </trkpt>
    </trkseg>
  </trk>
</gpx>